[[{"header":{"parameterUnit":"m.s-1","parameterCategory":1,"la1":31.0,"la2":29.5877,"lo1":-88.7671,"lo2":-86.6584,"dy":0.0162,"dx":0.0185,"nx":115,"ny":88,"refTime":"2026-04-07T12:00:00:Z","depth":0,"parameterNumber":2,"parameterNumberName":"U-component_of_WINDS"},"data":[0.0,0.0,0.0,0.0,0.0,0.0,0.0,0.0,0.0,0.0,0.0,0.0,0.0,0.0,0.0,0.0,0.0,0.0,0.0,0.0,0.0,0.0,0.0,0.0,0.0,0.0,0.0,0.0,0.0,0.0,0.0,0.0,0.0,0.0,0.0,0.0,0.0,0.0,0.0,0.0,0.0,0.0,0.0,0.0,0.0,0.0,0.0,0.0,0.0,0.0,0.0,0.0,0.0,0.0,0.0,0.0,0.0,0.0,0.0,0.0,0.0,0.0,0.0,0.0,0.0,0.0,0.0,0.0,0.0,0.0,0.0,0.0,0.0,0.0,0.0,0.0,0.0,0.0,0.0,0.0,0.0,0.0,0.0,0.0,0.0,0.0,0.0,0.0,0.0,0.0,0.0,0.0,0.0,0.0,0.0,0.0,0.0,0.0,0.0,0.0,0.0,0.0,0.0,0.0,0.0,0.0,0.0,0.0,0.0,0.0,0.0,0.0,0.0,0.0,0.0,0.0,0.0,0.0,0.0,0.0,0.0,0.0,0.0,0.0,0.0,0.0,0.0,0.0,0.0,0.0,0.0,0.0,0.0,0.0,0.0,0.0,0.0,0.0,0.0,0.0,0.0,0.0,0.0,0.0,0.0,0.0,0.0,0.0,0.0,0.0,0.0,0.0,0.0,0.0,0.0,0.0,0.0,0.0,0.0,0.0,0.0,0.0,0.0,0.0,0.0,0.0,0.0,0.0,0.0,0.0,0.0,0.0,0.0,0.0,0.0,0.0,0.0,0.0,0.0,0.0,0.0,0.0,0.0,0.0,0.0,0.0,0.0,0.0,0.0,0.0,0.0,0.0,0.0,0.0,0.0,0.0,0.0,0.0,0.0,0.0,0.0,0.0,0.0,0.0,0.0,0.0,0.0,0.0,0.0,0.0,0.0,0.0,0.0,0.0,0.0,0.0,0.0,0.0,0.0,0.0,0.0,0.0,0.0,0.0,0.0,0.0,0.0,0.0,0.0,0.0,0.0,0.0,0.0,0.0,0.0,0.0,0.0,0.0,0.0,0.0,0.0,0.0,0.0,0.0,0.0,0.0,0.0,0.0,0.0,0.0,0.0,0.0,0.0,0.0,0.0,0.0,0.0,0.0,0.0,0.0,0.0,0.0,0.0,0.0,0.0,0.0,0.0,0.0,0.0,0.0,0.0,0.0,0.0,0.0,0.0,0.0,0.0,0.0,0.0,0.0,0.0,0.0,0.0,0.0,0.0,0.0,0.0,0.0,0.0,0.0,0.0,0.0,0.0,0.0,0.0,0.0,0.0,0.0,0.0,0.0,0.0,0.0,0.0,0.0,0.0,0.0,0.0,0.0,0.0,0.0,0.0,0.0,0.0,0.0,0.0,0.0,0.0,0.0,0.0,0.0,0.0,0.0,0.0,0.0,0.0,0.0,0.0,0.0,0.0,0.0,0.0,0.0,0.0,0.0,0.0,0.0,0.0,0.0,0.0,0.0,0.0,0.0,0.0,0.0,0.0,0.0,0.0,0.0,0.0,0.0,0.0,0.0,0.0,0.0,0.0,0.0,0.0,0.0,0.0,0.0,0.0,0.0,0.0,0.0,0.0,0.0,0.0,0.0,0.0,0.0,0.0,0.0,0.0,0.0,0.0,0.0,0.0,0.0,0.0,0.0,0.0,0.0,0.0,0.0,0.0,0.0,0.0,0.0,0.0,0.0,0.0,0.0,0.0,0.0,0.0,0.0,0.0,0.0,0.0,0.0,0.0,0.0,0.0,0.0,0.0,0.0,0.0,0.0,0.0,0.0,0.0,0.0,0.0,0.0,0.0,0.0,0.0,0.0,0.0,0.0,0.0,0.0,0.0,0.0,0.0,0.0,0.0,0.0,0.0,0.0,0.0,0.0,0.0,0.0,0.0,0.0,0.0,0.0,0.0,0.0,0.0,0.0,0.0,0.0,0.0,0.0,0.0,0.0,0.0,0.0,0.0,0.0,0.0,0.0,0.0,0.0,0.0,0.0,0.0,0.0,0.0,0.0,0.0,0.0,0.0,0.0,0.0,0.0,0.0,0.0,0.0,0.0,0.0,0.0,0.0,0.0,0.0,0.0,0.0,0.0,0.0,0.0,0.0,0.0,0.0,0.0,0.0,0.0,0.0,0.0,0.0,0.0,0.0,0.0,0.0,0.0,0.0,0.0,0.0,0.0,0.0,0.0,0.0,0.0,0.0,0.0,0.0,0.0,0.0,0.0,0.0,0.0,0.0,0.0,0.0,0.0,0.0,0.0,0.0,0.0,0.0,0.0,0.0,0.0,0.0,0.0,0.0,0.0,0.0,0.0,0.0,0.0,0.0,0.0,0.0,0.0,0.0,0.0,0.0,0.0,0.0,0.0,0.0,0.0,0.0,0.0,0.0,0.0,0.0,0.0,0.0,0.0,0.0,0.0,0.0,0.0,0.0,0.0,0.0,0.0,0.0,0.0,0.0,0.0,0.0,0.0,0.0,0.0,0.0,0.0,0.0,0.0,0.0,0.0,0.0,0.0,0.0,0.0,0.0,0.0,0.0,0.0,0.0,0.0,0.0,0.0,0.0,0.0,0.0,0.0,0.0,0.0,0.0,0.0,0.0,0.0,0.0,0.0,0.0,0.0,0.0,0.0,0.0,0.0,0.0,0.0,0.0,0.0,0.0,0.0,0.0,0.0,0.0,0.0,0.0,0.0,0.0,0.0,0.0,0.0,0.0,0.0,0.0,0.0,0.0,0.0,0.0,0.0,0.0,0.0,0.0,0.0,0.0,0.0,0.0,0.0,0.0,0.0,0.0,0.0,0.0,0.0,0.0,0.0,0.0,0.0,0.0,0.0,0.0,0.0,0.0,0.0,0.0,0.0,0.0,0.0,0.0,0.0,0.0,0.0,0.0,0.0,0.0,0.0,0.0,0.0,0.0,0.0,0.0,0.0,0.0,0.0,0.0,0.0,0.0,0.0,0.0,0.0,0.0,0.0,0.0,0.0,0.0,0.0,0.0,0.0,0.0,0.0,0.0,0.0,0.0,0.0,0.0,0.0,0.0,0.0,0.0,0.0,0.0,0.0,0.0,0.0,0.0,0.0,0.0,0.0,0.0,0.0,0.0,0.0,0.0,0.0,0.0,0.0,0.0,0.0,0.0,0.0,0.0,0.0,0.0,0.0,0.0,0.0,0.0,0.0,0.0,0.0,0.0,0.0,0.0,0.0,0.0,0.0,0.0,0.0,0.0,0.0,0.0,0.0,0.0,0.0,0.0,0.0,0.0,0.0,0.0,0.0,0.0,0.0,0.0,0.0,0.0,0.0,0.0,0.0,0.0,0.0,0.0,0.0,0.0,0.0,0.0,0.0,0.0,0.0,0.0,0.0,0.0,0.0,0.0,0.0,0.0,0.0,0.0,0.0,0.0,0.0,0.0,0.0,0.0,0.0,0.0,0.0,0.0,0.0,0.0,0.0,0.0,0.0,0.0,0.0,0.0,0.0,0.0,0.0,0.0,0.0,0.0,0.0,0.0,0.0,0.0,0.0,0.0,0.0,0.0,0.0,0.0,0.0,0.0,0.0,0.0,0.0,0.0,0.0,0.0,0.0,0.0,0.0,0.0,0.0,0.0,0.0,0.0,0.0,0.0,0.0,0.0,0.0,0.0,0.0,0.0,0.0,0.0,0.0,0.0,0.0,0.0,0.0,0.0,0.0,0.0,0.0,0.0,0.0,0.0,0.0,0.0,0.0,0.0,0.0,0.0,0.0,0.0,0.0,0.0,0.0,0.0,0.0,0.0,0.0,0.0,0.0,0.0,0.0,0.0,0.0,0.0,0.0,0.0,0.0,0.0,0.0,0.0,0.0,0.0,0.0,0.0,0.0,0.0,0.0,0.0,0.0,0.0,0.0,0.0,0.0,0.0,0.0,0.0,0.0,0.0,0.0,0.0,0.0,0.0,0.0,0.0,0.0,0.0,0.0,0.0,0.0,0.0,0.0,0.0,0.0,0.0,0.0,0.0,0.0,0.0,0.0,0.0,0.0,0.0,0.0,0.0,0.0,0.0,0.0,0.0,0.0,0.0,0.0,0.0,0.0,0.0,0.0,0.0,0.0,0.0,0.0,0.0,0.0,0.0,0.0,0.0,0.0,0.0,0.0,0.0,0.0,0.0,0.0,0.0,0.0,0.0,0.0,0.0,0.0,0.0,0.0,0.0,0.0,0.0,0.0,0.0,0.0,0.0,0.0,0.0,0.0,0.0,0.0,0.8917,0.0,0.0,0.0,0.0,0.0,0.0,0.0,0.0,0.0,0.0,0.0,0.0,0.0,0.0,0.0,0.0,0.0,0.0,0.0,0.0,0.0,0.0,0.0,0.0,0.0,0.0,0.0,0.0,0.0,0.0,0.0,0.0,0.0,0.0,0.0,0.0,0.0,0.0,0.0,0.0,0.0,0.0,0.0,0.0,0.0,0.0,0.0,0.0,0.0,0.0,0.0,0.0,0.0,0.0,0.0,0.0,0.0,0.0,0.0,0.0,0.0,0.0,0.0,0.0,0.0,0.0,0.0,0.0,0.0,0.0,0.0,0.0,0.0,0.0,0.0,0.0,0.0,0.0,0.0,0.0,0.0,0.0,0.0,0.0,0.0,0.0,0.0,0.0,0.0,0.0,0.0,0.0,0.0,0.0,0.0,0.0,0.0,0.0,0.0,0.0,0.0,0.0,0.0,0.0,0.0,0.0,0.0,0.0,0.0,0.0,0.8917,0.8917,0.8917,0.8917,0.8917,0.0,0.0,0.0,0.0,0.0,0.0,0.0,0.0,0.0,0.0,0.0,0.0,0.0,0.0,0.0,0.0,0.0,0.0,0.0,0.0,0.0,0.0,0.0,0.0,0.0,0.0,0.0,0.0,0.0,0.0,0.0,0.0,0.0,0.0,0.0,0.0,0.0,0.0,0.0,0.0,0.0,0.0,0.0,0.0,0.0,0.0,0.0,0.0,0.0,0.0,0.0,0.0,0.0,0.0,0.0,0.0,0.0,0.0,0.0,0.0,0.0,0.0,0.0,0.0,0.0,0.0,0.0,0.0,0.0,0.0,0.0,0.0,0.0,0.0,0.0,0.0,0.0,0.0,0.0,0.0,0.0,0.0,0.0,0.0,0.0,0.0,0.0,0.0,0.0,0.0,0.0,0.0,0.0,0.0,0.0,0.0,0.0,0.0,0.0,0.0,0.0,0.0,0.0,0.0,0.0,0.0,0.0,0.0,0.0,0.0,0.0,0.0,0.8782,0.8883,0.8886,0.0,0.0,0.0,0.0,0.0,0.0,0.0,0.0,0.0,0.0,0.0,0.0,0.0,0.0,0.0,0.0,0.0,0.0,0.0,0.0,0.0,0.0,0.0,0.0,0.0,0.0,0.0,0.0,0.0,0.0,0.0,0.0,0.0,0.0,0.0,0.0,0.0,0.0,0.0,0.0,0.0,0.0,0.0,0.0,0.0,0.0,0.0,0.0,0.0,0.0,0.0,0.0,0.0,0.0,0.0,0.0,0.0,0.0,0.0,0.0,0.0,0.0,0.0,0.0,0.0,0.0,0.0,0.0,0.0,0.0,0.0,0.0,0.0,0.0,0.0,0.0,0.0,0.0,0.0,0.0,0.0,0.0,0.0,0.0,0.0,0.0,0.0,0.0,0.0,0.0,0.0,0.0,0.0,0.0,0.0,0.0,0.0,0.0,0.0,0.0,0.0,0.0,0.0,0.0,0.0,0.0,0.0,0.0,0.0,0.0,0.7812,0.7814,0.8477,0.0,0.88,0.0,0.0,0.0,0.0,0.0,0.0,0.0,0.0,0.0,0.0,0.0,0.0,0.0,0.0,0.0,0.0,0.0,0.0,0.0,0.0,0.0,0.0,0.0,0.0,0.0,0.0,0.0,0.0,0.0,0.0,0.0,0.0,0.0,0.0,0.0,0.0,0.0,0.0,0.0,0.0,0.0,0.0,0.0,0.0,0.0,0.0,0.0,0.0,0.0,0.0,0.0,0.0,0.0,0.0,0.0,0.0,0.0,0.0,0.0,0.0,0.0,0.0,0.0,0.0,0.0,0.0,0.0,0.0,0.0,0.0,0.0,0.0,0.0,0.0,0.0,0.0,0.0,0.0,0.0,0.0,0.0,0.0,0.0,0.0,0.0,0.0,0.0,0.0,0.0,0.0,0.0,0.0,0.0,0.0,0.0,0.0,0.0,0.0,0.0,0.0,0.0,0.0,0.0,0.0,0.0,0.0,0.0,0.0,0.0,0.0,0.0,0.7511,0.8317,0.8748,0.0,0.0,0.0,0.0,0.0,0.0,0.0,0.0,0.0,0.0,0.0,0.0,0.0,0.0,0.0,0.0,0.0,0.0,0.0,0.0,0.0,0.0,0.0,0.0,0.0,0.0,0.0,0.0,0.0,0.0,0.0,0.0,0.0,0.0,0.0,0.0,0.0,0.0,0.0,0.0,0.0,0.0,0.0,0.0,0.0,0.0,0.0,0.0,0.0,0.0,0.0,0.0,0.0,0.0,0.0,0.0,0.0,0.0,0.0,0.0,0.0,0.0,0.0,0.0,0.0,0.0,0.0,0.0,0.0,0.0,0.0,0.0,0.0,0.0,0.0,0.0,0.0,0.0,0.0,0.0,0.0,0.0,0.0,0.0,0.0,0.0,0.0,0.0,0.0,0.0,0.0,0.0,0.0,0.0,0.0,0.0,0.0,0.0,0.0,0.0,0.0,0.0,0.0,0.0,0.0,0.0,0.0,0.0,0.0,0.0,0.7072,0.0,0.7659,0.8309,0.8628,0.8643,0.0,0.0,0.0,0.0,0.0,0.0,0.0,0.0,0.0,0.0,0.0,0.0,0.0,0.0,0.0,0.0,0.0,0.0,0.0,0.0,0.0,0.0,0.0,0.0,0.0,0.0,0.0,0.0,0.0,0.0,0.0,0.0,0.0,0.0,0.0,0.0,0.0,0.0,0.0,0.0,0.0,0.0,0.0,0.0,0.0,0.0,0.0,0.0,0.0,0.0,0.0,0.0,0.0,0.0,0.0,0.0,0.0,0.0,0.0,0.0,0.0,0.0,0.0,0.0,0.0,0.0,0.0,0.0,0.0,0.0,0.0,0.0,0.0,0.0,0.0,0.0,0.0,0.0,0.0,0.0,0.0,0.0,0.0,0.0,0.0,0.0,0.0,0.0,0.0,0.0,0.0,0.0,0.0,0.0,0.0,0.0,0.0,0.0,0.0,0.0,0.0,0.0,0.0,0.0,0.0,0.0,0.0,0.0,0.0,0.628,0.6904,0.8204,0.8412,0.847,0.0,0.0,0.0,0.0,0.0,0.0,0.0,0.0,0.0,0.0,0.0,0.0,0.0,0.0,0.0,0.0,0.0,0.0,0.0,0.0,0.0,0.0,0.0,0.0,0.0,0.0,0.0,0.0,0.0,0.0,0.0,0.0,0.0,0.0,0.0,0.0,0.0,0.0,0.0,0.0,0.0,0.0,0.0,0.0,0.0,0.0,0.0,0.0,0.0,0.0,0.0,0.0,0.0,0.0,0.0,0.0,0.0,0.0,0.0,0.0,0.0,0.0,0.0,0.0,0.0,0.0,0.0,0.0,0.0,0.0,0.0,0.0,0.0,0.0,0.0,0.0,0.0,0.0,0.0,0.0,0.0,0.0,0.0,0.0,0.0,0.0,0.0,0.0,0.0,0.0,0.0,0.0,0.0,0.0,0.0,0.0,0.0,0.0,0.0,0.0,0.0,0.0,0.0,0.0,0.0,0.0,0.0,0.0,0.0,0.6666,0.6648,0.7114,0.8041,0.8187,0.8237,0.0,0.0,0.0,0.0,0.0,0.0,0.0,0.0,0.0,0.0,0.0,0.0,0.0,0.0,0.0,0.0,0.0,0.0,0.0,0.0,0.0,0.0,0.0,0.0,0.0,0.0,0.0,0.0,0.0,0.0,0.0,0.0,0.0,0.0,0.0,0.0,0.0,0.0,0.0,0.0,0.0,0.0,0.0,0.0,0.0,0.0,0.0,0.0,0.0,0.0,0.0,0.0,0.0,0.0,0.0,0.0,0.0,0.0,0.0,0.0,0.0,0.0,0.0,0.0,0.0,0.0,0.0,0.0,0.0,0.0,0.0,0.0,0.0,0.0,0.0,0.0,0.0,0.0,0.0,0.0,0.0,0.0,0.0,0.0,0.0,0.0,0.0,0.0,0.0,0.0,0.0,0.0,0.0,0.0,0.0,0.0,0.0,0.0,0.0,0.0,0.0,0.0,0.0,0.0,0.0,0.0,0.0,0.0,0.0,0.6916,0.0,0.7231,0.0,0.803,0.8079,0.0,0.0,0.0,0.0,0.0,0.0,0.0,0.0,0.0,0.0,0.0,0.0,0.0,0.0,0.0,0.0,0.0,0.0,0.0,0.0,0.0,0.0,0.0,0.0,0.0,0.0,0.0,0.0,0.0,0.0,0.0,0.0,0.0,0.0,0.0,0.0,0.0,0.0,0.0,0.0,0.0,0.0,0.0,0.0,0.0,0.0,0.0,0.0,0.0,0.0,0.0,0.0,0.0,0.0,0.0,0.0,0.0,0.0,0.0,0.0,0.0,0.0,0.0,0.0,0.0,0.0,0.0,0.0,0.0,0.0,0.0,0.0,0.0,0.0,0.0,0.0,0.0,0.0,0.0,0.0,0.0,0.0,0.0,0.0,0.0,0.0,0.0,0.0,0.0,0.0,0.0,0.0,0.0,0.0,0.0,0.0,0.0,0.0,0.0,0.0,0.0,0.0,0.0,0.0,0.0,0.0,0.0,0.0,0.6999,0.6939,0.6972,0.7321,0.7901,0.7957,0.8005,0.0,0.0,0.0,0.0,0.0,0.0,0.0,0.0,0.0,0.0,0.0,0.0,0.0,0.0,0.0,0.0,0.0,0.0,0.0,0.0,0.0,0.0,0.0,0.0,0.0,0.0,0.0,0.0,0.0,0.0,0.0,0.0,0.0,0.0,0.0,0.0,0.0,0.0,0.0,0.0,0.0,0.0,0.0,0.0,0.0,0.0,0.0,0.0,0.0,0.0,0.0,0.0,0.0,0.0,0.0,0.0,0.0,0.0,0.0,0.0,0.0,0.0,0.0,0.0,0.0,0.0,0.0,0.0,0.0,0.0,0.0,0.0,0.0,0.0,0.0,0.0,0.0,0.0,0.0,0.0,0.0,0.0,0.0,0.0,0.0,0.0,0.0,0.0,0.0,0.0,0.0,0.0,0.0,0.0,0.0,0.0,0.0,0.0,0.0,0.0,0.0,0.0,0.0,0.0,0.0,0.0,0.0,0.0,0.0,0.8278,0.8278,0.8379,0.8571,0.8165,0.792,0.0,0.0,0.0,0.0,0.0,0.0,0.0,0.0,0.0,0.0,0.0,0.0,0.0,0.0,0.0,0.0,0.0,0.0,0.0,0.0,0.0,0.0,0.0,0.0,0.0,0.0,0.0,0.0,0.0,0.0,0.0,0.0,0.0,0.0,0.0,0.0,0.0,0.0,0.0,0.0,0.0,0.0,0.0,0.0,0.0,0.0,0.0,0.0,0.0,0.0,0.0,0.0,0.0,0.0,0.0,0.0,0.0,0.0,0.0,0.0,0.0,0.0,0.0,0.0,0.0,0.0,0.0,0.0,0.0,0.0,0.0,0.0,0.0,0.0,0.0,0.0,0.0,0.0,0.0,0.0,0.0,0.0,0.0,0.0,0.0,0.0,0.0,0.0,0.0,0.0,0.0,0.0,0.0,0.0,0.0,0.0,0.0,0.0,0.0,0.0,0.0,0.0,0.0,0.0,0.0,0.0,0.0,0.0,0.0,0.9037,0.8861,0.8784,0.8792,0.8199,0.7848,0.7882,0.0,0.0,0.0,0.0,0.0,0.0,0.0,0.0,0.0,0.0,0.0,0.0,0.0,0.0,0.0,0.0,0.0,0.0,0.0,0.0,0.0,0.0,0.0,0.0,0.0,0.0,0.0,0.0,0.0,0.0,0.0,0.0,0.0,0.0,0.0,0.0,0.0,0.0,0.0,0.0,0.0,0.0,0.0,0.0,0.0,0.0,0.0,0.0,0.0,0.0,0.0,0.0,0.0,0.0,0.0,0.0,0.0,0.0,0.0,0.0,0.0,0.0,0.0,0.0,0.0,0.0,0.0,0.0,0.0,0.0,0.0,0.0,0.0,0.0,0.0,0.0,0.0,0.0,0.0,0.0,0.0,0.0,0.0,0.0,0.0,0.0,0.0,0.0,0.0,0.0,0.0,0.0,0.0,0.0,0.0,0.0,0.0,0.0,0.0,0.0,0.0,0.0,0.0,0.0,0.0,0.0,0.0,0.0,0.933,0.888,0.8649,0.8626,0.8131,0.7812,0.0,0.0,0.0,0.0,0.0,0.0,0.0,0.0,0.0,0.0,0.0,0.0,0.0,0.0,0.0,0.0,0.0,0.0,0.0,0.0,0.0,0.0,0.0,0.0,0.0,0.0,0.0,0.0,0.0,0.0,0.0,0.0,0.0,0.0,0.0,0.0,0.0,0.0,0.0,0.0,0.0,0.0,0.0,0.0,0.0,0.0,0.0,0.0,0.0,0.0,0.0,0.0,0.0,0.0,0.0,0.0,0.0,0.0,0.0,0.0,0.0,0.0,0.0,0.0,0.0,0.0,0.0,0.0,0.0,0.0,0.0,0.0,0.0,0.0,0.0,0.0,0.0,0.0,0.0,0.0,0.0,0.0,0.0,0.0,0.0,0.0,0.0,0.0,0.0,0.0,0.0,0.0,0.0,0.0,0.0,0.0,0.0,0.0,0.0,0.0,0.0,0.0,0.0,0.0,0.0,0.0,0.0,0.0,0.0,0.9716,0.9469,0.9252,0.9048,0.8522,0.8071,0.0,0.0,0.0,0.0,0.0,0.0,0.0,0.0,0.0,0.0,0.0,0.0,0.0,0.0,0.0,0.0,0.0,0.0,0.0,0.0,0.0,0.0,0.0,0.0,0.0,0.0,0.0,0.0,0.0,0.0,0.0,0.0,0.0,0.0,0.0,0.0,0.0,0.0,0.0,0.0,0.0,0.0,0.0,0.0,0.0,0.0,0.0,0.0,0.0,0.0,0.0,0.0,0.0,0.0,0.0,0.0,0.0,0.0,0.0,0.0,0.0,0.0,0.0,0.0,0.0,0.0,0.0,0.0,0.0,0.0,0.0,0.0,0.0,0.0,0.0,0.0,0.0,0.0,0.0,0.0,0.0,0.0,0.0,0.0,0.0,0.0,0.0,0.0,0.0,0.0,0.0,0.0,0.0,0.0,0.0,0.0,0.0,0.0,0.0,0.0,0.0,0.0,0.0,0.0,0.0,0.0,0.0,0.0,0.929,0.9774,0.9974,0.9787,0.9233,0.8637,0.8209,0.0,0.0,0.0,0.0,0.0,0.0,0.0,0.0,0.0,0.0,0.0,0.0,0.0,0.0,0.0,0.0,0.0,0.0,0.0,0.0,0.0,0.0,0.0,0.0,0.0,0.0,0.0,0.0,0.0,0.0,0.0,0.0,0.0,0.0,0.0,0.0,0.0,0.0,0.0,0.0,0.0,0.0,0.0,0.0,0.0,0.0,0.0,0.0,0.0,0.0,0.0,0.0,0.0,0.0,0.0,0.0,0.0,0.0,0.0,0.0,0.0,0.0,0.0,0.0,0.0,0.0,0.0,0.0,0.0,0.0,0.0,0.0,0.0,0.0,0.0,0.0,0.0,0.0,0.0,0.0,0.0,0.0,0.0,0.0,0.0,0.0,0.0,0.0,0.0,0.0,0.0,0.0,0.0,0.0,0.0,0.0,0.0,0.0,0.0,0.0,0.0,0.0,0.0,0.0,0.0,0.0,0.0,0.0,0.9271,0.9761,1.0429,1.0347,0.9397,0.8743,0.8383,0.0,0.0,0.0,0.0,0.0,0.0,0.0,0.0,0.0,0.0,0.0,0.0,0.0,0.0,0.0,0.0,0.0,0.0,0.0,0.0,0.0,0.0,0.0,0.0,0.0,0.0,0.0,0.0,0.0,0.0,0.0,0.0,0.0,0.0,0.0,0.0,0.0,0.0,0.0,0.0,0.0,0.0,0.0,0.0,0.0,0.0,0.0,0.0,0.0,0.0,0.0,0.0,0.0,0.0,0.0,0.0,0.0,0.0,0.0,0.0,0.0,0.0,0.0,0.0,0.0,0.0,0.0,0.0,0.0,0.0,0.0,0.0,0.0,0.0,0.0,0.0,0.0,0.0,0.0,0.0,0.0,0.0,0.0,0.0,0.0,0.0,0.0,0.0,0.0,0.0,0.0,0.0,0.0,0.0,0.0,0.0,0.0,0.0,0.0,0.0,0.0,0.0,0.0,0.0,0.0,0.0,0.0,0.0,1.0365,1.0769,1.1198,1.1102,1.0457,1.0017,0.9395,0.0,0.0,0.0,0.0,0.0,0.0,0.0,0.0,0.0,0.0,0.0,0.0,0.0,0.0,0.0,0.0,0.0,0.0,0.0,0.0,0.0,0.0,0.0,0.0,0.0,0.0,0.0,0.0,0.0,0.0,0.0,0.0,0.0,0.0,0.0,0.0,0.0,0.0,0.0,0.0,0.0,0.0,0.0,0.0,0.0,0.0,0.0,0.0,1.0274,0.0,0.0,0.0,0.0,0.0,0.0,0.0,0.0,0.0,0.0,0.0,0.0,0.0,0.0,0.0,0.0,0.0,0.0,0.0,0.0,0.0,0.0,0.0,0.0,0.0,0.0,0.0,0.0,0.0,0.0,0.0,0.0,0.0,0.0,0.0,0.0,0.0,0.0,0.0,0.0,0.0,0.0,0.0,0.0,0.0,0.0,0.0,0.0,0.0,0.0,0.0,0.0,0.0,0.0,0.0,0.0,0.0,0.0,0.0,1.0742,1.1462,1.1812,1.1716,1.1199,1.0973,1.0161,0.0,0.0,0.0,0.0,0.0,0.0,0.0,0.0,0.0,0.0,0.0,0.0,0.0,0.0,0.0,0.0,0.0,0.0,0.0,0.0,0.0,0.0,0.0,0.0,0.0,0.0,0.0,0.0,0.0,0.0,0.0,0.0,0.0,0.0,0.0,0.0,0.0,0.0,0.0,0.0,0.0,0.0,0.0,0.0,0.0,0.0,0.0,0.0,0.0,0.0,0.0,0.0,0.0,0.0,0.0,0.0,0.0,0.0,0.0,0.0,0.0,0.0,0.0,0.0,0.0,0.0,0.0,0.0,0.0,0.0,0.0,0.0,0.0,0.0,0.0,0.0,0.0,0.0,0.0,0.0,0.0,0.0,0.0,0.0,0.0,0.0,0.0,0.0,0.0,0.0,0.0,0.0,0.0,0.0,0.0,0.0,0.0,0.0,0.0,0.0,0.0,0.0,0.0,0.0,0.0,0.0,0.0,1.0247,1.0954,1.1943,1.2348,1.222,1.1608,1.159,1.0655,0.8673,0.0,0.0,0.0,0.0,0.0,0.0,0.0,0.0,0.0,0.0,0.0,0.0,0.0,0.0,0.0,0.0,0.0,0.0,0.0,0.0,0.0,0.0,0.0,0.0,0.0,0.0,0.0,0.0,0.0,0.0,0.0,0.0,0.0,0.0,0.0,0.0,0.0,0.0,0.9558,1.0659,0.0,0.0,0.0,0.0,0.0,0.0,0.0,0.0,1.1807,0.0,0.0,0.0,0.0,0.0,0.0,0.0,0.0,0.0,0.0,0.0,0.0,0.0,0.0,0.0,0.0,0.0,0.0,0.0,0.0,0.0,0.0,0.0,0.0,0.0,0.0,0.0,0.0,0.0,0.0,0.0,0.0,0.0,0.0,0.0,0.0,0.0,0.0,0.0,0.0,0.0,0.0,0.0,0.0,0.0,0.0,0.0,0.0,0.0,0.0,0.0,0.0,0.0,0.0,0.0,0.0,0.9723,1.0978,1.1869,1.2396,1.2839,1.2613,1.1633,1.159,1.0628,0.867,0.0,0.0,0.0,0.0,0.0,0.0,0.0,0.0,0.0,0.0,0.0,0.0,0.0,0.0,0.0,0.0,0.0,0.0,0.0,0.0,0.0,0.0,0.0,0.0,0.0,0.0,0.0,0.0,0.0,0.0,0.0,0.0,0.0,0.0,0.0,0.0,0.0,0.0,0.0,1.2871,1.3574,0.0,0.0,0.0,0.0,0.0,0.0,0.0,0.0,1.2257,0.0,0.0,0.0,0.0,0.0,0.0,0.0,0.0,0.0,0.0,0.0,0.0,0.0,0.0,0.0,0.0,0.0,0.0,0.0,0.0,0.0,0.0,0.0,0.0,0.0,0.0,0.0,0.0,0.0,0.0,0.0,0.0,0.0,0.0,0.0,0.0,0.0,0.0,0.0,0.0,0.0,0.0,0.0,0.0,0.0,0.0,0.0,0.0,0.0,0.0,0.0,0.0,0.0,0.0,0.0,1.004,1.1145,1.2101,1.2839,1.3073,1.2839,1.2019,1.1442,1.0444,0.0,0.0,0.0,0.0,0.0,0.0,0.0,0.0,0.0,0.0,0.0,0.0,0.0,0.0,0.0,0.0,0.0,0.0,0.0,0.0,0.0,0.0,0.0,0.0,0.0,0.0,0.0,0.0,0.0,0.0,0.0,0.0,0.0,0.0,0.0,0.0,0.0,0.0,0.0,0.0,1.4052,1.4793,1.5494,0.0,0.0,0.0,0.0,0.0,0.0,1.3773,1.303,0.0,0.0,0.0,0.0,0.0,0.0,0.0,0.0,0.0,0.0,0.0,0.0,0.0,0.0,0.0,0.0,0.0,0.0,0.0,0.0,0.0,0.0,0.0,0.0,0.0,0.0,0.0,0.0,0.0,0.0,0.0,0.0,0.0,0.0,0.0,0.0,0.0,0.0,0.0,0.0,0.0,0.0,0.0,0.0,0.0,0.0,0.0,0.0,0.0,0.0,0.0,0.0,0.0,0.0,0.0,1.0268,1.1144,1.2128,1.3156,1.3207,1.2956,1.2396,1.1417,1.0432,0.0,0.0,0.0,0.0,0.0,0.0,0.0,0.0,0.0,0.0,0.0,0.0,0.0,0.0,0.0,0.0,0.0,0.0,0.0,0.0,0.0,0.0,0.0,0.0,0.0,0.0,0.0,0.0,0.0,0.0,0.0,0.0,0.0,0.0,0.0,0.0,0.0,0.0,0.0,0.0,0.0,1.5938,1.6209,1.6142,0.0,0.0,0.0,0.0,1.5866,1.5063,0.0,0.0,0.0,0.0,0.0,0.0,0.0,0.0,0.0,0.0,0.0,0.0,0.0,0.0,0.0,0.0,0.0,0.0,0.0,0.0,0.0,0.0,0.0,0.0,0.0,0.0,0.0,0.0,0.0,0.0,0.0,0.0,0.0,0.0,0.0,0.0,0.0,0.0,0.0,0.0,0.0,0.0,0.0,0.0,0.0,0.0,0.0,0.0,0.0,0.0,0.0,0.0,0.0,0.0,0.0,0.0,1.0211,1.113,1.2135,1.3148,1.3207,1.2947,1.2413,1.1793,1.0851,0.0,0.0,0.0,0.0,0.0,0.0,0.0,0.0,0.0,0.0,0.0,0.0,0.0,0.0,0.0,0.0,0.0,0.0,0.0,0.0,0.0,0.0,0.0,0.0,0.0,0.0,0.0,0.0,0.0,0.0,0.0,0.0,0.0,0.0,0.0,0.0,0.0,0.0,0.0,0.0,0.0,1.7061,1.8341,1.7963,1.7788,0.0,0.0,0.0,1.7507,1.7416,0.0,0.0,0.0,0.0,0.0,0.0,0.0,0.0,0.0,0.0,0.0,0.0,0.0,0.0,0.0,0.0,0.0,0.0,0.0,0.0,0.0,0.0,0.0,0.0,0.0,0.0,0.0,0.0,0.0,0.0,0.0,0.0,0.0,0.0,0.0,0.0,0.0,0.0,0.0,0.0,0.0,0.0,0.0,0.0,0.0,0.0,0.0,0.0,0.0,0.0,0.0,0.0,0.0,0.0,0.0,0.9159,1.0129,1.1116,1.2128,1.3148,1.3207,1.2956,1.2413,1.1543,1.0559,0.0,0.0,0.0,0.0,0.0,0.0,0.0,0.0,0.0,0.0,0.0,0.0,0.0,0.0,0.0,0.0,0.0,0.0,0.0,0.0,0.0,0.0,0.0,0.0,0.0,0.0,0.0,0.0,0.0,0.0,0.0,0.0,0.0,0.0,0.0,0.0,0.0,0.0,0.0,0.0,0.0,0.0,1.8815,1.9384,0.0,0.0,0.0,1.9858,2.0285,0.0,0.0,0.0,0.0,0.0,0.0,0.0,0.0,0.0,0.0,0.0,0.0,0.0,0.0,0.0,0.0,0.0,0.0,0.0,0.0,0.0,0.0,0.0,0.0,0.0,0.0,0.0,0.0,0.0,0.0,0.0,0.0,0.0,0.0,0.0,0.0,0.0,0.0,0.0,0.0,0.0,0.0,0.0,0.0,0.0,0.0,0.0,0.0,0.0,0.0,0.0,0.0,0.0,0.0,0.0,0.0,0.0,1.0078,1.1094,1.2128,1.3156,1.3207,1.3006,1.2613,1.166,0.0,0.0,0.0,0.0,0.0,0.0,0.0,0.0,0.0,0.0,0.0,0.0,0.0,0.0,0.0,0.0,0.0,0.0,0.0,0.0,0.0,0.0,0.0,0.0,0.0,0.0,0.0,0.4773,0.0,0.0,0.0,0.0,0.0,0.0,0.0,0.0,0.0,0.0,0.0,0.0,0.0,0.0,1.9316,1.9688,2.0879,2.18,0.0,0.0,2.224,2.2767,2.188,2.0832,0.0,0.0,0.0,0.0,0.0,0.0,0.0,0.0,0.0,0.0,0.0,0.0,0.0,0.0,0.0,0.0,0.0,0.0,0.0,0.0,0.0,0.0,0.0,0.0,0.0,0.0,0.0,0.0,0.0,0.0,0.0,0.0,0.0,0.0,0.0,0.0,0.0,0.0,0.0,0.0,0.0,0.0,0.0,0.0,0.0,0.0,0.0,0.0,0.0,0.0,0.0,0.0,0.0,0.0,0.0,0.9995,1.1051,1.2128,1.3148,1.3207,1.3173,1.3148,1.2588,1.1827,0.0,0.0,0.0,0.0,0.0,0.0,0.0,0.0,0.0,0.0,0.0,0.0,0.0,0.0,0.0,0.0,0.0,0.0,0.0,0.0,0.0,0.0,0.0,0.0,0.0,0.0,0.0,0.0,0.0,0.0,0.0,0.0,0.0,0.0,0.0,0.0,0.0,0.0,0.0,0.0,0.0,2.0447,2.1874,2.2767,2.3519,0.0,0.0,2.4305,2.4338,2.4278,2.3499,2.1393,0.0,0.0,0.0,0.0,0.0,0.0,0.0,0.0,0.0,0.0,0.0,0.0,0.0,0.0,0.0,0.0,0.0,0.0,0.0,0.0,0.0,0.0,0.0,0.0,0.0,0.0,0.0,0.0,0.0,0.0,0.0,0.0,0.0,0.0,0.0,0.0,0.0,0.0,0.0,0.0,0.0,0.0,0.0,0.0,0.0,0.0,0.0,0.0,0.0,0.0,0.0,0.0,0.0,0.8901,0.9937,1.1044,1.2135,1.3148,1.3207,1.3207,1.3207,1.2689,1.1948,0.0,0.0,0.0,0.0,0.0,0.0,0.0,0.0,0.0,0.0,0.0,0.0,0.0,0.0,0.0,0.0,0.0,0.0,0.0,0.0,0.0,0.0,0.0,0.0,0.0,0.0,0.0,0.0,0.6284,0.6559,0.7298,0.0,0.0,0.0,0.0,0.0,0.0,0.0,0.0,0.0,0.0,2.1278,2.2767,2.4398,0.0,0.0,2.6928,2.7148,2.6826,2.7046,2.6023,2.247,1.9615,0.0,0.0,0.0,0.0,0.0,0.0,0.0,0.0,0.0,0.0,0.0,0.0,0.0,0.0,0.0,0.0,0.0,0.0,0.0,0.0,0.0,0.0,0.0,0.0,0.0,0.0,0.0,0.0,0.0,0.0,0.0,0.0,0.0,0.0,0.0,0.0,0.0,0.0,0.0,0.0,0.0,0.0,0.0,0.0,0.0,0.0,0.0,0.0,0.0,0.0,0.0,0.0,0.9076,1.0137,1.1249,1.2295,1.3173,1.3207,1.3207,1.3198,1.2831,1.2159,0.0,0.0,0.0,0.0,0.0,0.0,0.0,0.0,0.0,0.0,0.0,0.0,0.0,0.0,0.0,0.0,0.0,0.0,0.0,0.0,0.0,0.0,0.0,0.0,0.0,0.0,0.0,0.0,0.7167,0.7305,0.8056,0.0,0.0,0.0,0.0,0.0,0.0,0.0,0.0,0.0,0.0,2.2402,2.3853,2.5713,2.7196,2.7902,2.8624,2.8859,2.8079,2.816,2.6987,2.3174,0.0,0.0,0.0,0.0,0.0,0.0,0.0,0.0,0.0,0.0,0.0,0.0,0.0,0.0,0.0,0.0,0.0,0.0,0.0,0.0,0.0,0.0,0.0,0.0,0.0,0.0,0.0,0.0,0.0,0.0,0.5951,0.0,0.0,0.0,0.0,0.0,0.0,0.0,0.0,0.0,0.0,0.0,0.0,0.0,0.0,0.0,0.0,0.0,0.0,0.0,0.0,0.0,0.0,0.0,1.0669,1.1786,1.2638,1.3198,1.3207,1.3207,1.3198,1.3198,1.2688,1.1695,0.0,0.0,0.0,0.0,0.0,0.0,0.0,0.0,0.0,0.0,0.0,0.0,0.0,0.0,0.0,0.0,0.0,0.0,0.0,0.0,0.0,0.0,0.0,0.0,0.0,0.0,0.8843,0.8226,0.8088,0.0,0.0,0.0,0.0,0.0,0.0,0.0,0.0,0.0,0.0,2.1454,2.3887,2.526,2.6612,2.776,2.8401,2.9012,2.8916,2.7659,2.7075,2.5931,0.0,0.0,0.0,0.0,0.0,0.0,0.0,0.0,0.0,0.0,0.0,0.0,0.0,0.0,0.0,0.0,0.0,0.0,0.0,0.0,0.0,0.0,0.0,0.0,0.0,0.0,0.0,0.7391,0.7424,0.0,0.0,0.0,0.0,0.0,0.0,0.0,0.0,0.0,0.0,0.0,1.0473,1.0735,0.0,0.0,0.0,0.0,0.0,0.0,0.0,0.0,0.0,0.0,0.0,0.0,0.9617,1.0694,1.1803,1.2663,1.3173,1.3207,1.3207,1.3207,1.3207,1.2513,1.1069,0.0,0.0,0.0,0.0,0.0,0.0,0.0,0.0,0.0,0.0,0.0,0.0,0.0,0.0,0.0,0.0,0.0,0.0,0.0,0.0,0.0,0.0,0.0,0.0,0.0,0.9782,0.0,0.0,0.0,0.0,0.0,0.0,0.0,0.0,0.0,0.0,0.0,1.7157,1.9338,2.182,2.4059,2.5832,2.7485,2.8738,0.0,0.0,0.0,0.0,0.0,0.0,0.0,0.0,0.0,0.0,0.0,0.0,0.0,0.0,2.1804,1.9138,1.8152,1.7876,1.837,0.0,0.0,0.0,0.0,0.0,0.0,0.0,0.0,0.0,0.0,0.0,0.0,0.0,0.0,0.0,0.0,0.8478,0.0,0.0,0.0,0.0,0.0,0.0,0.0,0.0,1.1206,1.147,1.1514,1.1958,1.2621,0.0,1.4604,1.4274,0.0,0.0,0.0,0.0,0.0,0.0,0.0,0.0,1.0502,1.1563,1.2689,1.3433,1.3776,1.3801,1.3792,1.3801,1.3407,1.2705,1.1595,1.0835,0.9869,0.0,0.0,0.0,0.0,0.0,0.0,0.0,0.0,0.0,0.0,0.0,0.0,0.0,0.0,0.0,0.0,0.0,0.0,0.0,0.0,0.0,0.0,0.0,1.0518,0.0,0.0,0.0,0.0,0.0,0.0,0.0,0.0,0.0,1.8581,1.8624,1.9227,2.1149,2.3316,2.5272,2.6682,0.0,0.0,0.0,0.0,0.0,0.0,0.0,2.7564,2.555,2.682,2.7586,2.6039,2.5853,2.5666,2.503,0.0,0.0,2.1442,2.07,2.0691,2.1004,2.0653,2.0092,1.9549,2.0279,2.1126,0.0,0.0,0.0,0.0,0.0,0.0,0.0,0.0,0.8982,0.9105,0.0,0.9136,0.0,0.0,0.0,0.0,0.0,0.0,0.0,0.0,1.2082,1.2161,1.2049,1.2725,1.3573,1.4568,1.5718,1.6256,1.6103,1.404,0.0,0.0,0.0,0.0,0.0,0.0,1.2145,1.3148,1.4271,1.4859,1.4868,1.4884,1.4859,1.4859,1.3826,1.3257,1.3131,1.1812,1.0851,1.0337,1.0056,0.0,0.0,0.0,0.0,0.0,0.0,0.0,0.0,0.0,0.0,0.0,0.0,0.0,0.0,0.0,0.0,0.0,0.0,0.0,0.0,1.0865,0.0,0.0,0.0,0.0,0.0,0.0,0.0,0.0,0.0,0.0,2.0532,2.1418,2.2485,2.3876,0.0,0.0,0.0,0.0,2.9635,3.0037,2.9897,2.955,2.9026,2.8069,2.7348,2.7296,0.0,0.0,2.8933,2.8504,2.829,2.8174,2.7491,2.5857,2.2604,2.2893,2.3601,2.371,2.361,2.34,2.2942,2.3041,2.3697,1.0165,0.0,0.0,0.0,0.0,0.9602,0.9919,1.0188,1.0492,1.0799,1.1074,1.1074,0.0,0.0,0.0,0.0,0.0,0.0,1.2129,1.2969,1.336,1.3579,1.362,1.4023,1.4524,1.5137,1.6294,1.6627,1.6161,1.5647,1.444,1.2573,0.0,0.0,0.0,0.0,1.2513,1.324,1.4331,1.4884,1.4884,1.4884,1.4884,1.4884,1.4582,1.4045,1.3232,1.2905,1.2129,1.0937,1.0469,0.0,0.0,0.0,0.0,0.0,0.0,0.0,0.0,0.0,0.0,0.0,0.0,0.0,0.0,0.0,0.0,0.0,0.0,0.0,1.1835,1.2476,1.3132,0.0,0.0,0.0,0.0,0.0,0.0,0.0,0.0,0.0,2.3211,2.317,2.3733,0.0,0.0,2.736,2.836,2.894,2.9484,3.0014,0.0,0.0,0.0,2.7223,2.7066,2.8951,3.1013,3.2177,3.149,3.1317,3.096,2.9983,2.9629,2.8676,2.6447,2.5387,2.5405,2.6135,2.5704,2.4855,2.4246,2.45,2.4944,1.1401,1.0732,1.0293,1.0123,1.0151,1.0403,1.0753,1.114,1.146,1.1803,1.2168,1.2185,1.1798,1.1191,1.1474,0.0,0.0,0.0,1.36,1.4277,1.4504,1.4676,1.4765,1.5083,1.5428,1.5808,1.6854,1.7177,1.6805,1.6915,1.6115,1.4438,0.0,0.0,1.2386,1.295,1.3535,1.411,1.5051,1.5527,1.5517,1.5527,1.5527,1.5537,1.511,1.4573,1.3901,1.3352,1.263,1.1781,1.1278,1.0569,0.0,0.0,0.0,0.0,0.0,0.0,0.0,0.0,0.0,0.0,0.0,0.8128,0.0,0.0,0.0,0.0,1.0444,1.1499,1.3004,1.374,0.0,0.0,0.0,0.0,0.0,0.0,0.0,1.9565,2.1995,2.4191,2.5616,2.5797,2.6195,2.7338,2.802,2.8646,2.9309,0.0,3.0042,3.0293,3.0643,3.0442,2.9174,2.8543,2.9109,3.1793,3.2794,3.3229,3.2946,3.2691,3.2228,3.148,3.0851,3.0223,2.9295,2.8068,2.738,2.8214,2.7752,2.6991,2.6321,2.6562,2.6807,1.2386,1.2278,1.1256,1.0774,1.075,1.1024,1.133,1.1711,1.1962,1.229,1.2631,1.2599,1.2393,1.1998,1.2507,0.0,0.0,1.4615,1.5055,1.5478,1.5478,1.5493,1.5513,1.5933,1.6261,1.6518,1.7307,1.7738,1.7727,1.7718,1.7292,1.6411,1.4378,1.3735,1.4506,1.4571,1.4892,1.5531,1.615,1.65,1.655,1.6586,1.6586,1.6561,1.5527,1.4944,1.4843,1.3452,1.265,1.2701,1.2287,1.157,1.0559,0.0,0.0,0.0,0.0,0.0,0.0,0.0,0.0,0.0,0.0,0.0,0.0,0.0,0.0,0.0,1.2163,0.0,1.4252,1.4881,0.0,0.0,0.0,1.6264,1.775,1.9041,1.9939,2.0143,0.0,0.0,0.0,0.0,2.9286,2.9139,3.013,3.074,3.0505,3.0945,3.1207,3.1062,3.1417,3.1493,3.0925,3.1294,3.2482,3.4685,3.4598,3.3893,3.371,3.3155,3.2736,3.2557,3.1539,3.0777,3.1391,3.0388,2.9733,2.9589,2.961,2.9407,2.8595,2.8562,2.8543,1.2716,1.2953,1.2705,1.2318,1.1926,1.2122,1.2266,1.2369,1.2592,1.2747,1.2838,1.2838,1.2768,1.2664,1.2911,1.3502,1.4403,1.5023,1.5628,1.6154,1.6329,1.6395,1.6395,1.6508,1.6479,1.6382,1.6824,1.6807,1.6433,1.6807,1.669,1.6038,1.554,1.5189,1.498,1.5093,1.539,1.5795,1.6264,1.6712,1.7186,1.7186,1.7186,1.7186,1.6116,1.5311,1.4919,1.4132,1.3519,1.3082,1.2585,1.201,1.1347,1.0604,0.0,0.0,0.0,0.0,0.0,0.0,0.0,0.0,0.0,0.9695,1.0319,0.0,1.0975,0.0,1.416,1.557,1.6188,1.6923,0.0,0.0,1.8455,1.8983,2.0352,2.0805,2.1417,2.25,2.4722,2.6941,2.8872,3.0001,3.0552,3.0363,3.1336,3.2055,3.1997,3.254,3.2916,3.2871,3.3305,3.3545,3.2976,3.3785,3.4695,3.54,3.5252,3.5073,3.5027,3.4488,3.3844,3.3365,3.2617,3.1974,3.157,3.1241,3.0778,3.0226,3.0221,3.0002,2.8864,2.8424,2.8096,1.2501,1.2995,1.3097,1.3018,1.2805,1.2864,1.2794,1.2691,1.28,1.2777,1.2621,1.2638,1.2729,1.2913,1.3236,1.385,1.473,1.5586,1.627,1.6758,1.7125,1.7288,1.7288,1.7288,1.7103,1.6802,1.6775,1.6587,1.6297,1.6587,1.6502,1.6009,1.6203,1.6029,1.5487,1.5679,1.5951,1.6255,1.6729,1.7187,1.7565,1.7634,1.7592,1.7387,1.6532,1.5693,1.4909,1.4384,1.3803,1.3232,1.2897,1.2521,1.1977,1.1481,1.0805,0.0,0.0,0.0,0.0,0.0,0.0,0.0,0.0,0.0,0.0,0.0,1.3016,0.0,1.6396,0.0,1.8504,1.9278,1.9995,2.0685,2.0819,2.1271,2.2258,2.2655,2.2796,2.2705,2.5512,2.8466,3.091,3.152,3.1782,3.1925,3.2781,3.3155,3.2662,3.3066,3.3514,3.3514,3.4069,3.4518,3.4398,3.5011,3.5489,3.5489,3.5489,3.5489,3.5489,3.4951,3.4294,3.3604,3.2931,3.2288,3.166,3.1511,3.1218,3.0524,3.0239,3.0042,2.9588,2.8972,2.8407,1.1822,1.2443,1.2741,1.3009,1.3269,1.3209,1.3068,1.2904,1.2904,1.2711,1.2444,1.2412,1.263,1.3005,1.3462,1.4103,1.4914,1.5983,1.6663,1.708,1.7615,1.7872,1.7906,1.7923,1.7726,1.7347,1.6902,1.6687,1.6687,1.6687,1.6508,1.6222,1.6582,1.6506,1.5969,1.6224,1.6461,1.6703,1.7309,1.7775,1.7995,1.8104,1.7975,1.7601,1.6887,1.5984,1.4934,1.4384,1.3862,1.3357,1.3232,1.304,1.263,1.2608,1.226,0.0,1.169,0.0,0.0,0.0,0.0,0.0,0.0,0.0,0.0,1.3985,1.5456,1.7878,1.8685,1.9591,2.0847,2.1545,2.2213,2.2853,2.2932,2.3171,2.3789,2.4377,2.4167,2.2633,2.6093,2.9834,3.2751,3.2871,3.2736,3.329,3.3934,3.4009,3.3125,3.3425,3.3873,3.3754,3.4248,3.4877,3.525,3.5459,3.5489,3.5489,3.5489,3.5489,3.5489,3.4937,3.4308,3.3724,3.3125,3.2452,3.178,3.16,3.1292,3.0676,3.0179,2.9965,3.0167,2.9621,2.9037,1.0378,1.1047,1.1445,1.1982,1.2514,1.2886,1.3198,1.3447,1.3447,1.3287,1.302,1.302,1.3163,1.3388,1.3554,1.397,1.4606,1.5357,1.5895,1.6245,1.6838,1.7202,1.7356,1.7529,1.7437,1.7147,1.6854,1.6687,1.6687,1.6687,1.6648,1.6605,1.7051,1.6912,0.0,0.0,0.0,0.0,1.7491,1.8307,1.9061,1.8969,1.8842,1.867,1.7264,0.0,1.4944,1.4374,1.4056,1.3912,1.3475,0.0,0.0,0.0,0.0,0.0,0.0,0.0,0.0,0.0,0.0,0.0,1.7375,1.716,1.5903,1.6984,1.8416,1.998,2.0728,2.1465,2.2243,2.2872,2.349,2.4156,2.4246,2.4496,2.5124,2.5364,2.5615,2.6465,2.7752,2.97,3.2378,3.2647,3.2751,3.3455,3.4099,3.4384,3.4158,3.4622,3.51,3.5114,3.516,3.534,3.5459,3.5489,3.5489,3.5489,3.5489,3.5489,3.5459,3.4967,3.4518,3.4278,3.3769,3.314,3.2632,3.1989,3.1524,3.1434,3.0551,2.9808,2.9848,2.915,2.8436,0.9575,0.0,1.0666,1.1348,0.0,1.2613,1.3231,1.3834,1.3666,1.346,1.3213,1.3213,1.3259,1.3351,1.3245,1.3469,1.3931,1.4263,1.469,1.5173,1.5601,1.6034,1.6472,1.6872,1.696,1.6817,1.6741,1.6687,1.6687,1.6687,1.6687,1.6691,1.7168,1.7099,1.6499,1.6461,1.6641,1.6982,1.7614,1.8416,1.9301,1.9224,1.9159,1.913,0.0,0.0,0.0,0.0,0.0,0.0,0.0,0.0,0.0,0.0,0.0,1.4354,1.4532,1.4919,1.5598,1.6837,1.7757,1.8313,1.9636,2.008,1.9216,2.0081,2.1216,2.2482,2.2941,2.3389,2.4059,2.4388,2.4855,2.5483,2.5573,2.5842,2.6494,2.6871,2.7393,2.8154,2.9009,3.0388,3.2497,3.2946,3.3275,3.3919,3.4578,3.4997,3.5011,3.528,3.5489,3.5489,3.5489,3.5489,3.5489,3.5489,3.5489,3.5489,3.5489,3.5489,3.5489,3.5139,3.4747,3.431,3.3858,3.3408,3.2753,3.2495,3.2287,3.1496,3.0559,2.9821,2.9704,2.8921,2.8162,0.889,0.9173,0.9903,1.0706,1.1564,1.2272,1.3158,1.4068,0.0,0.0,0.0,1.334,1.336,1.3327,1.3059,1.3091,1.334,1.3346,1.368,1.4232,1.452,1.5041,1.5764,1.6316,1.6608,1.6672,1.6763,1.6879,1.6921,1.6843,1.6859,1.696,1.7324,1.7266,1.6824,1.6406,1.6592,1.7384,1.7652,1.8282,1.9268,1.9277,1.931,1.944,1.9064,1.8213,1.684,1.6712,1.6245,1.5397,1.5236,1.5226,1.5346,1.5285,1.5637,1.6406,1.6515,1.6943,1.785,1.8819,1.9546,1.987,2.1507,2.2452,2.2267,2.2727,2.3517,2.4695,2.4903,2.523,2.5896,2.5967,2.6247,2.6897,2.7024,2.7287,2.7833,2.8427,2.8816,2.9219,2.9924,3.1046,3.2482,3.3185,3.3754,3.4398,3.5027,3.5489,3.5489,3.5489,3.5489,3.5489,3.5489,3.5489,3.5489,3.5489,3.5489,3.5489,3.5489,3.5489,3.5457,3.531,3.4843,3.4081,3.38,3.3322,3.2692,3.3059,3.3013,3.1453,3.0422,2.9779,2.9704,2.8994,2.8309,0.7764,0.7776,0.8661,0.9709,1.081,1.1703,1.2869,1.4082,1.4041,1.4001,1.3982,1.3961,1.3961,1.3948,1.3634,1.3494,1.3498,1.3516,1.3712,0.0,1.4364,1.5006,1.587,1.6314,1.6776,1.7257,1.7305,1.748,1.7754,1.7477,1.748,1.7776,1.7891,1.7695,1.7305,1.6855,1.6864,1.7362,1.738,1.8009,1.9274,1.9413,1.9659,2.0027,1.94,1.8719,1.8005,1.7537,1.7211,1.7046,1.6547,1.6511,1.6996,1.6583,1.6769,1.7798,1.7922,1.8601,2.0104,2.0395,2.1212,2.288,2.4446,2.4687,2.3239,2.388,2.4745,2.5483,2.6048,2.6669,2.7224,2.7312,2.7569,2.8318,2.8615,2.8809,2.8977,2.9244,2.9638,3.0133,3.0372,3.1031,3.2273,3.305,3.3694,3.4398,3.5086,3.5519,3.5549,3.5489,3.5489,3.5489,3.5489,3.5489,3.5441,3.5503,3.5424,3.5489,3.5441,3.5408,3.5392,3.5113,3.4631,3.4078,3.3665,3.3231,3.2657,3.3522,3.3105,3.1522,3.0405,2.9818,2.9779,2.9233,2.8781,0.7722,0.7735,0.8504,0.9497,1.0657,1.2126,1.3111,1.3696,1.3718,1.3879,1.4095,1.4103,1.4103,1.4076,1.3733,1.3581,1.3534,1.3289,1.3281,1.351,1.3553,1.4102,1.5081,1.5695,1.6375,1.7063,1.7529,1.7812,1.7969,1.7812,1.7796,1.8008,1.8008,1.7793,1.7419,1.7187,1.7171,1.738,1.7443,1.7983,1.899,1.9089,1.9437,2.0058,1.9474,1.906,1.8821,1.8386,1.8058,1.7864,1.7576,1.7551,1.7802,1.7841,1.8205,1.8995,1.9359,2.0,2.1069,2.1669,2.2574,2.3821,2.5009,2.5375,2.4617,2.5425,2.6062,2.6371,2.6708,2.6961,2.7243,2.7314,2.7527,2.8097,2.8453,2.8749,2.9087,2.9701,3.0193,3.0492,3.0837,3.1271,3.1869,3.2542,3.3335,3.4173,3.5011,3.5593,3.5952,3.6028,3.5892,3.5609,3.5489,3.5392,3.5228,3.5014,3.4931,3.4914,3.4914,3.4914,3.4852,3.4501,3.4014,3.3537,3.3066,3.2605,3.2092,3.22,3.191,3.1304,3.0324,2.9856,2.9729,2.9553,2.9227,0.7925,0.7862,0.8514,0.9408,1.05,1.2164,1.2882,1.2871,1.2871,1.3155,1.3586,1.3939,1.4153,1.4191,1.3912,1.376,1.366,1.3206,1.3099,1.3267,1.3086,1.3557,1.4545,1.5332,1.6096,1.6893,1.7632,1.8041,1.8076,1.8128,1.8139,1.8147,1.8127,1.7949,1.7556,1.7519,1.7519,1.7536,1.7652,1.7989,1.8593,1.868,1.9068,1.9751,1.9462,1.9348,1.947,1.9211,1.8896,1.8594,1.8681,1.8768,1.8781,1.9271,1.9848,2.0475,2.0966,2.1557,2.2221,2.311,2.3894,2.4463,2.525,2.5775,2.5909,2.65,2.6919,2.7021,2.7076,2.7127,2.7245,2.7109,2.7245,2.7742,2.8245,2.8712,2.9059,2.9939,3.0534,3.0579,3.0995,3.1278,3.147,3.202,3.2955,3.4068,3.4828,3.5482,3.6093,3.6242,3.6017,3.5813,3.5568,3.5453,3.5096,3.4537,3.4258,3.4306,3.4415,3.4455,3.4339,3.3921,3.3431,3.3083,3.2562,3.2097,3.1604,3.1223,3.1028,3.0836,3.0626,3.0376,3.0281,3.0231,2.9729,0.7925,0.7869,0.8328,0.9132,1.012,1.0971,1.1362,1.1339,1.1319,1.1583,1.2212,1.3523,1.4321,1.4518,1.4418,1.4261,1.4028,1.3687,1.3533,1.356,1.3554,1.4056,1.5,1.5659,1.6354,1.7026,1.7633,1.7954,1.8155,1.8467,1.8587,1.8562,1.8539,1.8325,1.7988,1.7932,1.7949,1.7949,1.7966,1.8003,1.8093,1.8375,1.8803,1.9357,1.9421,1.9667,2.0055,1.9916,1.976,1.9709,2.0137,2.044,2.049,2.098,2.1719,2.2644,2.2819,2.3346,2.4365,2.5059,2.5351,2.5519,2.5996,2.6375,2.6392,2.6502,2.6692,2.7034,2.7304,2.7541,2.7856,2.7413,2.7434,2.8118,2.8707,2.9345,2.9584,3.0212,3.0585,3.06,3.0598,3.0776,3.1027,3.1797,3.2893,3.3894,3.4242,3.4678,3.5299,3.5444,3.5677,3.5904,3.5807,3.5617,3.549,3.4343,3.3829,3.4148,3.4288,3.4242,3.4103,3.3851,3.3495,3.2856,3.2489,3.2038,3.1556,3.115,3.1039,3.12,3.1337,3.1582,3.1356,3.1155,3.0532,0.7979,0.795,0.8287,0.8959,0.9798,1.0422,1.0685,1.0685,1.0685,1.1044,1.1793,1.3014,1.3762,1.4115,1.4379,1.4434,1.4335,1.402,1.3887,1.3908,1.3908,1.4233,1.4866,1.526,1.5757,1.6261,1.6656,1.7018,1.743,1.8082,1.852,1.8584,1.8598,1.8401,1.8047,1.8008,1.8008,1.8008,1.8008,1.8008,1.8042,1.8245,1.858,1.8936,1.9078,1.9412,1.9991,1.9986,2.0105,2.0475,2.0824,2.1059,2.1181,2.1669,2.2307,2.307,2.3747,2.4315,2.4766,2.5293,2.5603,2.5603,2.6172,2.6499,2.6499,2.6499,2.6705,2.7156,2.743,2.7583,2.7576,2.7353,2.7334,2.7649,2.8048,2.8503,2.8855,2.9345,2.9656,2.9685,2.9935,3.0286,3.0716,3.1422,3.2107,3.274,3.3064,3.3691,3.4558,3.4766,3.5188,3.593,3.6115,3.5923,3.5552,3.4393,3.3685,3.3547,3.3622,3.3661,3.3611,3.3306,3.2915,3.2567,3.2292,3.1955,3.1498,3.1331,3.126,3.1486,3.1461,3.1582,3.1411,3.1406,3.0869,0.7988,0.8038,0.8212,0.8627,0.9196,0.9567,0.9747,0.9747,0.9739,1.024,1.1149,1.2252,1.3139,1.377,1.4436,1.4741,1.4701,1.4477,1.4344,1.4344,1.4242,1.4414,1.4754,1.4998,1.5271,1.5609,1.5925,1.6364,1.7019,1.7919,1.8527,1.8754,1.8744,1.8525,1.8169,1.8086,1.8008,1.8008,1.8008,1.8049,1.8164,1.8321,1.8509,1.8744,1.8961,1.9349,1.989,2.0135,2.0536,2.1156,2.1511,2.1871,2.2167,2.2684,2.3236,2.3788,2.4732,2.5285,2.5268,2.5778,2.608,2.613,2.6608,2.6934,2.6901,2.6675,2.6901,2.7688,2.8015,2.8076,2.7361,2.7311,2.7268,2.7199,2.7564,2.8003,2.8522,2.8833,2.899,2.9001,2.9362,2.9843,3.0487,3.1044,3.1449,3.1701,3.2062,3.2737,3.3776,3.4123,3.4506,3.5663,3.5882,3.5727,3.5255,3.4208,3.3468,3.3224,3.321,3.3227,3.3183,3.2901,3.2739,3.2762,3.229,3.212,3.2152,3.1984,3.1813,3.1838,3.1863,3.1884,3.2035,3.1909,3.1459,0.7988,0.7988,0.8013,0.8063,0.8088,0.8162,0.8162,0.8287,0.8187,0.8758,0.9895,1.1326,1.2546,1.3551,1.4712,1.5328,1.5297,1.5039,1.4892,1.4888,1.4603,1.4626,1.4908,1.5029,1.5171,1.5356,1.5709,1.6465,1.751,1.8269,1.886,1.9203,1.9029,1.8827,1.8523,1.8188,1.801,1.7991,1.8008,1.8166,1.8518,1.8576,1.8613,1.8742,1.934,1.9722,1.9891,2.0489,2.1075,2.1666,2.2455,2.3186,2.381,2.4324,2.4809,2.5369,2.603,2.6373,2.6399,2.6834,2.7135,2.7236,2.7587,2.7996,2.7821,2.7135,2.7286,2.8637,2.9202,2.8969,2.7688,2.7512,2.7483,2.7576,2.7858,2.8343,2.9004,2.8862,2.8905,2.8895,2.8941,2.9482,3.0432,3.0779,3.1063,3.1315,3.1534,3.1969,3.2935,3.332,3.386,3.4558,3.4786,3.465,3.4907,3.414,3.3331,3.3119,3.3119,3.3098,3.3118,3.3104,3.305,3.3021,3.2873,3.2852,3.2986,3.2964,3.2864,3.2813,3.2763,3.2788,3.2503,3.2867,3.2208,0.7988,0.7988,0.7988,0.7988,0.7988,0.7988,0.7988,0.7988,0.7988,0.851,0.9476,1.0837,1.2023,1.3065,1.4552,1.5297,1.5378,1.512,1.5008,1.4946,1.4656,1.4544,1.4626,1.4527,1.4503,1.4573,1.4762,1.5373,1.6412,1.7229,1.7968,1.8627,1.8901,1.8878,1.8606,1.8461,1.8264,1.8047,1.8008,1.8186,1.8617,1.8906,1.9162,1.9434,1.9574,1.9779,1.9988,2.0582,2.1257,2.2038,2.2638,2.3194,2.379,2.4575,2.5095,2.5436,2.6087,2.6499,2.6549,2.7027,2.7311,2.7336,2.7795,2.8147,2.8072,2.777,2.7946,2.8781,2.9453,2.9252,2.8649,2.8304,2.819,2.7961,2.8037,2.8214,2.8395,2.8418,2.8379,2.8431,2.8592,2.9277,3.0143,3.0375,3.0407,3.083,3.0945,3.1292,3.1889,3.2356,3.2926,3.3511,3.3662,3.362,3.3789,3.3658,3.3258,3.3176,3.3129,3.31,3.3111,3.3111,3.3079,3.3079,3.3111,3.309,3.3065,3.3065,3.3115,3.3115,3.3115,3.3025,3.2874,3.2723,3.1746,0.7988,0.7988,0.7988,0.7988,0.7988,0.7988,0.7988,0.7988,0.7988,0.8411,0.9204,1.0321,1.1365,1.2484,1.4004,1.4897,1.5175,1.5222,1.5267,1.524,1.4937,1.4781,1.475,1.4531,1.4397,1.4419,1.4462,1.4921,1.566,1.6459,1.7273,1.809,1.8491,1.8732,1.8795,1.8765,1.8603,1.8422,1.8418,1.8633,1.8987,1.9336,1.9687,2.0038,1.9994,2.0023,2.0261,2.0738,2.1373,2.2116,2.2575,2.3081,2.3823,2.4613,2.5247,2.5667,2.6359,2.6834,2.7035,2.7512,2.7821,2.7846,2.8323,2.8649,2.8649,2.8649,2.8831,2.9183,2.9528,2.9603,2.9327,2.9183,2.8976,2.8499,2.8355,2.8448,2.8624,2.8517,2.8417,2.8453,2.8604,2.9246,3.0036,2.9974,3.0019,3.0287,3.0357,3.0608,3.1286,3.1687,3.2265,3.2939,3.3176,3.3176,3.3326,3.3304,3.324,3.3133,3.3115,3.3115,3.3115,3.3115,3.3115,3.3115,3.3115,3.3115,3.3115,3.3115,3.309,3.309,3.3068,3.3004,3.268,3.222,3.1122,0.8002,0.8015,0.7995,0.8022,0.806,0.806,0.8008,0.8047,0.8047,0.836,0.8942,0.9714,1.067,1.1751,1.3206,1.4172,1.4686,1.5326,1.5667,1.5688,1.5458,1.5324,1.532,1.5026,1.4914,1.4928,1.5147,1.5306,1.5476,1.6096,1.6813,1.7536,1.7872,1.8378,1.9241,1.9011,1.9058,1.9143,1.9141,1.9434,1.9844,1.9902,2.0156,2.0586,2.0625,2.0625,2.0663,2.0972,2.1407,2.1954,2.2406,2.3139,2.3885,2.4612,2.5373,2.6135,2.6887,2.7473,2.7942,2.8424,2.8656,2.8769,2.9358,2.9603,2.9553,2.9603,2.9654,2.9679,2.9754,2.9754,2.9729,2.9704,2.9503,2.9032,2.8907,2.9132,2.9428,2.9252,2.8907,2.8907,2.8982,2.9183,2.9628,2.9804,2.9854,2.998,3.003,3.0331,3.121,3.1562,3.1964,3.2763,3.3115,3.3115,3.3115,3.3136,3.3111,3.3115,3.3115,3.3115,3.3115,3.3115,3.3115,3.3115,3.3115,3.3115,3.3115,3.309,3.2982,3.2961,3.2961,3.268,3.2111,3.1422,3.0453,0.8343,0.8343,0.8343,0.8343,0.8343,0.8343,0.8343,0.8343,0.8343,0.8531,0.8943,0.9502,1.0222,1.1082,1.2381,1.3304,1.3932,1.4855,1.5475,1.5684,1.5515,1.5427,1.5374,1.5133,1.5008,1.5008,1.5053,1.4994,1.4968,1.5375,1.5871,1.634,1.7009,1.7748,1.8608,1.8863,1.9107,1.928,1.9277,1.9647,2.0293,2.039,2.0723,2.1407,2.1485,2.1485,2.1466,2.1194,2.1225,2.1645,2.1928,2.2475,2.3324,2.4218,2.4992,2.5567,2.646,2.7084,2.7496,2.8094,2.8553,2.878,2.9357,2.9754,2.9779,2.9779,2.9779,2.9779,2.9779,2.9779,2.9779,2.9779,2.9679,2.9553,2.9528,2.9553,2.9729,2.9628,2.9528,2.9528,2.9528,2.9628,2.9729,2.9779,2.993,3.0231,3.0281,3.0608,3.1235,3.1662,3.221,3.2939,3.304,3.3115,3.3115,3.3115,3.3115,3.3115,3.3115,3.3115,3.3115,3.3115,3.3115,3.3115,3.3115,3.3115,3.3115,3.3004,3.2853,3.2416,3.2064,3.1669,3.1227,3.0416,2.9444,0.8505,0.8505,0.8505,0.8505,0.8505,0.8505,0.8505,0.8505,0.8505,0.8591,0.88,0.9089,0.955,1.0263,1.1242,1.2138,1.294,1.4099,1.4927,1.5354,1.5564,1.5541,1.5515,1.5391,1.5307,1.5284,1.5307,1.5137,1.4856,1.5207,1.5516,1.5889,1.6613,1.7417,1.8214,1.8694,1.9041,1.9279,1.9391,1.9793,2.043,2.0663,2.1092,2.1777,2.1915,2.1915,2.1857,2.1489,2.1392,2.1609,2.1767,2.2158,2.2821,2.3655,2.4373,2.5083,2.5831,2.6554,2.7137,2.7864,2.8358,2.8702,2.9366,2.9779,2.9779,2.9779,2.9779,2.9779,2.9779,2.9779,2.9779,2.9779,2.9779,2.9779,2.9754,2.9779,2.9779,2.9779,2.9779,2.9754,2.9754,2.9779,2.9779,2.9804,2.993,3.0256,3.0306,3.0633,3.1185,3.1662,3.2261,3.2788,3.3065,3.3115,3.3115,3.3115,3.3115,3.3115,3.3115,3.3115,3.3115,3.3115,3.3115,3.3115,3.3115,3.3115,3.3115,3.2835,3.2593,3.1957,3.0733,3.0238,2.9601,2.928,2.8454,0.8539,0.8532,0.8539,0.856,0.856,0.8533,0.854,0.8553,0.8553,0.8566,0.8586,0.8659,0.8888,0.9388,1.0142,1.095,1.1873,1.324,1.4195,1.4823,1.5386,1.5766,1.5755,1.5715,1.5701,1.5715,1.5741,1.5631,1.5311,1.5481,1.5723,1.583,1.644,1.7218,1.7783,1.8421,1.8734,1.8962,1.9277,1.9736,2.0487,2.0787,2.128,2.1971,2.2072,2.2091,2.2072,2.2034,2.1935,2.1896,2.1901,2.2066,2.2493,2.3001,2.3835,2.4684,2.5258,2.6071,2.6897,2.7529,2.8116,2.856,2.916,2.9746,2.9605,2.9546,2.9546,2.9566,2.9585,2.9668,2.9718,2.9807,2.9852,2.9905,2.988,2.9829,2.9829,2.988,2.9905,2.9854,2.9804,2.9829,2.988,2.988,3.0005,2.998,3.008,3.0633,3.1105,3.1633,3.1984,3.2411,3.2839,3.3014,3.2989,3.3115,3.3115,3.3115,3.3115,3.3093,3.3029,3.2982,3.2874,3.2896,3.2788,3.2874,3.2831,3.2463,3.0958,2.9119,2.84,2.8213,2.8166,2.8026,2.772,0.8791,0.8791,0.8791,0.8791,0.8791,0.8791,0.8784,0.8791,0.8784,0.877,0.8784,0.8791,0.8906,0.9183,0.9735,1.041,1.1291,1.2506,1.3607,1.4421,1.5407,1.5792,1.5803,1.5808,1.5808,1.5808,1.5795,1.5661,1.5441,1.5487,1.5454,1.5254,1.5818,1.6235,1.6639,1.7186,1.749,1.7826,1.8236,1.9092,2.0186,2.0689,2.1547,2.267,2.273,2.2752,2.2771,2.2791,2.2459,2.1954,2.1915,2.1999,2.2367,2.3021,2.3619,2.4075,2.4827,2.5542,2.6151,2.6771,2.7322,2.7834,2.8419,2.8816,2.8835,2.8816,2.886,2.886,2.886,2.9045,2.9498,2.9825,3.0198,3.0748,3.0331,3.003,3.0306,3.0382,3.0256,2.9955,3.0502,3.0482,3.0231,3.0407,3.0708,3.0507,3.0658,3.1004,3.1381,3.1532,3.1909,3.2114,3.2466,3.2738,3.2914,3.304,3.3115,3.3115,3.3093,3.3101,3.2924,3.2723,3.2528,3.2329,3.1913,3.1823,3.1913,3.1759,2.9349,2.7098,2.7074,2.7363,2.741,2.7315,2.6982,0.8912,0.8912,0.8912,0.8912,0.8912,0.8912,0.8912,0.8912,0.8912,0.8912,0.8912,0.8912,0.8941,0.9049,0.9296,0.9724,1.0415,1.1365,1.235,1.3499,1.4938,1.5742,1.5917,1.5912,1.5808,1.5808,1.5808,1.5738,1.5605,1.5578,1.5484,1.547,1.5668,1.5987,1.6308,1.6601,1.6891,1.7186,1.7604,1.8494,1.975,2.0397,2.1413,2.2528,2.2904,2.3013,2.3079,2.3081,2.2869,2.2498,2.2422,2.2445,2.2612,2.3043,2.3396,2.3523,2.4064,2.453,2.5041,2.561,2.6173,2.667,2.7264,2.7612,2.7652,2.7672,2.7672,2.7652,2.7629,2.8072,2.8821,2.9604,3.047,3.1109,3.0834,3.0588,3.0914,3.0959,3.0809,3.0708,3.0954,3.1231,3.0527,3.108,3.1035,3.0859,3.1009,3.1361,3.1712,3.1738,3.1838,3.219,3.2466,3.2788,3.2964,3.3065,3.2904,3.2904,3.2776,3.284,3.2506,3.2235,3.1827,3.1451,3.1071,3.0846,3.1003,3.0576,2.8634,2.7125,2.6812,2.6564,2.6633,2.6895,2.6492,0.883,0.885,0.8878,0.8912,0.8912,0.8912,0.8912,0.8912,0.8912,0.8912,0.8912,0.8912,0.8899,0.8878,0.8913,0.9054,0.9578,1.0306,1.1342,1.2765,1.4381,1.557,1.616,1.6024,1.5875,1.5821,1.5808,1.5795,1.5755,1.5768,1.5795,1.5762,1.5991,1.6136,1.6162,1.6452,1.6652,1.6639,1.697,1.7773,1.8858,1.9685,2.0769,2.2064,2.2772,2.2947,2.3079,2.3101,2.3042,2.3081,2.3101,2.3045,2.3064,2.3103,2.3125,2.3129,2.328,2.3474,2.382,2.451,2.4978,2.5505,2.6069,2.6404,2.6512,2.6578,2.6645,2.6735,2.6517,2.721,2.8276,2.9477,3.057,3.1281,3.1406,3.1459,3.15,3.1491,3.1486,3.1562,3.1607,3.1562,3.1457,3.1457,3.1386,3.111,3.1361,3.1888,3.2039,3.1989,3.2215,3.2541,3.2763,3.2939,3.304,3.309,3.281,3.2613,3.2389,3.2225,3.1774,3.1404,3.0966,3.0534,3.0011,3.0034,3.0396,2.9349,2.7718,2.7012,2.6605,2.6256,2.6031,2.6448,2.6404,0.8353,0.8595,0.8823,0.8912,0.8912,0.8912,0.8912,0.8912,0.8912,0.8912,0.8912,0.8912,0.8912,0.8912,0.8865,0.9051,0.9421,1.0043,1.1324,1.3363,1.4249,1.5365,1.6075,1.6162,1.6048,1.5901,1.5821,1.5821,1.5835,1.5848,1.5808,1.5845,1.5879,1.5816,1.5712,1.581,1.5586,1.5542,1.5879,1.6706,1.7716,1.8661,1.9876,2.1462,2.247,2.3013,2.3079,2.3101,2.3101,2.3101,2.3101,2.3101,2.3101,2.3101,2.3101,2.3101,2.3101,2.3232,2.358,2.4015,2.4424,2.4701,2.5105,2.5614,2.5916,2.5894,2.6109,2.6366,2.6538,2.702,2.8406,2.9793,3.0594,3.1161,3.1552,3.1795,3.2059,3.2059,3.2198,3.2537,3.2616,3.239,3.1566,3.2223,3.2047,3.1541,3.1772,3.2369,3.2406,3.2293,3.2379,3.262,3.2642,3.2702,3.2773,3.2629,3.2064,3.1826,3.1627,3.1576,3.1123,3.0622,3.0205,2.9584,2.8896,2.9018,2.9072,2.8558,2.7017,2.6674,2.6523,2.6484,2.6459,2.6557,2.6537,0.7648,0.8125,0.8657,0.8912,0.8912,0.8912,0.8912,0.8912,0.8912,0.8912,0.8912,0.8912,0.8912,0.8912,0.8912,0.9016,0.9272,0.9761,1.0872,1.2389,1.3357,1.4481,1.558,1.6024,1.6105,1.6175,1.6222,1.6222,1.6195,1.6099,1.6059,1.6019,1.5912,1.5778,1.5618,1.5591,1.5584,1.5547,1.5709,1.6283,1.711,1.7934,1.9276,2.0971,2.2161,2.2796,2.2947,2.3057,2.3101,2.3101,2.3101,2.3101,2.3101,2.3101,2.3101,2.3101,2.3101,2.3144,2.3365,2.3517,2.3712,2.3884,2.4101,2.4409,2.4718,2.4883,2.5086,2.5392,2.5626,2.6179,2.787,2.8922,2.9761,3.0229,3.0626,3.0904,3.1237,3.1889,3.2585,3.2929,3.2907,3.224,3.2003,3.2247,3.2198,3.1467,3.184,3.2399,3.2736,3.2619,3.2369,3.2421,3.2367,3.2389,3.246,3.2051,3.1152,3.0858,3.0586,3.0633,3.0464,2.994,2.9458,2.8773,2.8055,2.7174,2.7051,2.6561,2.6782,2.6848,2.6855,2.6953,2.6973,2.6889,2.685,0.6811,0.7482,0.8408,0.8774,0.885,0.8878,0.8912,0.8912,0.8912,0.8912,0.8912,0.8912,0.8912,0.8912,0.8912,0.8912,0.9078,0.9458,1.0378,1.1183,1.2354,1.3672,1.4838,1.5629,1.6292,1.6746,1.6687,1.6647,1.658,1.6498,1.6324,1.6257,1.6032,1.5848,1.5808,1.5795,1.5755,1.5762,1.5927,1.6199,1.6744,1.7483,1.8757,2.0376,2.1628,2.2334,2.264,2.2884,2.3101,2.3101,2.3101,2.3101,2.3101,2.3101,2.3101,2.3101,2.3101,2.3181,2.3323,2.3323,2.3345,2.3279,2.3381,2.3619,2.4019,2.4326,2.4565,2.4736,2.5069,2.5568,2.6783,2.7744,2.8345,2.8743,2.9105,2.9429,3.0007,3.138,3.2228,3.2954,3.2614,3.1868,3.1515,3.1476,3.1468,3.1529,3.1936,3.227,3.2531,3.2508,3.2036,3.1754,3.1615,3.2391,3.2575,3.1507,3.0606,2.9922,2.9641,2.9672,2.9662,2.9157,2.8572,2.7982,2.7245,2.6531,2.6064,2.6033,2.6335,2.6816,2.7305,2.75,2.7441,2.7246,2.7246,0.5731,0.6594,0.7681,0.8291,0.8574,0.8795,0.8912,0.8912,0.8912,0.8912,0.8912,0.8912,0.8912,0.8912,0.8912,0.8912,0.9023,0.932,0.9761,1.0468,1.1582,1.2965,1.4463,1.5408,1.6347,1.7055,1.7034,1.6794,1.6767,1.6647,1.6565,1.6351,1.6257,1.6112,1.5915,1.5808,1.5888,1.5915,1.5946,1.6062,1.6275,1.6824,1.7816,1.9513,2.0782,2.1628,2.2224,2.2731,2.3101,2.3101,2.3101,2.312,2.3157,2.3157,2.3159,2.3101,2.3101,2.3218,2.3535,2.3652,2.3867,2.4079,2.4098,2.4332,2.4691,2.4848,2.4922,2.5302,2.5602,2.6088,2.6788,2.7197,2.7579,2.8036,2.8479,2.8988,2.9647,3.0414,3.1473,3.2337,3.1975,3.1544,3.1197,3.0899,3.0859,3.0879,3.1011,3.1283,3.151,3.1349,3.096,3.0776,3.0661,3.1786,3.2813,3.1295,3.0023,2.9155,2.8801,2.8827,2.8681,2.8239,2.7733,2.7657,2.7255,2.6674,2.6236,2.5932,2.6342,2.7129,2.7617,2.8086,2.791,2.7734,2.7871,0.4136,0.523,0.6705,0.7593,0.8097,0.8657,0.8912,0.8912,0.8912,0.8912,0.8912,0.8912,0.8912,0.8912,0.8912,0.8912,0.8968,0.9051,0.9292,0.9789,1.0798,1.2264,1.3922,1.4927,1.6272,1.7134,1.7288,1.7141,1.7141,1.7033,1.6886,1.6765,1.6618,1.642,1.6288,1.6288,1.6248,1.6246,1.6126,1.6046,1.6067,1.653,1.7489,1.8588,1.9832,2.0759,2.1374,2.2244,2.2722,2.2913,2.3178,2.3387,2.3522,2.3618,2.3549,2.3218,2.314,2.3337,2.3711,2.3831,2.3965,2.4336,2.4434,2.4629,2.4945,2.5102,2.5293,2.563,2.5771,2.5989,2.6235,2.6605,2.677,2.689,2.7451,2.8116,2.8556,2.9047,3.0194,3.1446,3.1378,3.1061,3.0744,3.0507,3.0343,3.0268,3.0215,3.0339,3.0535,3.0333,3.0045,2.9984,2.994,3.0493,3.1448,3.0525,2.9552,2.8773,2.8301,2.8301,2.8262,2.8054,2.8067,2.8094,2.7532,2.6947,2.6752,2.6557,2.7012,2.7402,2.7851,2.8203,2.8262,2.8281,2.8301,0.2684,0.3891,0.5616,0.6727,0.7426,0.8325,0.874,0.8823,0.8878,0.8912,0.8912,0.8912,0.8912,0.8912,0.8912,0.8912,0.8912,0.8912,0.8968,0.921,1.0174,1.1546,1.3031,1.4352,1.5687,1.712,1.741,1.7556,1.7475,1.7354,1.7273,1.7112,1.6886,1.674,1.6673,1.6582,1.67,1.662,1.6444,1.6297,1.6319,1.6572,1.7068,1.7807,1.8865,1.9677,2.0269,2.1163,2.1882,2.235,2.2899,2.3453,2.3839,2.4206,2.4059,2.3491,2.3376,2.361,2.3945,2.4124,2.4375,2.4785,2.4703,2.4902,2.5078,2.5336,2.541,2.5718,2.5737,2.582,2.6035,2.6197,2.6221,2.6266,2.6754,2.7333,2.779,2.833,2.9035,2.9946,3.0455,3.0494,3.0151,2.9821,2.959,2.9404,2.9332,2.942,2.959,2.9554,2.9362,2.9289,2.9273,2.934,2.9629,2.9482,2.8852,2.8555,2.8301,2.8301,2.8301,2.8242,2.8295,2.8303,2.7982,2.7461,2.7305,2.7266,2.7578,2.7891,2.8164,2.8301,2.8301,2.8274,2.8247,0.1961,0.2996,0.4474,0.5616,0.6538,0.7598,0.8297,0.854,0.8768,0.8912,0.8912,0.8912,0.8912,0.8912,0.8912,0.8912,0.8912,0.8912,0.8912,0.9071,0.9926,1.1091,1.2499,1.3727,1.5152,1.6564,1.708,1.7384,1.7516,1.7555,1.7421,1.7259,1.7179,1.702,1.6847,1.6847,1.67,1.6673,1.6446,1.6179,1.5965,1.6004,1.637,1.6947,1.768,1.8465,1.9217,2.0046,2.0658,2.1445,2.2162,2.2782,2.3303,2.4002,2.4302,2.4274,2.4293,2.443,2.4769,2.4789,2.4961,2.5269,2.5425,2.5562,2.5562,2.5664,2.582,2.6255,2.601,2.5971,2.625,2.6387,2.6367,2.6599,2.701,2.7572,2.7923,2.8048,2.871,2.8979,2.9657,2.97,2.9497,2.9161,2.8833,2.8647,2.8522,2.8648,2.8754,2.8819,2.8832,2.8822,2.8712,2.8779,2.888,2.8588,2.8461,2.8301,2.8379,2.8359,2.832,2.834,2.8379,2.8281,2.8066,2.8066,2.8047,2.8086,2.8184,2.8223,2.8281,2.8301,2.8301,2.8274,2.822,0.0981,0.1766,0.2908,0.3996,0.5146,0.6594,0.7565,0.8069,0.8629,0.8912,0.8912,0.8912,0.8912,0.8912,0.8912,0.8912,0.8912,0.8912,0.8912,0.9016,0.9706,1.0598,1.171,1.2933,1.4336,1.5675,1.6485,1.708,1.7371,1.7582,1.7528,1.7448,1.7408,1.7381,1.7167,1.7194,1.7234,1.7113,1.678,1.6393,1.6152,1.6096,1.6254,1.6677,1.7356,1.795,1.8519,1.9293,1.9964,2.0778,2.163,2.2446,2.3074,2.3723,2.4229,2.4205,2.4229,2.4498,2.4964,2.5054,2.5308,2.5581,2.5693,2.5679,2.5732,2.5971,2.6152,2.6372,2.6445,2.6562,2.6758,2.6998,2.7096,2.7258,2.7473,2.7779,2.8111,2.8217,2.8471,2.8672,2.8868,2.903,2.9172,2.903,2.8767,2.8503,2.8375,2.8448,2.8475,2.8482,2.8462,2.8409,2.8298,2.8199,2.837,2.8354,2.8447,2.8398,2.8652,2.8594,2.8418,2.8398,2.8555,2.8652,2.8594,2.8633,2.873,2.8516,2.8301,2.8281,2.8301,2.8372,2.8442,2.8225,2.7983,0.0252,0.0757,0.1623,0.2656,0.3946,0.5699,0.6871,0.7593,0.8491,0.8912,0.8912,0.8912,0.8912,0.8912,0.8912,0.8912,0.8912,0.8912,0.8912,0.9099,0.9458,1.0139,1.1036,1.2128,1.342,1.4969,1.5648,1.6405,1.7107,1.7424,1.7503,1.7582,1.7568,1.7582,1.7595,1.7541,1.7501,1.7341,1.7033,1.6698,1.6433,1.638,1.6516,1.6791,1.7199,1.7665,1.8014,1.8458,1.9094,1.9862,2.0746,2.1501,2.2139,2.2805,2.3253,2.3277,2.3302,2.3576,2.4205,2.4645,2.5165,2.5504,2.5849,2.5991,2.6147,2.6387,2.666,2.6803,2.6797,2.6992,2.7207,2.7487,2.7526,2.7682,2.7982,2.8144,2.8308,2.8304,2.8482,2.882,2.8966,2.8917,2.9016,2.8996,2.879,2.8393,2.8301,2.832,2.834,2.8379,2.8359,2.8379,2.8242,2.8144,2.8242,2.832,2.8359,2.8574,2.8828,2.8926,2.8828,2.8894,2.9043,2.9082,2.9054,2.9199,2.9297,2.8809,2.8398,2.8769,2.8976,2.8707,2.8575,2.8277,2.7515,0.0028,0.0112,0.1009,0.2045,0.3276,0.5087,0.6371,0.7282,0.8421,0.8912,0.8953,0.8926,0.8953,0.894,0.8967,0.8953,0.8898,0.8912,0.8946,0.9057,0.9272,0.9758,1.0449,1.1323,1.2373,1.3684,1.4562,1.5568,1.6577,1.7028,1.7265,1.7556,1.7609,1.7622,1.7608,1.7608,1.7501,1.7367,1.7166,1.6979,1.674,1.6673,1.6712,1.6737,1.6802,1.6935,1.728,1.7553,1.7972,1.87,1.9546,2.022,2.0903,2.1574,2.1979,2.2005,2.2072,2.2367,2.2943,2.4079,2.4982,2.5404,2.5921,2.6465,2.6654,2.6875,2.7148,2.7409,2.7305,2.7344,2.7545,2.7702,2.78,2.7917,2.8112,2.8203,2.8301,2.8281,2.8518,2.8914,2.907,2.9004,2.918,2.9251,2.9121,2.8797,2.8672,2.8691,2.8613,2.8613,2.8516,2.8457,2.834,2.8281,2.832,2.8476,2.8797,2.9023,2.9277,2.9355,2.9383,2.9481,2.954,2.942,2.9364,2.9623,2.9776,2.9378,2.9241,2.962,2.967,2.925,2.8294,2.7493,2.6572,0.0,0.0,0.0364,0.1206,0.244,0.4324,0.5758,0.694,0.8483,0.9211,0.9205,0.9211,0.9211,0.9205,0.9211,0.9211,0.9211,0.9211,0.9205,0.924,0.9382,0.9518,0.995,1.0395,1.1176,1.2293,1.3247,1.4513,1.5808,1.6377,1.7183,1.7516,1.7649,1.7622,1.7608,1.7675,1.7568,1.7448,1.7313,1.7125,1.706,1.7006,1.7006,1.7006,1.7194,1.7275,1.7447,1.7434,1.775,1.8171,1.88,1.9268,1.9683,2.0364,2.0637,2.0694,2.0778,2.1173,2.1931,2.3296,2.4622,2.5919,2.6473,2.6805,2.7007,2.7246,2.7441,2.7624,2.778,2.7832,2.7969,2.8047,2.8112,2.8132,2.8144,2.8262,2.832,2.834,2.8594,2.9023,2.9101,2.9082,2.9316,2.9598,2.9403,2.9199,2.9149,2.907,2.8992,2.8953,2.8894,2.8769,2.8679,2.8711,2.8769,2.9031,2.9305,2.954,2.9746,2.9774,2.9813,2.9931,2.9913,2.9791,2.9517,2.9422,2.9489,2.9793,2.9879,2.9784,2.9756,2.9651,2.845,2.6891,2.5586,0.0,0.0,0.0,0.065,0.1867,0.362,0.5083,0.6446,0.8252,0.9265,0.9381,0.941,0.941,0.941,0.9403,0.9396,0.9383,0.9383,0.9396,0.939,0.9383,0.941,0.9514,0.9874,1.048,1.1176,1.21,1.343,1.4846,1.5651,1.6603,1.7351,1.7768,1.7795,1.7916,1.7876,1.7836,1.7675,1.7555,1.7367,1.7341,1.7301,1.7301,1.7314,1.7474,1.7541,1.7568,1.7568,1.766,1.7924,1.8239,1.8527,1.8814,1.9116,1.9368,1.9511,1.9685,2.0101,2.1001,2.2739,2.4438,2.5868,2.6455,2.6807,2.7156,2.7493,2.7739,2.7917,2.8125,2.8301,2.8301,2.8242,2.8223,2.8203,2.8223,2.8301,2.8398,2.8457,2.8789,2.9141,2.9258,2.957,2.9883,3.0165,2.9833,2.9598,2.9403,2.9364,2.9364,2.9344,2.9403,2.9266,2.9109,2.918,2.9336,2.9631,2.9915,3.0067,3.0215,3.0137,3.0204,3.0216,3.0112,2.9863,2.9514,2.9122,2.9016,2.9069,2.938,2.969,2.9341,2.8755,2.7683,2.6054,2.4617,0.0,0.0,0.0,0.0546,0.1525,0.3043,0.4431,0.5743,0.7646,0.8861,0.9399,0.9422,0.9451,0.9451,0.9485,0.9485,0.9478,0.9464,0.9429,0.9449,0.9469,0.9422,0.9525,0.9758,1.0047,1.0629,1.1408,1.2413,1.3709,1.4718,1.5873,1.7184,1.782,1.8217,1.845,1.845,1.8289,1.8022,1.7982,1.7769,1.7635,1.7582,1.7541,1.7595,1.7635,1.7675,1.7796,1.7796,1.7836,1.7902,1.7942,1.8061,1.8114,1.8087,1.8209,1.8373,1.8347,1.8714,1.9537,2.2306,2.4113,2.5358,2.5758,2.6396,2.7106,2.758,2.7917,2.8019,2.8262,2.8301,2.8301,2.834,2.8359,2.8496,2.8516,2.8555,2.8672,2.875,2.9121,2.9453,2.9883,3.0293,3.0605,3.0752,3.0341,3.0009,2.9715,2.9637,2.9755,2.9824,2.9922,2.9807,2.9623,2.9531,2.9716,3.0248,3.0548,3.0665,3.0451,3.0103,3.0094,3.0161,3.0023,2.9728,2.8954,2.8069,2.8063,2.8188,2.7735,2.7183,2.7663,2.7207,2.6285,2.5233,2.3779,0.0,0.0,0.0,0.032,0.0978,0.2281,0.3621,0.5044,0.722,0.8858,0.9553,0.9673,0.9673,0.9673,0.9659,0.9652,0.9659,0.9673,0.9673,0.9659,0.9623,0.9673,0.9705,0.9676,0.979,1.0018,1.0603,1.133,1.2252,1.3529,1.5119,1.652,1.8022,1.8712,1.8597,1.849,1.841,1.8317,1.8143,1.7929,1.7849,1.7729,1.7702,1.7849,1.7862,1.7956,1.813,1.813,1.813,1.8116,1.8103,1.8116,1.813,1.813,1.821,1.8384,1.8464,1.9123,2.0033,2.1691,2.2667,2.3798,2.4837,2.5584,2.64,2.6789,2.7376,2.8033,2.8225,2.833,2.8633,2.8684,2.8781,2.9141,2.9246,2.9219,2.9277,2.9344,2.954,2.9824,3.0195,3.0353,3.0616,3.0597,3.0277,3.02,2.9939,3.0188,3.0391,3.044,3.0489,3.0402,3.0229,2.9988,2.9928,2.9295,2.9252,2.9263,2.933,2.9386,2.953,2.9464,2.8998,2.8289,2.7589,2.6944,2.6382,2.5713,2.4733,2.4332,2.5056,2.5454,2.484,2.3946,2.2846,0.0,0.0,0.0,0.0118,0.0512,0.1655,0.3076,0.4851,0.6946,0.8477,0.9299,0.9542,0.9694,0.9754,0.9792,0.9792,0.9792,0.9785,0.9785,0.9792,0.9785,0.9765,0.9737,0.9727,0.9698,0.9747,1.0017,1.0622,1.1355,1.2467,1.4308,1.6431,1.8155,1.8646,1.8706,1.8753,1.8771,1.8664,1.8463,1.8316,1.8196,1.8076,1.8023,1.8143,1.8196,1.8263,1.8424,1.8504,1.8504,1.8517,1.8504,1.8504,1.8504,1.8504,1.8544,1.8677,1.8961,1.946,2.0071,2.0343,2.1112,2.1711,2.3182,2.4461,2.5333,2.5863,2.6645,2.7333,2.7836,2.8047,2.8174,2.8325,2.8564,2.8869,2.8907,2.8832,2.8851,2.8813,2.9003,2.9393,2.9757,2.9986,3.0139,3.0265,3.0091,3.0129,3.0138,3.0382,3.0616,3.0674,3.0499,3.0255,3.0031,2.9603,2.8516,2.7122,2.7257,2.7724,2.7866,2.7914,2.7754,2.747,2.7163,2.6759,2.5956,2.504,2.4008,2.3139,2.2779,2.2623,2.2858,2.3107,2.3153,2.2745,2.2065,0.0,0.0,0.0,0.0,0.0,0.1088,0.2885,0.5253,0.6333,0.75,0.8726,0.9092,0.9427,0.9761,0.9792,0.9792,0.9792,0.9792,0.9792,0.9792,0.9792,0.9792,0.9792,0.9771,0.9734,0.9749,0.9902,1.0237,1.0796,1.1958,1.3898,1.5983,1.7518,1.821,1.8619,1.8984,1.9048,1.8958,1.8798,1.8623,1.8504,1.8424,1.8397,1.8464,1.8517,1.8557,1.8637,1.8651,1.8637,1.8611,1.8612,1.8571,1.8544,1.8531,1.8676,1.8918,1.9212,1.9421,1.9548,1.9649,1.9678,2.0358,2.1716,2.3062,2.41,2.483,2.5667,2.6222,2.6632,2.6881,2.711,2.7318,2.7498,2.7635,2.7653,2.7672,2.7708,2.7788,2.8006,2.8359,2.8707,2.8902,2.8742,2.8879,2.8683,2.8712,2.8641,2.8909,2.9294,3.0264,3.001,2.949,2.9235,2.8909,2.7551,2.5551,2.537,2.5929,2.5844,2.5841,2.5655,2.5665,2.5577,2.5145,2.4193,2.3325,2.2591,2.1996,2.1506,2.1488,2.1845,2.2072,2.2525,2.2244,2.1747,0.0,0.0,0.0,0.0,0.0,0.0552,0.178,0.3384,0.4613,0.6084,0.7825,0.8416,0.9092,0.9761,0.9792,0.9792,0.9792,0.9792,0.9792,0.9792,0.9792,0.9792,0.9792,0.9785,0.9788,0.9768,0.9831,0.9984,1.0382,1.1475,1.2937,1.4748,1.6532,1.7455,1.8227,1.8952,1.909,1.917,1.8953,1.889,1.8771,1.8651,1.8691,1.8758,1.8798,1.8865,1.8998,1.9067,1.908,1.9107,1.912,1.9134,1.9147,1.9147,1.9227,1.9212,1.9361,1.9417,1.9401,1.9401,1.9428,1.9567,2.0626,2.1467,2.259,2.3614,2.4524,2.5031,2.4932,2.4924,2.5606,2.6055,2.629,2.6422,2.6456,2.6473,2.6491,2.6559,2.676,2.6884,2.7271,2.7361,2.7228,2.6745,2.6594,2.6759,2.7,2.7289,2.7829,2.876,2.8986,2.8403,2.8164,2.7757,2.5835,2.3809,2.3901,2.3994,2.3992,2.4065,2.4251,2.4254,2.4132,2.3744,2.3126,2.2328,2.1475,2.1149,2.1296,2.1243,2.1538,2.1651,2.175,2.1732,2.1735,0.0,0.0,0.0,0.0,0.0,0.0216,0.0833,0.1756,0.3295,0.5165,0.6966,0.7867,0.8781,0.97,0.9792,0.9792,0.9792,0.9792,0.9792,0.9792,0.9792,0.9792,0.9792,0.9792,0.9785,0.9792,0.9792,0.9825,1.0149,1.1088,1.2496,1.3635,1.537,1.6415,1.7232,1.7977,1.8603,1.88,1.8939,1.9032,1.9011,1.8905,1.8998,1.9038,1.9078,1.9241,1.9361,1.9388,1.9401,1.9401,1.9401,1.9388,1.9388,1.9388,1.9388,1.9374,1.9388,1.9481,1.9562,1.9589,1.9642,1.9779,2.0061,2.0658,2.1402,2.2304,2.314,2.3763,2.3081,2.2808,2.3838,2.4747,2.4984,2.5221,2.5237,2.5237,2.5237,2.5253,2.5314,2.5375,2.5483,2.5635,2.5361,2.4794,2.464,2.5132,2.5377,2.5483,2.6062,2.688,2.7017,2.6655,2.6624,2.6412,2.4348,2.276,2.2697,2.2628,2.2367,2.2478,2.2806,2.2889,2.2817,2.2596,2.23,2.1745,2.143,2.147,2.1563,2.151,2.155,2.1808,2.1954,2.1907,2.1963,0.0,0.0,0.0,0.0,0.0,0.0,0.0,0.0,0.2373,0.4432,0.6176,0.7347,0.8538,0.9579,0.9792,0.9792,0.9792,0.9792,0.9792,0.9792,0.9792,0.9792,0.9792,0.9792,0.9792,0.9792,0.9792,0.9822,1.0035,1.0694,1.1571,1.2625,1.3984,1.5055,1.5717,1.6644,1.7232,1.7618,1.8319,1.8845,1.919,1.9332,1.9401,1.9374,1.9361,1.9388,1.9388,1.9401,1.9401,1.9401,1.9401,1.9401,1.9401,1.9401,1.9401,1.9441,1.9455,1.9589,1.9706,1.9786,1.9947,2.0064,2.0254,2.0513,2.1047,2.1212,2.1962,2.2525,2.2037,2.2029,2.2844,2.3241,2.3468,2.3559,2.3559,2.3559,2.3559,2.3559,2.359,2.3621,2.3652,2.3775,2.3816,2.3342,2.333,2.372,2.391,2.3925,2.4269,2.506,2.5211,2.5027,2.5086,2.4887,2.3634,2.2265,2.1729,2.1429,2.1375,2.1438,2.2145,2.1956,2.1499,2.1725,2.2062,2.2027,2.189,2.183,2.1804,2.1844,2.1924,2.2111,2.2164,2.2138,2.2245,0.0,0.0,0.0,0.0,0.0,0.0,0.0,0.0,0.1387,0.3231,0.5195,0.6608,0.8141,0.9548,0.9731,0.9761,0.9792,0.9792,0.9792,0.9792,0.9792,0.9792,0.9792,0.9792,0.9792,0.9792,0.9792,0.9792,0.9913,1.0217,1.0581,1.1329,1.2547,1.3416,1.4083,1.4966,1.5647,1.6208,1.7091,1.811,1.8765,1.9214,1.9401,1.9401,1.9401,1.9428,1.9428,1.9428,1.9415,1.9401,1.9401,1.9401,1.9401,1.9415,1.9401,1.9428,1.9629,1.9746,1.9893,2.004,2.017,2.0307,2.0441,2.0561,2.0654,2.0544,2.0689,2.1183,2.1481,2.1585,2.1675,2.1874,2.201,2.201,2.201,2.201,2.1978,2.1978,2.1978,2.1992,2.1992,2.2086,2.2189,2.2282,2.2179,2.2266,2.2428,2.2526,2.2665,2.3207,2.368,2.3606,2.3632,2.3289,2.2314,2.2148,2.1824,2.1697,2.1779,2.17,2.1636,2.1697,2.179,2.1844,2.2016,2.2131,2.2171,2.1991,2.1991,2.2144,2.2218,2.2378,2.2472,2.2458,2.2639,0.0,0.0,0.0,0.0,0.0,0.0,0.0,0.0,0.0895,0.2218,0.3965,0.569,0.7531,0.9214,0.9488,0.97,0.9761,0.9792,0.9792,0.9792,0.9792,0.9792,0.9792,0.9792,0.9792,0.9792,0.9792,0.9792,0.9798,0.9852,1.0186,1.0649,1.1428,1.2062,1.2664,1.3366,1.4063,1.4787,1.5658,1.6732,1.7931,1.869,1.9314,1.9401,1.9495,1.9519,1.9626,1.9653,1.9746,1.976,1.9786,1.9786,1.98,1.98,1.9786,1.9813,1.992,2.0054,2.0174,2.0307,2.0437,2.0601,2.0708,2.0882,2.0895,2.0828,2.0828,2.1249,2.1218,2.1308,2.1308,2.1443,2.1475,2.1475,2.1475,2.1475,2.1475,2.1475,2.1583,2.1765,2.1719,2.1687,2.1986,2.2543,2.2384,2.2061,2.2043,2.2083,2.205,2.2131,2.2386,2.2563,2.2822,2.2476,2.1764,2.1894,2.2237,2.2211,2.2171,2.2084,2.2017,2.2111,2.2191,2.2258,2.2358,2.2465,2.2439,2.2285,2.2385,2.2532,2.2565,2.2632,2.2686,2.2726,2.2711,0.0,0.0,0.0,0.0,0.0,0.0,0.0,0.0,0.0679,0.145,0.2616,0.4643,0.667,0.8172,0.9031,0.9427,0.967,0.9792,0.9792,0.9792,0.9792,0.9792,0.9792,0.9792,0.9792,0.9812,0.9825,0.9839,0.9846,0.991,1.0091,1.0409,1.0822,1.1316,1.1704,1.2106,1.2695,1.3371,1.4239,1.528,1.6665,1.819,1.8962,1.9405,1.961,1.98,1.992,2.001,2.017,2.0157,2.0104,2.009,2.0077,2.0064,2.009,2.0104,2.0214,2.0388,2.0561,2.0668,2.0842,2.1002,2.1082,2.1096,2.1082,2.1082,2.1082,2.1096,2.1096,2.1109,2.1109,2.1109,2.1109,2.1203,2.1203,2.1243,2.1243,2.1229,2.1435,2.1622,2.1596,2.1537,2.1951,2.2559,2.2546,2.2191,2.2084,2.2098,2.2151,2.2331,2.2525,2.2576,2.2654,2.2117,2.1494,2.177,2.2405,2.2485,2.2465,2.2418,2.2418,2.2445,2.2525,2.2719,2.28,2.2746,2.276,2.2706,2.28,2.284,2.28,2.2752,2.2745,2.2737,2.2661,0.0,0.0,0.0,0.0,0.0,0.0,0.0,0.0,0.0432,0.1018,0.191,0.3233,0.5226,0.7673,0.8324,0.8964,0.9731,0.9792,0.9792,0.9792,0.9792,0.9792,0.9792,0.9792,0.9792,0.9832,0.99,0.9967,0.9981,1.0107,1.0213,1.035,1.0357,1.0577,1.0615,1.0977,1.1323,1.2055,1.2885,1.3896,1.5471,1.7026,1.8635,1.9214,1.9612,1.9887,2.0064,2.0157,2.0197,2.0197,2.025,2.0277,2.0304,2.0317,2.0317,2.0384,2.0494,2.0615,2.0793,2.0882,2.1042,2.1069,2.1109,2.1096,2.1096,2.1096,2.1096,2.1096,2.1109,2.1109,2.1109,2.1149,2.1176,2.1456,2.1577,2.167,2.1724,2.171,2.1796,2.185,2.1823,2.1911,2.2211,2.2626,2.2827,2.2599,2.2599,2.2599,2.2572,2.2626,2.2653,2.2639,2.2612,2.2492,2.2184,2.2098,2.2512,2.2619,2.2659,2.2539,2.2539,2.2699,2.284,2.288,2.2893,2.2853,2.2893,2.2893,2.2947,2.2947,2.2893,2.2846,2.2852,2.2656,2.2493]},{"header":{"parameterUnit":"m.s-1","parameterCategory":1,"la1":31.0,"la2":29.5877,"lo1":-88.7671,"lo2":-86.6584,"dy":0.0162,"dx":0.0185,"nx":115,"ny":88,"refTime":"2026-04-07T12:00:00:Z","depth":0,"parameterNumber":3,"parameterNumberName":"V-component_of_WINDS"},"data":[0.0,0.0,0.0,0.0,0.0,0.0,0.0,0.0,0.0,0.0,0.0,0.0,0.0,0.0,0.0,0.0,0.0,0.0,0.0,0.0,0.0,0.0,0.0,0.0,0.0,0.0,0.0,0.0,0.0,0.0,0.0,0.0,0.0,0.0,0.0,0.0,0.0,0.0,0.0,0.0,0.0,0.0,0.0,0.0,0.0,0.0,0.0,0.0,0.0,0.0,0.0,0.0,0.0,0.0,0.0,0.0,0.0,0.0,0.0,0.0,0.0,0.0,0.0,0.0,0.0,0.0,0.0,0.0,0.0,0.0,0.0,0.0,0.0,0.0,0.0,0.0,0.0,0.0,0.0,0.0,0.0,0.0,0.0,0.0,0.0,0.0,0.0,0.0,0.0,0.0,0.0,0.0,0.0,0.0,0.0,0.0,0.0,0.0,0.0,0.0,0.0,0.0,0.0,0.0,0.0,0.0,0.0,0.0,0.0,0.0,0.0,0.0,0.0,0.0,0.0,0.0,0.0,0.0,0.0,0.0,0.0,0.0,0.0,0.0,0.0,0.0,0.0,0.0,0.0,0.0,0.0,0.0,0.0,0.0,0.0,0.0,0.0,0.0,0.0,0.0,0.0,0.0,0.0,0.0,0.0,0.0,0.0,0.0,0.0,0.0,0.0,0.0,0.0,0.0,0.0,0.0,0.0,0.0,0.0,0.0,0.0,0.0,0.0,0.0,0.0,0.0,0.0,0.0,0.0,0.0,0.0,0.0,0.0,0.0,0.0,0.0,0.0,0.0,0.0,0.0,0.0,0.0,0.0,0.0,0.0,0.0,0.0,0.0,0.0,0.0,0.0,0.0,0.0,0.0,0.0,0.0,0.0,0.0,0.0,0.0,0.0,0.0,0.0,0.0,0.0,0.0,0.0,0.0,0.0,0.0,0.0,0.0,0.0,0.0,0.0,0.0,0.0,0.0,0.0,0.0,0.0,0.0,0.0,0.0,0.0,0.0,0.0,0.0,0.0,0.0,0.0,0.0,0.0,0.0,0.0,0.0,0.0,0.0,0.0,0.0,0.0,0.0,0.0,0.0,0.0,0.0,0.0,0.0,0.0,0.0,0.0,0.0,0.0,0.0,0.0,0.0,0.0,0.0,0.0,0.0,0.0,0.0,0.0,0.0,0.0,0.0,0.0,0.0,0.0,0.0,0.0,0.0,0.0,0.0,0.0,0.0,0.0,0.0,0.0,0.0,0.0,0.0,0.0,0.0,0.0,0.0,0.0,0.0,0.0,0.0,0.0,0.0,0.0,0.0,0.0,0.0,0.0,0.0,0.0,0.0,0.0,0.0,0.0,0.0,0.0,0.0,0.0,0.0,0.0,0.0,0.0,0.0,0.0,0.0,0.0,0.0,0.0,0.0,0.0,0.0,0.0,0.0,0.0,0.0,0.0,0.0,0.0,0.0,0.0,0.0,0.0,0.0,0.0,0.0,0.0,0.0,0.0,0.0,0.0,0.0,0.0,0.0,0.0,0.0,0.0,0.0,0.0,0.0,0.0,0.0,0.0,0.0,0.0,0.0,0.0,0.0,0.0,0.0,0.0,0.0,0.0,0.0,0.0,0.0,0.0,0.0,0.0,0.0,0.0,0.0,0.0,0.0,0.0,0.0,0.0,0.0,0.0,0.0,0.0,0.0,0.0,0.0,0.0,0.0,0.0,0.0,0.0,0.0,0.0,0.0,0.0,0.0,0.0,0.0,0.0,0.0,0.0,0.0,0.0,0.0,0.0,0.0,0.0,0.0,0.0,0.0,0.0,0.0,0.0,0.0,0.0,0.0,0.0,0.0,0.0,0.0,0.0,0.0,0.0,0.0,0.0,0.0,0.0,0.0,0.0,0.0,0.0,0.0,0.0,0.0,0.0,0.0,0.0,0.0,0.0,0.0,0.0,0.0,0.0,0.0,0.0,0.0,0.0,0.0,0.0,0.0,0.0,0.0,0.0,0.0,0.0,0.0,0.0,0.0,0.0,0.0,0.0,0.0,0.0,0.0,0.0,0.0,0.0,0.0,0.0,0.0,0.0,0.0,0.0,0.0,0.0,0.0,0.0,0.0,0.0,0.0,0.0,0.0,0.0,0.0,0.0,0.0,0.0,0.0,0.0,0.0,0.0,0.0,0.0,0.0,0.0,0.0,0.0,0.0,0.0,0.0,0.0,0.0,0.0,0.0,0.0,0.0,0.0,0.0,0.0,0.0,0.0,0.0,0.0,0.0,0.0,0.0,0.0,0.0,0.0,0.0,0.0,0.0,0.0,0.0,0.0,0.0,0.0,0.0,0.0,0.0,0.0,0.0,0.0,0.0,0.0,0.0,0.0,0.0,0.0,0.0,0.0,0.0,0.0,0.0,0.0,0.0,0.0,0.0,0.0,0.0,0.0,0.0,0.0,0.0,0.0,0.0,0.0,0.0,0.0,0.0,0.0,0.0,0.0,0.0,0.0,0.0,0.0,0.0,0.0,0.0,0.0,0.0,0.0,0.0,0.0,0.0,0.0,0.0,0.0,0.0,0.0,0.0,0.0,0.0,0.0,0.0,0.0,0.0,0.0,0.0,0.0,0.0,0.0,0.0,0.0,0.0,0.0,0.0,0.0,0.0,0.0,0.0,0.0,0.0,0.0,0.0,0.0,0.0,0.0,0.0,0.0,0.0,0.0,0.0,0.0,0.0,0.0,0.0,0.0,0.0,0.0,0.0,0.0,0.0,0.0,0.0,0.0,0.0,0.0,0.0,0.0,0.0,0.0,0.0,0.0,0.0,0.0,0.0,0.0,0.0,0.0,0.0,0.0,0.0,0.0,0.0,0.0,0.0,0.0,0.0,0.0,0.0,0.0,0.0,0.0,0.0,0.0,0.0,0.0,0.0,0.0,0.0,0.0,0.0,0.0,0.0,0.0,0.0,0.0,0.0,0.0,0.0,0.0,0.0,0.0,0.0,0.0,0.0,0.0,0.0,0.0,0.0,0.0,0.0,0.0,0.0,0.0,0.0,0.0,0.0,0.0,0.0,0.0,0.0,0.0,0.0,0.0,0.0,0.0,0.0,0.0,0.0,0.0,0.0,0.0,0.0,0.0,0.0,0.0,0.0,0.0,0.0,0.0,0.0,0.0,0.0,0.0,0.0,0.0,0.0,0.0,0.0,0.0,0.0,0.0,0.0,0.0,0.0,0.0,0.0,0.0,0.0,0.0,0.0,0.0,0.0,0.0,0.0,0.0,0.0,0.0,0.0,0.0,0.0,0.0,0.0,0.0,0.0,0.0,0.0,0.0,0.0,0.0,0.0,0.0,0.0,0.0,0.0,0.0,0.0,0.0,0.0,0.0,0.0,0.0,0.0,0.0,0.0,0.0,0.0,0.0,0.0,0.0,0.0,0.0,0.0,0.0,0.0,0.0,0.0,0.0,0.0,0.0,0.0,0.0,0.0,0.0,0.0,0.0,0.0,0.0,0.0,0.0,0.0,0.0,0.0,0.0,0.0,0.0,0.0,0.0,0.0,0.0,0.0,0.0,0.0,0.0,0.0,0.0,0.0,0.0,0.0,0.0,0.0,0.0,0.0,0.0,0.0,0.0,0.0,0.0,0.0,0.0,0.0,0.0,0.0,0.0,0.0,0.0,0.0,0.0,0.0,0.0,0.0,0.0,0.0,0.0,0.0,0.0,0.0,0.0,0.0,0.0,0.0,0.0,0.0,0.0,0.0,0.0,0.0,0.0,0.0,0.0,0.0,0.0,0.0,0.0,0.0,0.0,0.0,0.0,0.0,0.0,0.0,0.0,0.0,0.0,0.0,0.0,0.0,0.0,0.0,0.0,0.0,0.0,0.0,0.0,0.0,0.0,0.0,0.0,0.0,0.0,0.0,0.0,0.0,0.0,0.0,0.0,0.0,0.0,0.0,0.0,0.0,0.0,0.0,0.0,0.0,0.0,0.0,0.0,0.0,0.0,0.0,0.0,0.0,0.0,0.0,0.0,0.0,0.0,0.0,0.0,0.0,0.0,0.0,0.0,0.0,0.0,0.0,0.0,0.0,0.0,0.0,0.0,0.0,0.0,0.0,0.0,0.0,0.0,0.0,0.0,0.0,0.0,0.0,0.0,0.0,0.0,0.0,0.0,0.0,0.0,0.0,0.0,0.0,0.0,0.0,0.0,0.0,0.0,0.0,0.0,0.0,0.0,0.0,0.0,0.0,0.0,0.0,0.0,0.0,0.0,0.0,0.0,0.0,0.0,0.0,0.0,0.0,0.5103,0.0,0.0,0.0,0.0,0.0,0.0,0.0,0.0,0.0,0.0,0.0,0.0,0.0,0.0,0.0,0.0,0.0,0.0,0.0,0.0,0.0,0.0,0.0,0.0,0.0,0.0,0.0,0.0,0.0,0.0,0.0,0.0,0.0,0.0,0.0,0.0,0.0,0.0,0.0,0.0,0.0,0.0,0.0,0.0,0.0,0.0,0.0,0.0,0.0,0.0,0.0,0.0,0.0,0.0,0.0,0.0,0.0,0.0,0.0,0.0,0.0,0.0,0.0,0.0,0.0,0.0,0.0,0.0,0.0,0.0,0.0,0.0,0.0,0.0,0.0,0.0,0.0,0.0,0.0,0.0,0.0,0.0,0.0,0.0,0.0,0.0,0.0,0.0,0.0,0.0,0.0,0.0,0.0,0.0,0.0,0.0,0.0,0.0,0.0,0.0,0.0,0.0,0.0,0.0,0.0,0.0,0.0,0.0,0.0,0.0,0.5103,0.5103,0.5103,0.5103,0.5103,0.0,0.0,0.0,0.0,0.0,0.0,0.0,0.0,0.0,0.0,0.0,0.0,0.0,0.0,0.0,0.0,0.0,0.0,0.0,0.0,0.0,0.0,0.0,0.0,0.0,0.0,0.0,0.0,0.0,0.0,0.0,0.0,0.0,0.0,0.0,0.0,0.0,0.0,0.0,0.0,0.0,0.0,0.0,0.0,0.0,0.0,0.0,0.0,0.0,0.0,0.0,0.0,0.0,0.0,0.0,0.0,0.0,0.0,0.0,0.0,0.0,0.0,0.0,0.0,0.0,0.0,0.0,0.0,0.0,0.0,0.0,0.0,0.0,0.0,0.0,0.0,0.0,0.0,0.0,0.0,0.0,0.0,0.0,0.0,0.0,0.0,0.0,0.0,0.0,0.0,0.0,0.0,0.0,0.0,0.0,0.0,0.0,0.0,0.0,0.0,0.0,0.0,0.0,0.0,0.0,0.0,0.0,0.0,0.0,0.0,0.0,0.0,0.5102,0.5161,0.5156,0.0,0.0,0.0,0.0,0.0,0.0,0.0,0.0,0.0,0.0,0.0,0.0,0.0,0.0,0.0,0.0,0.0,0.0,0.0,0.0,0.0,0.0,0.0,0.0,0.0,0.0,0.0,0.0,0.0,0.0,0.0,0.0,0.0,0.0,0.0,0.0,0.0,0.0,0.0,0.0,0.0,0.0,0.0,0.0,0.0,0.0,0.0,0.0,0.0,0.0,0.0,0.0,0.0,0.0,0.0,0.0,0.0,0.0,0.0,0.0,0.0,0.0,0.0,0.0,0.0,0.0,0.0,0.0,0.0,0.0,0.0,0.0,0.0,0.0,0.0,0.0,0.0,0.0,0.0,0.0,0.0,0.0,0.0,0.0,0.0,0.0,0.0,0.0,0.0,0.0,0.0,0.0,0.0,0.0,0.0,0.0,0.0,0.0,0.0,0.0,0.0,0.0,0.0,0.0,0.0,0.0,0.0,0.0,0.0,0.0,0.4746,0.4742,0.5156,0.0,0.5301,0.0,0.0,0.0,0.0,0.0,0.0,0.0,0.0,0.0,0.0,0.0,0.0,0.0,0.0,0.0,0.0,0.0,0.0,0.0,0.0,0.0,0.0,0.0,0.0,0.0,0.0,0.0,0.0,0.0,0.0,0.0,0.0,0.0,0.0,0.0,0.0,0.0,0.0,0.0,0.0,0.0,0.0,0.0,0.0,0.0,0.0,0.0,0.0,0.0,0.0,0.0,0.0,0.0,0.0,0.0,0.0,0.0,0.0,0.0,0.0,0.0,0.0,0.0,0.0,0.0,0.0,0.0,0.0,0.0,0.0,0.0,0.0,0.0,0.0,0.0,0.0,0.0,0.0,0.0,0.0,0.0,0.0,0.0,0.0,0.0,0.0,0.0,0.0,0.0,0.0,0.0,0.0,0.0,0.0,0.0,0.0,0.0,0.0,0.0,0.0,0.0,0.0,0.0,0.0,0.0,0.0,0.0,0.0,0.0,0.0,0.0,0.493,0.5266,0.546,0.0,0.0,0.0,0.0,0.0,0.0,0.0,0.0,0.0,0.0,0.0,0.0,0.0,0.0,0.0,0.0,0.0,0.0,0.0,0.0,0.0,0.0,0.0,0.0,0.0,0.0,0.0,0.0,0.0,0.0,0.0,0.0,0.0,0.0,0.0,0.0,0.0,0.0,0.0,0.0,0.0,0.0,0.0,0.0,0.0,0.0,0.0,0.0,0.0,0.0,0.0,0.0,0.0,0.0,0.0,0.0,0.0,0.0,0.0,0.0,0.0,0.0,0.0,0.0,0.0,0.0,0.0,0.0,0.0,0.0,0.0,0.0,0.0,0.0,0.0,0.0,0.0,0.0,0.0,0.0,0.0,0.0,0.0,0.0,0.0,0.0,0.0,0.0,0.0,0.0,0.0,0.0,0.0,0.0,0.0,0.0,0.0,0.0,0.0,0.0,0.0,0.0,0.0,0.0,0.0,0.0,0.0,0.0,0.0,0.0,0.4952,0.0,0.5338,0.5493,0.5576,0.5626,0.0,0.0,0.0,0.0,0.0,0.0,0.0,0.0,0.0,0.0,0.0,0.0,0.0,0.0,0.0,0.0,0.0,0.0,0.0,0.0,0.0,0.0,0.0,0.0,0.0,0.0,0.0,0.0,0.0,0.0,0.0,0.0,0.0,0.0,0.0,0.0,0.0,0.0,0.0,0.0,0.0,0.0,0.0,0.0,0.0,0.0,0.0,0.0,0.0,0.0,0.0,0.0,0.0,0.0,0.0,0.0,0.0,0.0,0.0,0.0,0.0,0.0,0.0,0.0,0.0,0.0,0.0,0.0,0.0,0.0,0.0,0.0,0.0,0.0,0.0,0.0,0.0,0.0,0.0,0.0,0.0,0.0,0.0,0.0,0.0,0.0,0.0,0.0,0.0,0.0,0.0,0.0,0.0,0.0,0.0,0.0,0.0,0.0,0.0,0.0,0.0,0.0,0.0,0.0,0.0,0.0,0.0,0.0,0.0,0.4647,0.5051,0.592,0.5829,0.5814,0.0,0.0,0.0,0.0,0.0,0.0,0.0,0.0,0.0,0.0,0.0,0.0,0.0,0.0,0.0,0.0,0.0,0.0,0.0,0.0,0.0,0.0,0.0,0.0,0.0,0.0,0.0,0.0,0.0,0.0,0.0,0.0,0.0,0.0,0.0,0.0,0.0,0.0,0.0,0.0,0.0,0.0,0.0,0.0,0.0,0.0,0.0,0.0,0.0,0.0,0.0,0.0,0.0,0.0,0.0,0.0,0.0,0.0,0.0,0.0,0.0,0.0,0.0,0.0,0.0,0.0,0.0,0.0,0.0,0.0,0.0,0.0,0.0,0.0,0.0,0.0,0.0,0.0,0.0,0.0,0.0,0.0,0.0,0.0,0.0,0.0,0.0,0.0,0.0,0.0,0.0,0.0,0.0,0.0,0.0,0.0,0.0,0.0,0.0,0.0,0.0,0.0,0.0,0.0,0.0,0.0,0.0,0.0,0.0,0.5362,0.5384,0.5677,0.6268,0.6141,0.6074,0.0,0.0,0.0,0.0,0.0,0.0,0.0,0.0,0.0,0.0,0.0,0.0,0.0,0.0,0.0,0.0,0.0,0.0,0.0,0.0,0.0,0.0,0.0,0.0,0.0,0.0,0.0,0.0,0.0,0.0,0.0,0.0,0.0,0.0,0.0,0.0,0.0,0.0,0.0,0.0,0.0,0.0,0.0,0.0,0.0,0.0,0.0,0.0,0.0,0.0,0.0,0.0,0.0,0.0,0.0,0.0,0.0,0.0,0.0,0.0,0.0,0.0,0.0,0.0,0.0,0.0,0.0,0.0,0.0,0.0,0.0,0.0,0.0,0.0,0.0,0.0,0.0,0.0,0.0,0.0,0.0,0.0,0.0,0.0,0.0,0.0,0.0,0.0,0.0,0.0,0.0,0.0,0.0,0.0,0.0,0.0,0.0,0.0,0.0,0.0,0.0,0.0,0.0,0.0,0.0,0.0,0.0,0.0,0.0,0.5796,0.0,0.6028,0.0,0.6345,0.6283,0.0,0.0,0.0,0.0,0.0,0.0,0.0,0.0,0.0,0.0,0.0,0.0,0.0,0.0,0.0,0.0,0.0,0.0,0.0,0.0,0.0,0.0,0.0,0.0,0.0,0.0,0.0,0.0,0.0,0.0,0.0,0.0,0.0,0.0,0.0,0.0,0.0,0.0,0.0,0.0,0.0,0.0,0.0,0.0,0.0,0.0,0.0,0.0,0.0,0.0,0.0,0.0,0.0,0.0,0.0,0.0,0.0,0.0,0.0,0.0,0.0,0.0,0.0,0.0,0.0,0.0,0.0,0.0,0.0,0.0,0.0,0.0,0.0,0.0,0.0,0.0,0.0,0.0,0.0,0.0,0.0,0.0,0.0,0.0,0.0,0.0,0.0,0.0,0.0,0.0,0.0,0.0,0.0,0.0,0.0,0.0,0.0,0.0,0.0,0.0,0.0,0.0,0.0,0.0,0.0,0.0,0.0,0.0,0.5757,0.5829,0.585,0.6103,0.6506,0.6436,0.6439,0.0,0.0,0.0,0.0,0.0,0.0,0.0,0.0,0.0,0.0,0.0,0.0,0.0,0.0,0.0,0.0,0.0,0.0,0.0,0.0,0.0,0.0,0.0,0.0,0.0,0.0,0.0,0.0,0.0,0.0,0.0,0.0,0.0,0.0,0.0,0.0,0.0,0.0,0.0,0.0,0.0,0.0,0.0,0.0,0.0,0.0,0.0,0.0,0.0,0.0,0.0,0.0,0.0,0.0,0.0,0.0,0.0,0.0,0.0,0.0,0.0,0.0,0.0,0.0,0.0,0.0,0.0,0.0,0.0,0.0,0.0,0.0,0.0,0.0,0.0,0.0,0.0,0.0,0.0,0.0,0.0,0.0,0.0,0.0,0.0,0.0,0.0,0.0,0.0,0.0,0.0,0.0,0.0,0.0,0.0,0.0,0.0,0.0,0.0,0.0,0.0,0.0,0.0,0.0,0.0,0.0,0.0,0.0,0.0,0.6907,0.6907,0.6969,0.7105,0.6738,0.6543,0.0,0.0,0.0,0.0,0.0,0.0,0.0,0.0,0.0,0.0,0.0,0.0,0.0,0.0,0.0,0.0,0.0,0.0,0.0,0.0,0.0,0.0,0.0,0.0,0.0,0.0,0.0,0.0,0.0,0.0,0.0,0.0,0.0,0.0,0.0,0.0,0.0,0.0,0.0,0.0,0.0,0.0,0.0,0.0,0.0,0.0,0.0,0.0,0.0,0.0,0.0,0.0,0.0,0.0,0.0,0.0,0.0,0.0,0.0,0.0,0.0,0.0,0.0,0.0,0.0,0.0,0.0,0.0,0.0,0.0,0.0,0.0,0.0,0.0,0.0,0.0,0.0,0.0,0.0,0.0,0.0,0.0,0.0,0.0,0.0,0.0,0.0,0.0,0.0,0.0,0.0,0.0,0.0,0.0,0.0,0.0,0.0,0.0,0.0,0.0,0.0,0.0,0.0,0.0,0.0,0.0,0.0,0.0,0.0,0.7943,0.7669,0.7519,0.7509,0.6941,0.6629,0.665,0.0,0.0,0.0,0.0,0.0,0.0,0.0,0.0,0.0,0.0,0.0,0.0,0.0,0.0,0.0,0.0,0.0,0.0,0.0,0.0,0.0,0.0,0.0,0.0,0.0,0.0,0.0,0.0,0.0,0.0,0.0,0.0,0.0,0.0,0.0,0.0,0.0,0.0,0.0,0.0,0.0,0.0,0.0,0.0,0.0,0.0,0.0,0.0,0.0,0.0,0.0,0.0,0.0,0.0,0.0,0.0,0.0,0.0,0.0,0.0,0.0,0.0,0.0,0.0,0.0,0.0,0.0,0.0,0.0,0.0,0.0,0.0,0.0,0.0,0.0,0.0,0.0,0.0,0.0,0.0,0.0,0.0,0.0,0.0,0.0,0.0,0.0,0.0,0.0,0.0,0.0,0.0,0.0,0.0,0.0,0.0,0.0,0.0,0.0,0.0,0.0,0.0,0.0,0.0,0.0,0.0,0.0,0.0,0.8951,0.829,0.7908,0.7758,0.7139,0.6732,0.0,0.0,0.0,0.0,0.0,0.0,0.0,0.0,0.0,0.0,0.0,0.0,0.0,0.0,0.0,0.0,0.0,0.0,0.0,0.0,0.0,0.0,0.0,0.0,0.0,0.0,0.0,0.0,0.0,0.0,0.0,0.0,0.0,0.0,0.0,0.0,0.0,0.0,0.0,0.0,0.0,0.0,0.0,0.0,0.0,0.0,0.0,0.0,0.0,0.0,0.0,0.0,0.0,0.0,0.0,0.0,0.0,0.0,0.0,0.0,0.0,0.0,0.0,0.0,0.0,0.0,0.0,0.0,0.0,0.0,0.0,0.0,0.0,0.0,0.0,0.0,0.0,0.0,0.0,0.0,0.0,0.0,0.0,0.0,0.0,0.0,0.0,0.0,0.0,0.0,0.0,0.0,0.0,0.0,0.0,0.0,0.0,0.0,0.0,0.0,0.0,0.0,0.0,0.0,0.0,0.0,0.0,0.0,0.0,0.9674,0.9699,0.9364,0.8624,0.793,0.7323,0.0,0.0,0.0,0.0,0.0,0.0,0.0,0.0,0.0,0.0,0.0,0.0,0.0,0.0,0.0,0.0,0.0,0.0,0.0,0.0,0.0,0.0,0.0,0.0,0.0,0.0,0.0,0.0,0.0,0.0,0.0,0.0,0.0,0.0,0.0,0.0,0.0,0.0,0.0,0.0,0.0,0.0,0.0,0.0,0.0,0.0,0.0,0.0,0.0,0.0,0.0,0.0,0.0,0.0,0.0,0.0,0.0,0.0,0.0,0.0,0.0,0.0,0.0,0.0,0.0,0.0,0.0,0.0,0.0,0.0,0.0,0.0,0.0,0.0,0.0,0.0,0.0,0.0,0.0,0.0,0.0,0.0,0.0,0.0,0.0,0.0,0.0,0.0,0.0,0.0,0.0,0.0,0.0,0.0,0.0,0.0,0.0,0.0,0.0,0.0,0.0,0.0,0.0,0.0,0.0,0.0,0.0,0.0,0.9382,1.0165,1.0993,1.0846,0.9709,0.8599,0.7807,0.0,0.0,0.0,0.0,0.0,0.0,0.0,0.0,0.0,0.0,0.0,0.0,0.0,0.0,0.0,0.0,0.0,0.0,0.0,0.0,0.0,0.0,0.0,0.0,0.0,0.0,0.0,0.0,0.0,0.0,0.0,0.0,0.0,0.0,0.0,0.0,0.0,0.0,0.0,0.0,0.0,0.0,0.0,0.0,0.0,0.0,0.0,0.0,0.0,0.0,0.0,0.0,0.0,0.0,0.0,0.0,0.0,0.0,0.0,0.0,0.0,0.0,0.0,0.0,0.0,0.0,0.0,0.0,0.0,0.0,0.0,0.0,0.0,0.0,0.0,0.0,0.0,0.0,0.0,0.0,0.0,0.0,0.0,0.0,0.0,0.0,0.0,0.0,0.0,0.0,0.0,0.0,0.0,0.0,0.0,0.0,0.0,0.0,0.0,0.0,0.0,0.0,0.0,0.0,0.0,0.0,0.0,0.0,0.9781,1.0606,1.2103,1.2276,1.093,0.9366,0.8411,0.0,0.0,0.0,0.0,0.0,0.0,0.0,0.0,0.0,0.0,0.0,0.0,0.0,0.0,0.0,0.0,0.0,0.0,0.0,0.0,0.0,0.0,0.0,0.0,0.0,0.0,0.0,0.0,0.0,0.0,0.0,0.0,0.0,0.0,0.0,0.0,0.0,0.0,0.0,0.0,0.0,0.0,0.0,0.0,0.0,0.0,0.0,0.0,0.0,0.0,0.0,0.0,0.0,0.0,0.0,0.0,0.0,0.0,0.0,0.0,0.0,0.0,0.0,0.0,0.0,0.0,0.0,0.0,0.0,0.0,0.0,0.0,0.0,0.0,0.0,0.0,0.0,0.0,0.0,0.0,0.0,0.0,0.0,0.0,0.0,0.0,0.0,0.0,0.0,0.0,0.0,0.0,0.0,0.0,0.0,0.0,0.0,0.0,0.0,0.0,0.0,0.0,0.0,0.0,0.0,0.0,0.0,0.0,1.1164,1.196,1.3039,1.3172,1.2285,1.1322,1.0253,0.0,0.0,0.0,0.0,0.0,0.0,0.0,0.0,0.0,0.0,0.0,0.0,0.0,0.0,0.0,0.0,0.0,0.0,0.0,0.0,0.0,0.0,0.0,0.0,0.0,0.0,0.0,0.0,0.0,0.0,0.0,0.0,0.0,0.0,0.0,0.0,0.0,0.0,0.0,0.0,0.0,0.0,0.0,0.0,0.0,0.0,0.0,0.0,0.6483,0.0,0.0,0.0,0.0,0.0,0.0,0.0,0.0,0.0,0.0,0.0,0.0,0.0,0.0,0.0,0.0,0.0,0.0,0.0,0.0,0.0,0.0,0.0,0.0,0.0,0.0,0.0,0.0,0.0,0.0,0.0,0.0,0.0,0.0,0.0,0.0,0.0,0.0,0.0,0.0,0.0,0.0,0.0,0.0,0.0,0.0,0.0,0.0,0.0,0.0,0.0,0.0,0.0,0.0,0.0,0.0,0.0,0.0,0.0,1.1878,1.2912,1.3799,1.3932,1.3243,1.282,1.1612,0.0,0.0,0.0,0.0,0.0,0.0,0.0,0.0,0.0,0.0,0.0,0.0,0.0,0.0,0.0,0.0,0.0,0.0,0.0,0.0,0.0,0.0,0.0,0.0,0.0,0.0,0.0,0.0,0.0,0.0,0.0,0.0,0.0,0.0,0.0,0.0,0.0,0.0,0.0,0.0,0.0,0.0,0.0,0.0,0.0,0.0,0.0,0.0,0.0,0.0,0.0,0.0,0.0,0.0,0.0,0.0,0.0,0.0,0.0,0.0,0.0,0.0,0.0,0.0,0.0,0.0,0.0,0.0,0.0,0.0,0.0,0.0,0.0,0.0,0.0,0.0,0.0,0.0,0.0,0.0,0.0,0.0,0.0,0.0,0.0,0.0,0.0,0.0,0.0,0.0,0.0,0.0,0.0,0.0,0.0,0.0,0.0,0.0,0.0,0.0,0.0,0.0,0.0,0.0,0.0,0.0,0.0,1.122,1.2422,1.3634,1.4522,1.4579,1.3818,1.3782,1.2475,0.9642,0.0,0.0,0.0,0.0,0.0,0.0,0.0,0.0,0.0,0.0,0.0,0.0,0.0,0.0,0.0,0.0,0.0,0.0,0.0,0.0,0.0,0.0,0.0,0.0,0.0,0.0,0.0,0.0,0.0,0.0,0.0,0.0,0.0,0.0,0.0,0.0,0.0,0.0,0.5477,0.6147,0.0,0.0,0.0,0.0,0.0,0.0,0.0,0.0,0.7852,0.0,0.0,0.0,0.0,0.0,0.0,0.0,0.0,0.0,0.0,0.0,0.0,0.0,0.0,0.0,0.0,0.0,0.0,0.0,0.0,0.0,0.0,0.0,0.0,0.0,0.0,0.0,0.0,0.0,0.0,0.0,0.0,0.0,0.0,0.0,0.0,0.0,0.0,0.0,0.0,0.0,0.0,0.0,0.0,0.0,0.0,0.0,0.0,0.0,0.0,0.0,0.0,0.0,0.0,0.0,0.0,1.0268,1.2192,1.3594,1.4482,1.5233,1.5065,1.3848,1.3782,1.2499,0.9854,0.0,0.0,0.0,0.0,0.0,0.0,0.0,0.0,0.0,0.0,0.0,0.0,0.0,0.0,0.0,0.0,0.0,0.0,0.0,0.0,0.0,0.0,0.0,0.0,0.0,0.0,0.0,0.0,0.0,0.0,0.0,0.0,0.0,0.0,0.0,0.0,0.0,0.0,0.0,0.7394,0.7817,0.0,0.0,0.0,0.0,0.0,0.0,0.0,0.0,0.7585,0.0,0.0,0.0,0.0,0.0,0.0,0.0,0.0,0.0,0.0,0.0,0.0,0.0,0.0,0.0,0.0,0.0,0.0,0.0,0.0,0.0,0.0,0.0,0.0,0.0,0.0,0.0,0.0,0.0,0.0,0.0,0.0,0.0,0.0,0.0,0.0,0.0,0.0,0.0,0.0,0.0,0.0,0.0,0.0,0.0,0.0,0.0,0.0,0.0,0.0,0.0,0.0,0.0,0.0,0.0,1.0933,1.2723,1.4168,1.5233,1.5597,1.5335,1.434,1.3651,1.2296,0.0,0.0,0.0,0.0,0.0,0.0,0.0,0.0,0.0,0.0,0.0,0.0,0.0,0.0,0.0,0.0,0.0,0.0,0.0,0.0,0.0,0.0,0.0,0.0,0.0,0.0,0.0,0.0,0.0,0.0,0.0,0.0,0.0,0.0,0.0,0.0,0.0,0.0,0.0,0.0,0.8082,0.8519,0.8945,0.0,0.0,0.0,0.0,0.0,0.0,0.8174,0.7742,0.0,0.0,0.0,0.0,0.0,0.0,0.0,0.0,0.0,0.0,0.0,0.0,0.0,0.0,0.0,0.0,0.0,0.0,0.0,0.0,0.0,0.0,0.0,0.0,0.0,0.0,0.0,0.0,0.0,0.0,0.0,0.0,0.0,0.0,0.0,0.0,0.0,0.0,0.0,0.0,0.0,0.0,0.0,0.0,0.0,0.0,0.0,0.0,0.0,0.0,0.0,0.0,0.0,0.0,0.0,1.1517,1.3034,1.4453,1.5731,1.5791,1.5492,1.4789,1.3621,1.2255,0.0,0.0,0.0,0.0,0.0,0.0,0.0,0.0,0.0,0.0,0.0,0.0,0.0,0.0,0.0,0.0,0.0,0.0,0.0,0.0,0.0,0.0,0.0,0.0,0.0,0.0,0.0,0.0,0.0,0.0,0.0,0.0,0.0,0.0,0.0,0.0,0.0,0.0,0.0,0.0,0.0,0.9191,0.9347,0.9308,0.0,0.0,0.0,0.0,0.916,0.8675,0.0,0.0,0.0,0.0,0.0,0.0,0.0,0.0,0.0,0.0,0.0,0.0,0.0,0.0,0.0,0.0,0.0,0.0,0.0,0.0,0.0,0.0,0.0,0.0,0.0,0.0,0.0,0.0,0.0,0.0,0.0,0.0,0.0,0.0,0.0,0.0,0.0,0.0,0.0,0.0,0.0,0.0,0.0,0.0,0.0,0.0,0.0,0.0,0.0,0.0,0.0,0.0,0.0,0.0,0.0,0.0,1.1567,1.3046,1.4446,1.5739,1.5791,1.5499,1.4826,1.407,1.2719,0.0,0.0,0.0,0.0,0.0,0.0,0.0,0.0,0.0,0.0,0.0,0.0,0.0,0.0,0.0,0.0,0.0,0.0,0.0,0.0,0.0,0.0,0.0,0.0,0.0,0.0,0.0,0.0,0.0,0.0,0.0,0.0,0.0,0.0,0.0,0.0,0.0,0.0,0.0,0.0,0.0,0.9825,1.0576,1.0371,1.0283,0.0,0.0,0.0,1.0146,1.0068,0.0,0.0,0.0,0.0,0.0,0.0,0.0,0.0,0.0,0.0,0.0,0.0,0.0,0.0,0.0,0.0,0.0,0.0,0.0,0.0,0.0,0.0,0.0,0.0,0.0,0.0,0.0,0.0,0.0,0.0,0.0,0.0,0.0,0.0,0.0,0.0,0.0,0.0,0.0,0.0,0.0,0.0,0.0,0.0,0.0,0.0,0.0,0.0,0.0,0.0,0.0,0.0,0.0,0.0,0.0,1.015,1.1588,1.3058,1.4453,1.5739,1.5791,1.5492,1.4826,1.3771,1.2404,0.0,0.0,0.0,0.0,0.0,0.0,0.0,0.0,0.0,0.0,0.0,0.0,0.0,0.0,0.0,0.0,0.0,0.0,0.0,0.0,0.0,0.0,0.0,0.0,0.0,0.0,0.0,0.0,0.0,0.0,0.0,0.0,0.0,0.0,0.0,0.0,0.0,0.0,0.0,0.0,0.0,0.0,1.0849,1.1191,0.0,0.0,0.0,1.1465,1.1741,0.0,0.0,0.0,0.0,0.0,0.0,0.0,0.0,0.0,0.0,0.0,0.0,0.0,0.0,0.0,0.0,0.0,0.0,0.0,0.0,0.0,0.0,0.0,0.0,0.0,0.0,0.0,0.0,0.0,0.0,0.0,0.0,0.0,0.0,0.0,0.0,0.0,0.0,0.0,0.0,0.0,0.0,0.0,0.0,0.0,0.0,0.0,0.0,0.0,0.0,0.0,0.0,0.0,0.0,0.0,0.0,0.0,1.1632,1.3076,1.4453,1.5731,1.5791,1.5552,1.5065,1.3927,0.0,0.0,0.0,0.0,0.0,0.0,0.0,0.0,0.0,0.0,0.0,0.0,0.0,0.0,0.0,0.0,0.0,0.0,0.0,0.0,0.0,0.0,0.0,0.0,0.0,0.0,0.0,0.2749,0.0,0.0,0.0,0.0,0.0,0.0,0.0,0.0,0.0,0.0,0.0,0.0,0.0,0.0,1.1152,1.1367,1.2039,1.2554,0.0,0.0,1.2808,1.3145,1.2649,1.2043,0.0,0.0,0.0,0.0,0.0,0.0,0.0,0.0,0.0,0.0,0.0,0.0,0.0,0.0,0.0,0.0,0.0,0.0,0.0,0.0,0.0,0.0,0.0,0.0,0.0,0.0,0.0,0.0,0.0,0.0,0.0,0.0,0.0,0.0,0.0,0.0,0.0,0.0,0.0,0.0,0.0,0.0,0.0,0.0,0.0,0.0,0.0,0.0,0.0,0.0,0.0,0.0,0.0,0.0,0.0,1.1755,1.3112,1.4453,1.5739,1.5791,1.5769,1.5739,1.5035,1.394,0.0,0.0,0.0,0.0,0.0,0.0,0.0,0.0,0.0,0.0,0.0,0.0,0.0,0.0,0.0,0.0,0.0,0.0,0.0,0.0,0.0,0.0,0.0,0.0,0.0,0.0,0.0,0.0,0.0,0.0,0.0,0.0,0.0,0.0,0.0,0.0,0.0,0.0,0.0,0.0,0.0,1.185,1.2661,1.3145,1.3561,0.0,0.0,1.3997,1.4016,1.3964,1.3516,1.232,0.0,0.0,0.0,0.0,0.0,0.0,0.0,0.0,0.0,0.0,0.0,0.0,0.0,0.0,0.0,0.0,0.0,0.0,0.0,0.0,0.0,0.0,0.0,0.0,0.0,0.0,0.0,0.0,0.0,0.0,0.0,0.0,0.0,0.0,0.0,0.0,0.0,0.0,0.0,0.0,0.0,0.0,0.0,0.0,0.0,0.0,0.0,0.0,0.0,0.0,0.0,0.0,0.0,1.048,1.1804,1.3118,1.4446,1.5739,1.5791,1.5791,1.5791,1.5155,1.4145,0.0,0.0,0.0,0.0,0.0,0.0,0.0,0.0,0.0,0.0,0.0,0.0,0.0,0.0,0.0,0.0,0.0,0.0,0.0,0.0,0.0,0.0,0.0,0.0,0.0,0.0,0.0,0.0,0.3647,0.3796,0.4235,0.0,0.0,0.0,0.0,0.0,0.0,0.0,0.0,0.0,0.0,1.2285,1.3145,1.4069,0.0,0.0,1.5547,1.5634,1.5488,1.5576,1.5005,1.2956,1.1339,0.0,0.0,0.0,0.0,0.0,0.0,0.0,0.0,0.0,0.0,0.0,0.0,0.0,0.0,0.0,0.0,0.0,0.0,0.0,0.0,0.0,0.0,0.0,0.0,0.0,0.0,0.0,0.0,0.0,0.0,0.0,0.0,0.0,0.0,0.0,0.0,0.0,0.0,0.0,0.0,0.0,0.0,0.0,0.0,0.0,0.0,0.0,0.0,0.0,0.0,0.0,0.0,1.0793,1.2095,1.3406,1.4669,1.5769,1.5791,1.5791,1.5799,1.5342,1.4427,0.0,0.0,0.0,0.0,0.0,0.0,0.0,0.0,0.0,0.0,0.0,0.0,0.0,0.0,0.0,0.0,0.0,0.0,0.0,0.0,0.0,0.0,0.0,0.0,0.0,0.0,0.0,0.0,0.4148,0.4223,0.464,0.0,0.0,0.0,0.0,0.0,0.0,0.0,0.0,0.0,0.0,1.2917,1.3841,1.4995,1.594,1.6435,1.6903,1.7042,1.6519,1.6381,1.5601,1.3532,0.0,0.0,0.0,0.0,0.0,0.0,0.0,0.0,0.0,0.0,0.0,0.0,0.0,0.0,0.0,0.0,0.0,0.0,0.0,0.0,0.0,0.0,0.0,0.0,0.0,0.0,0.0,0.0,0.0,0.0,0.847,0.0,0.0,0.0,0.0,0.0,0.0,0.0,0.0,0.0,0.0,0.0,0.0,0.0,0.0,0.0,0.0,0.0,0.0,0.0,0.0,0.0,0.0,0.0,1.2771,1.4077,1.5095,1.5799,1.5791,1.5791,1.5799,1.5799,1.5104,1.3693,0.0,0.0,0.0,0.0,0.0,0.0,0.0,0.0,0.0,0.0,0.0,0.0,0.0,0.0,0.0,0.0,0.0,0.0,0.0,0.0,0.0,0.0,0.0,0.0,0.0,0.0,0.5074,0.4737,0.4664,0.0,0.0,0.0,0.0,0.0,0.0,0.0,0.0,0.0,0.0,1.2371,1.3861,1.4917,1.5931,1.6825,1.7425,1.7997,1.8003,1.6991,1.6068,1.5085,0.0,0.0,0.0,0.0,0.0,0.0,0.0,0.0,0.0,0.0,0.0,0.0,0.0,0.0,0.0,0.0,0.0,0.0,0.0,0.0,0.0,0.0,0.0,0.0,0.0,0.0,0.0,1.1872,1.1527,0.0,0.0,0.0,0.0,0.0,0.0,0.0,0.0,0.0,0.0,0.0,1.5693,1.542,0.0,0.0,0.0,0.0,0.0,0.0,0.0,0.0,0.0,0.0,0.0,0.0,1.1461,1.2801,1.4113,1.5125,1.5769,1.5791,1.5791,1.5791,1.5791,1.4946,1.3148,0.0,0.0,0.0,0.0,0.0,0.0,0.0,0.0,0.0,0.0,0.0,0.0,0.0,0.0,0.0,0.0,0.0,0.0,0.0,0.0,0.0,0.0,0.0,0.0,0.0,0.5791,0.0,0.0,0.0,0.0,0.0,0.0,0.0,0.0,0.0,0.0,0.0,0.9893,1.1193,1.2598,1.4031,1.5483,1.705,1.8286,0.0,0.0,0.0,0.0,0.0,0.0,0.0,0.0,0.0,0.0,0.0,0.0,0.0,0.0,1.6693,1.4129,1.3295,1.347,1.4992,0.0,0.0,0.0,0.0,0.0,0.0,0.0,0.0,0.0,0.0,0.0,0.0,0.0,0.0,0.0,0.0,1.3954,0.0,0.0,0.0,0.0,0.0,0.0,0.0,0.0,1.8376,1.8535,1.8139,1.8131,1.8343,0.0,1.9075,1.8045,0.0,0.0,0.0,0.0,0.0,0.0,0.0,0.0,1.2502,1.3856,1.5155,1.6009,1.6436,1.6465,1.6473,1.6465,1.6031,1.5192,1.388,1.263,1.1192,0.0,0.0,0.0,0.0,0.0,0.0,0.0,0.0,0.0,0.0,0.0,0.0,0.0,0.0,0.0,0.0,0.0,0.0,0.0,0.0,0.0,0.0,0.0,0.6461,0.0,0.0,0.0,0.0,0.0,0.0,0.0,0.0,0.0,1.0863,1.0943,1.1382,1.2583,1.3906,1.5279,1.6713,0.0,0.0,0.0,0.0,0.0,0.0,0.0,1.773,1.7376,1.9441,2.0576,1.8854,1.9305,1.9873,1.9799,0.0,0.0,1.7094,1.6521,1.6718,1.7508,1.7196,1.671,1.6385,1.7035,1.7727,0.0,0.0,0.0,0.0,0.0,0.0,0.0,0.0,1.73,1.6747,0.0,1.5925,0.0,0.0,0.0,0.0,0.0,0.0,0.0,0.0,2.09,2.0853,2.0103,2.0514,2.0901,2.1271,2.1461,2.1499,2.1272,1.793,0.0,0.0,0.0,0.0,0.0,0.0,1.449,1.5739,1.6989,1.7669,1.7661,1.7699,1.7669,1.7669,1.6495,1.5851,1.5701,1.3799,1.2305,1.1455,1.0597,0.0,0.0,0.0,0.0,0.0,0.0,0.0,0.0,0.0,0.0,0.0,0.0,0.0,0.0,0.0,0.0,0.0,0.0,0.0,0.0,0.7081,0.0,0.0,0.0,0.0,0.0,0.0,0.0,0.0,0.0,0.0,1.2322,1.3045,1.3846,1.4865,0.0,0.0,0.0,0.0,2.0944,2.1924,2.2376,2.2318,2.1454,2.0114,1.9239,1.9448,0.0,0.0,2.2226,2.227,2.2478,2.2561,2.2411,2.1386,1.8883,1.9146,1.976,1.9873,1.9811,1.9635,1.9208,1.9334,1.995,2.593,0.0,0.0,0.0,0.0,2.2149,2.1923,2.154,2.1394,2.1109,2.0745,2.0745,0.0,0.0,0.0,0.0,0.0,0.0,2.1008,2.2462,2.3229,2.3373,2.3123,2.3109,2.3075,2.3006,2.3163,2.307,2.2683,2.1561,1.9492,1.6497,0.0,0.0,0.0,0.0,1.4946,1.5814,1.7041,1.7699,1.7699,1.7699,1.7699,1.7699,1.734,1.672,1.5821,1.5126,1.3938,1.2281,1.1388,0.0,0.0,0.0,0.0,0.0,0.0,0.0,0.0,0.0,0.0,0.0,0.0,0.0,0.0,0.0,0.0,0.0,0.0,0.0,0.8296,0.8675,0.8962,0.0,0.0,0.0,0.0,0.0,0.0,0.0,0.0,0.0,1.5109,1.5101,1.5523,0.0,0.0,1.9358,2.0511,2.1635,2.2598,2.3318,0.0,0.0,0.0,2.1245,2.0745,2.1619,2.3878,2.5623,2.5728,2.5816,2.5635,2.4854,2.4669,2.3982,2.2142,2.1278,2.1317,2.1906,2.1568,2.0879,2.039,2.0695,2.1257,3.0851,2.7596,2.6383,2.5863,2.5852,2.5709,2.5565,2.5356,2.5256,2.5097,2.4879,2.4914,2.419,2.3009,2.2519,0.0,0.0,0.0,2.3586,2.4729,2.5185,2.5356,2.5349,2.5479,2.5455,2.5267,2.5524,2.5496,2.5181,2.5107,2.3668,2.0886,0.0,0.0,1.6345,1.6153,1.6382,1.7022,1.8017,1.8484,1.8493,1.8484,1.8484,1.8476,1.7968,1.7348,1.6585,1.572,1.4641,1.336,1.2553,1.1508,0.0,0.0,0.0,0.0,0.0,0.0,0.0,0.0,0.0,0.0,0.0,0.6473,0.0,0.0,0.0,0.0,0.7754,0.8626,0.9744,1.026,0.0,0.0,0.0,0.0,0.0,0.0,0.0,1.269,1.4541,1.6317,1.7626,1.8253,1.8771,1.9321,2.0381,2.144,2.2313,0.0,2.3977,2.4476,2.5344,2.5403,2.3809,2.3347,2.3704,2.529,2.629,2.7119,2.7523,2.7462,2.7042,2.6414,2.5887,2.536,2.4582,2.3552,2.2975,2.3622,2.3261,2.2648,2.211,2.2611,2.3226,3.4857,3.3733,3.0821,2.95,2.9384,2.9241,2.904,2.8804,2.8701,2.8562,2.8327,2.8298,2.7877,2.7027,2.593,0.0,0.0,2.5931,2.6175,2.6877,2.6877,2.6869,2.6903,2.7562,2.7778,2.7626,2.7969,2.8114,2.8028,2.8081,2.7472,2.6041,2.1775,1.9662,1.9783,1.8755,1.8451,1.8988,1.944,1.9708,1.9768,1.9789,1.9789,1.9759,1.8484,1.775,1.7631,1.5891,1.4778,1.4579,1.3903,1.292,1.1676,0.0,0.0,0.0,0.0,0.0,0.0,0.0,0.0,0.0,0.0,0.0,0.0,0.0,0.0,0.0,0.9621,0.0,1.1261,1.185,0.0,0.0,0.0,1.2103,1.2985,1.3866,1.4157,1.3587,0.0,0.0,0.0,0.0,2.2855,2.1759,2.2782,2.3721,2.4022,2.4725,2.5271,2.5634,2.6246,2.6338,2.5493,2.6027,2.7225,2.8975,2.8775,2.8095,2.8192,2.7821,2.7469,2.7318,2.6465,2.5854,2.6399,2.5527,2.5032,2.5383,2.5178,2.4812,2.4261,2.4719,2.5392,3.6604,3.5649,3.4908,3.3844,3.2656,3.2584,3.2112,3.1402,3.1313,3.087,3.0154,3.0154,2.9674,2.874,2.7727,2.7531,2.8041,2.7669,2.787,2.8516,2.8461,2.8468,2.8468,2.8628,2.8329,2.7707,2.7623,2.7359,2.6947,2.7359,2.7202,2.6365,2.5204,2.3671,2.1746,2.0514,1.9899,1.9879,1.9752,1.9938,2.0458,2.0458,2.0458,2.0458,1.9163,1.8207,1.772,1.6749,1.5988,1.5488,1.4834,1.4092,1.3271,1.2158,0.0,0.0,0.0,0.0,0.0,0.0,0.0,0.0,0.0,0.8135,0.8668,0.0,0.8917,0.0,1.1314,1.2552,1.3094,1.3613,0.0,0.0,1.4193,1.4402,1.5441,1.5749,1.5975,1.6216,1.8273,2.0394,2.2305,2.3651,2.4466,2.4451,2.5546,2.6395,2.6464,2.6973,2.7376,2.743,2.7885,2.8085,2.7548,2.8286,2.9145,2.9704,2.9515,2.9364,2.9358,2.8907,2.8398,2.7996,2.7369,2.6859,2.6549,2.6273,2.7111,2.9094,2.8305,2.6573,2.5678,2.5932,2.6402,3.812,3.7541,3.7505,3.6954,3.6035,3.5224,3.4334,3.3497,3.3455,3.2962,3.2142,3.2135,3.1805,3.1224,3.0578,3.0348,3.0453,2.998,2.9926,3.0193,3.0076,2.9982,2.9982,2.9982,2.9548,2.8774,2.8337,2.7949,2.7666,2.7949,2.7772,2.711,2.7404,2.6415,2.4222,2.2497,2.1532,2.1353,2.0984,2.0965,2.1261,2.1203,2.1035,2.0698,1.9681,1.8702,1.7728,1.7047,1.6413,1.5821,1.5439,1.4939,1.4274,1.3413,1.2294,0.0,0.0,0.0,0.0,0.0,0.0,0.0,0.0,0.0,0.0,0.0,1.0801,0.0,1.3456,0.0,1.5321,1.5856,1.6337,1.6788,1.6747,1.6995,1.7824,1.8142,1.8153,1.77,2.0134,2.2821,2.5142,2.5753,2.6112,2.6552,2.7415,2.7821,2.7437,2.7745,2.8122,2.8122,2.8555,2.8932,2.8831,2.9377,2.9779,2.9779,2.9779,2.9779,2.9779,2.9327,2.8712,2.8197,2.7663,2.7153,2.6625,2.6499,2.7498,2.9964,3.1075,3.0338,2.8573,2.8254,2.8438,3.9357,3.9165,3.9069,3.9021,3.881,3.7301,3.6148,3.5334,3.5334,3.4864,3.413,3.41,3.4062,3.3879,3.3531,3.3224,3.2868,3.2188,3.1797,3.1663,3.1414,3.1269,3.1249,3.1239,3.0857,3.0083,2.9348,2.8976,2.8976,2.8976,2.8628,2.8027,2.8721,2.8268,2.6543,2.4629,2.3428,2.3015,2.2711,2.2497,2.2422,2.2233,2.1733,2.0976,2.0148,1.907,1.7758,1.7047,1.6465,1.5971,1.5821,1.5574,1.5052,1.4763,1.3979,0.0,1.2386,0.0,0.0,0.0,0.0,0.0,0.0,0.0,0.0,1.1774,1.2998,1.5035,1.5713,1.6457,1.7512,1.8078,1.8619,1.9133,1.9221,1.9422,1.9962,2.0477,2.0301,1.897,2.1895,2.5034,2.7451,2.7613,2.7469,2.7903,2.8411,2.8505,2.7795,2.8047,2.8423,2.8323,2.8706,2.9233,2.9578,2.9754,2.9779,2.9779,2.9779,2.9779,2.9779,2.9283,2.8756,2.8298,2.7795,2.7261,2.6725,2.6575,2.7473,3.031,3.3116,3.4094,3.1686,3.064,3.0766,3.9681,3.95,3.9427,3.9267,3.9019,3.8651,3.7925,3.7008,3.7008,3.6567,3.5833,3.5833,3.5739,3.5572,3.4797,3.4253,3.3944,3.2793,3.2231,3.2056,3.1793,3.1642,3.1513,3.1462,3.0976,3.0153,2.9376,2.8976,2.8976,2.8976,2.8908,2.8798,2.9533,2.9072,0.0,0.0,0.0,0.0,2.4325,2.46,2.4813,2.4143,2.3294,2.2324,2.0597,0.0,1.775,1.7055,1.6659,1.6525,1.6076,0.0,0.0,0.0,0.0,0.0,0.0,0.0,0.0,0.0,0.0,0.0,1.7318,1.6249,1.3977,1.4458,1.5487,1.6784,1.7412,1.7991,1.8644,1.9171,1.971,2.0314,2.039,2.0577,2.1105,2.1306,2.1493,2.2182,2.3261,2.4949,2.7228,2.7454,2.7512,2.8072,2.858,2.8787,2.8631,2.9051,2.9453,2.9497,2.9503,2.9654,2.9754,2.9779,2.9779,2.9779,2.9779,2.9779,2.9754,2.9308,2.8932,2.8731,2.8304,2.7839,2.7472,2.6901,2.7859,3.2092,3.4305,3.4747,3.236,3.1569,3.1375,4.0966,0.0,4.0332,3.9902,0.0,3.911,3.8699,3.8072,3.7676,3.7044,3.6303,3.6303,3.6245,3.6128,3.525,3.4746,3.448,3.2901,3.2327,3.2491,3.1854,3.1681,3.194,3.1731,3.1196,3.0338,2.944,2.8976,2.8976,2.8976,2.8976,2.9019,2.9736,2.9505,2.8363,2.7841,2.6957,2.5626,2.5718,2.5968,2.6293,2.5425,2.444,2.3362,0.0,0.0,0.0,0.0,0.0,0.0,0.0,0.0,0.0,0.0,0.0,1.6403,1.6246,1.637,1.6966,1.8055,1.8959,1.9617,2.0135,1.9413,1.7188,1.7208,1.7802,1.8906,1.9271,1.9648,2.0188,2.0464,2.0879,2.1407,2.1482,2.1708,2.2207,2.2548,2.296,2.3572,2.4315,2.5527,2.7329,2.7706,2.7921,2.843,2.8982,2.9333,2.9377,2.9603,2.9779,2.9779,2.9779,2.9779,2.9779,2.9779,2.9779,2.9779,2.9779,2.9779,2.9779,2.9649,2.9448,2.9238,2.9045,2.885,2.8472,2.7815,2.8471,3.2086,3.4351,3.5148,3.3908,3.3087,3.2504,4.2278,4.1378,4.125,4.0483,3.9433,3.9219,3.8971,3.8652,0.0,0.0,0.0,3.6714,3.6707,3.6677,3.5819,3.5307,3.4922,3.3241,3.2724,3.3127,3.2232,3.2165,3.2773,3.2327,3.1693,3.0907,2.9742,2.9271,2.9382,2.9247,2.9237,2.945,3.0006,2.9905,2.9213,2.8416,2.7854,2.7552,2.7149,2.72,2.771,2.6746,2.5654,2.4467,2.3516,2.2094,2.0136,1.9938,1.9361,1.8288,1.8117,1.8125,1.8228,1.8075,1.8289,1.8915,1.8873,1.9172,1.9934,2.0901,2.1613,2.1899,2.2564,2.2184,2.0337,1.9821,2.0041,2.1068,2.1246,2.1525,2.2068,2.2105,2.2318,2.282,2.2852,2.3024,2.3407,2.3853,2.418,2.449,2.5109,2.608,2.7346,2.7846,2.8323,2.8831,2.9358,2.9779,2.9779,2.9779,2.9779,2.9779,2.9779,2.9779,2.9779,2.9779,2.9779,2.9779,2.9779,2.9779,2.9818,2.9991,3.0056,2.9921,3.0003,3.0069,2.9891,2.9248,2.9595,3.2182,3.4159,3.5489,3.54,3.4516,3.3663,4.2539,4.1703,4.1528,4.0734,3.9565,3.9351,3.9027,3.8689,3.8579,3.8469,3.8351,3.8358,3.8358,3.8322,3.7522,3.6699,3.5864,3.4812,3.4315,0.0,3.4047,3.4154,3.4622,3.3635,3.2969,3.2455,3.0782,3.0277,3.0751,3.0234,3.0277,3.0828,3.0987,3.0649,2.9973,2.9194,2.9099,2.9623,2.8748,2.882,2.9821,2.8747,2.7529,2.6189,2.4747,2.3193,2.1505,2.0877,2.0488,2.027,1.972,1.9699,2.021,1.974,1.9941,2.1117,2.1217,2.1973,2.3669,2.3985,2.4726,2.6176,2.7031,2.5901,2.2271,2.193,2.2256,2.2895,2.3377,2.3855,2.4406,2.4484,2.4606,2.4999,2.4957,2.4851,2.4776,2.4702,2.4842,2.5285,2.5485,2.6038,2.711,2.7763,2.8273,2.8831,2.9408,2.9804,2.9829,2.9779,2.9779,2.9779,2.9779,2.9779,2.9837,2.9824,2.9856,2.9779,2.9837,2.9876,2.9895,3.0222,3.0538,3.0921,3.1256,3.1604,3.1917,3.1294,3.1622,3.3362,3.4747,3.5457,3.5489,3.4877,3.4338,4.3936,4.318,4.2995,4.2186,4.1021,4.0693,4.0427,4.0274,4.0266,3.9674,3.8726,3.8681,3.8681,3.8608,3.786,3.725,3.6809,3.5484,3.5111,3.5484,3.4965,3.4958,3.5313,3.4143,3.3388,3.2954,3.1462,3.0852,3.1123,3.0852,3.0862,3.119,3.119,3.0818,3.0132,2.977,2.9779,3.0065,2.9575,2.9708,3.0464,2.9429,2.8447,2.7482,2.5873,2.4369,2.301,2.2255,2.1664,2.1266,2.0946,2.0917,2.1216,2.1285,2.1744,2.2662,2.3071,2.3808,2.5053,2.5824,2.6696,2.7737,2.8361,2.7875,2.5913,2.5342,2.5196,2.5438,2.5707,2.5951,2.6222,2.6261,2.6265,2.6287,2.5959,2.5631,2.5425,2.5311,2.5335,2.5586,2.5904,2.6298,2.6801,2.7336,2.7971,2.8674,2.9377,2.9899,3.02,3.0231,3.015,2.988,2.9779,2.9895,3.0088,3.0337,3.0432,3.0451,3.0451,3.0451,3.0463,3.0861,3.1339,3.1791,3.2282,3.2747,3.3196,3.309,3.337,3.3939,3.4922,3.5424,3.5429,3.522,3.4831,4.509,4.4308,4.4187,4.3446,4.231,4.1903,4.1729,4.1691,4.1691,4.0864,3.9527,3.9363,3.9286,3.9189,3.8418,3.7933,3.7595,3.6222,3.5929,3.645,3.5892,3.5842,3.6169,3.4949,3.4129,3.3698,3.2475,3.1846,3.1827,3.1797,3.1656,3.1471,3.1437,3.1089,3.0369,3.0345,3.0345,3.0335,3.0268,3.0387,3.0754,2.9967,2.9257,2.8705,2.719,2.5821,2.4643,2.375,2.2948,2.2183,2.2263,2.2343,2.2383,2.2992,2.368,2.4429,2.4986,2.5663,2.6482,2.7572,2.8444,2.8833,2.9239,2.9456,2.9285,2.8699,2.809,2.7829,2.7885,2.7999,2.7938,2.7798,2.7664,2.7501,2.7039,2.6658,2.628,2.6112,2.6021,2.6088,2.6443,2.6714,2.6789,2.7288,2.8178,2.9161,2.9713,3.0271,3.0759,3.0885,3.0728,3.0486,3.011,3.0246,3.0778,3.1751,3.2051,3.1886,3.1883,3.1955,3.2022,3.2295,3.2746,3.3264,3.3719,3.4269,3.4565,3.4753,3.5032,3.5356,3.5898,3.6161,3.6088,3.6028,3.5429,4.509,4.4346,4.4262,4.3545,4.2563,4.2231,4.2127,4.2134,4.2058,4.1946,4.1645,4.1238,4.1009,4.0856,4.0021,3.9247,3.8542,3.7669,3.7309,3.7382,3.7301,3.7532,3.7838,3.6723,3.599,3.5547,3.4374,3.3633,3.3525,3.3488,3.3063,3.2313,3.2192,3.1819,3.1157,3.1099,3.1089,3.1089,3.1079,3.1103,3.1141,3.0885,3.0534,3.0093,2.8929,2.7668,2.6315,2.5435,2.4511,2.3593,2.3999,2.4306,2.4365,2.4975,2.5884,2.7046,2.7255,2.7884,2.9069,2.9864,3.0179,3.0345,3.081,3.1155,3.1141,3.1099,3.047,2.9535,2.9764,3.0023,2.9839,2.9397,2.9163,2.9213,2.8801,2.8431,2.8013,2.7624,2.7328,2.7311,2.743,2.7348,2.73,2.8317,2.9552,3.0484,3.0798,3.119,3.1784,3.1914,3.2123,3.2045,3.1092,3.0893,3.2272,3.4268,3.4613,3.4297,3.4213,3.4093,3.4066,3.4372,3.4989,3.5003,3.5767,3.6172,3.6542,3.6837,3.6624,3.6692,3.714,3.7597,3.7327,3.7088,3.6387,4.5398,4.5086,4.4985,4.4657,4.408,4.3937,4.3874,4.3874,4.3874,4.3785,4.363,4.324,4.2433,4.1286,4.0325,3.9724,3.9386,3.8586,3.8219,3.8212,3.8212,3.8259,3.8227,3.7186,3.651,3.6203,3.5117,3.4508,3.4346,3.4007,3.3325,3.2391,3.2293,3.1911,3.1258,3.119,3.119,3.119,3.119,3.119,3.1171,3.1052,3.0808,3.0452,2.9483,2.8511,2.7579,2.6612,2.5733,2.5088,2.5206,2.5265,2.5214,2.5824,2.6614,2.7555,2.8364,2.9009,2.9548,3.0177,3.0478,3.0478,3.1122,3.1511,3.1511,3.1511,3.1336,3.1309,3.1589,3.1766,3.1513,3.1293,3.0998,3.0506,2.998,2.9548,2.9204,2.8712,2.839,2.8417,2.872,2.8521,2.8115,3.0047,3.1586,3.172,3.1721,3.2253,3.3155,3.339,3.3796,3.4433,3.4011,3.3244,3.3298,3.477,3.5886,3.6015,3.5624,3.5317,3.5419,3.5599,3.596,3.6328,3.6781,3.7126,3.7207,3.7298,3.7255,3.7524,3.7494,3.7597,3.7434,3.7387,3.687,4.5594,4.5586,4.5555,4.5438,4.5326,4.525,4.5251,4.5251,4.5213,4.5142,4.4926,4.4557,4.357,4.2143,4.1051,4.0569,4.0459,3.9709,3.9342,3.9342,3.9129,3.8941,3.8688,3.7713,3.7097,3.6829,3.6139,3.5599,3.5333,3.4886,3.4078,3.3148,3.2795,3.229,3.1549,3.1326,3.119,3.119,3.119,3.1302,3.1461,3.1415,3.1305,3.1119,3.0528,2.9866,2.9178,2.8293,2.7469,2.6746,2.6712,2.6621,2.6477,2.7063,2.7722,2.838,2.9475,3.0133,3.0147,3.0687,3.1046,3.1106,3.1675,3.2063,3.1989,3.172,3.1989,3.2961,3.3349,3.3349,3.2572,3.2512,3.2139,3.1427,3.0951,3.066,3.0553,2.9989,2.9565,2.9608,2.9911,3.0039,2.9667,3.1763,3.3431,3.2649,3.2734,3.3386,3.4446,3.4762,3.5152,3.637,3.6593,3.5922,3.4457,3.5929,3.7252,3.747,3.7168,3.6943,3.6773,3.7025,3.7168,3.7771,3.7765,3.7858,3.819,3.8075,3.7913,3.7943,3.7973,3.7956,3.8135,3.7985,3.77,4.5594,4.5594,4.559,4.5581,4.5577,4.5564,4.5564,4.5541,4.5559,4.5453,4.5219,4.4801,4.4394,4.3893,4.2651,4.2184,4.2029,4.125,4.0846,4.0765,4.012,3.9779,3.9674,3.8708,3.8148,3.7948,3.7634,3.731,3.6917,3.6591,3.5894,3.4777,3.3935,3.3107,3.2246,3.1582,3.1234,3.12,3.119,3.1505,3.2114,3.2215,3.2239,3.23,3.2629,3.2262,3.1374,3.0846,2.9925,2.8525,2.8805,2.8824,2.8565,2.9052,2.9665,3.0267,3.0987,3.1361,3.1391,3.1944,3.2303,3.2422,3.2841,3.3365,3.3155,3.2303,3.2482,3.4204,3.4801,3.4486,3.2961,3.2751,3.2572,3.2287,3.1941,3.193,3.2283,3.1462,3.0997,3.0952,3.107,3.1581,3.2457,3.3626,3.416,3.3876,3.3779,3.4282,3.5357,3.5692,3.631,3.7262,3.7796,3.7814,3.731,3.775,3.8725,3.8906,3.8649,3.8924,3.9163,3.9277,3.917,3.9092,3.8961,3.8979,3.9224,3.9242,3.9122,3.9062,3.9002,3.9032,3.8864,3.917,3.8855,4.5594,4.5594,4.5594,4.5594,4.5594,4.5594,4.5594,4.5594,4.5594,4.55,4.5309,4.4922,4.4579,4.4285,4.3571,4.2901,4.2249,4.147,4.1095,4.0993,4.0267,3.9892,3.9779,3.8983,3.8533,3.8465,3.8393,3.811,3.7632,3.7265,3.6435,3.531,3.472,3.3796,3.2513,3.2056,3.1674,3.1258,3.119,3.1539,3.2327,3.2747,3.3231,3.366,3.3397,3.2958,3.2419,3.1999,3.1366,3.0437,3.0385,3.0159,2.9842,3.0213,3.0544,3.0719,3.1193,3.1511,3.157,3.2138,3.2512,3.2542,3.3125,3.3544,3.3455,3.3095,3.3305,3.4338,3.51,3.4861,3.4143,3.3769,3.3559,3.3139,3.2972,3.2925,3.3026,3.28,3.2575,3.2634,3.2855,3.3606,3.4561,3.5136,3.5211,3.5465,3.552,3.5839,3.6563,3.714,3.7628,3.8465,3.8852,3.8889,3.8741,3.8804,3.9199,3.9319,3.9307,3.9229,3.9373,3.9373,3.9247,3.9247,3.9373,3.9391,3.9361,3.9361,3.9421,3.9421,3.9421,3.9445,3.9571,3.9696,3.9334,4.5594,4.5594,4.5594,4.5594,4.5594,4.5594,4.5594,4.5594,4.5594,4.5518,4.5365,4.5043,4.4751,4.4452,4.4079,4.3496,4.2779,4.2181,4.1874,4.1801,4.1038,4.0679,4.0524,3.9856,3.9489,3.9481,3.9465,3.9126,3.8457,3.808,3.7201,3.5938,3.5426,3.45,3.3305,3.2873,3.2425,3.1989,3.1901,3.2273,3.297,3.3491,3.41,3.4664,3.4328,3.3949,3.3762,3.3471,3.3069,3.2482,3.2165,3.1804,3.14,3.1432,3.1528,3.159,3.1729,3.1944,3.2183,3.2751,3.3155,3.3185,3.3754,3.4143,3.4143,3.4143,3.4398,3.4817,3.519,3.528,3.4951,3.4817,3.4532,3.3963,3.3829,3.3903,3.4113,3.3948,3.3828,3.3797,3.3976,3.4815,3.5835,3.5682,3.5696,3.6134,3.6178,3.6477,3.7285,3.7764,3.8452,3.9212,3.9319,3.9319,3.9192,3.921,3.9265,3.9355,3.9421,3.9421,3.9421,3.9421,3.9421,3.9421,3.9421,3.9421,3.9421,3.9421,3.9391,3.9391,3.9409,3.9463,3.9732,4.0056,3.9879,4.5671,4.5748,4.5633,4.5787,4.5859,4.5859,4.571,4.5782,4.5782,4.5806,4.5736,4.5338,4.5203,4.4732,4.4406,4.4025,4.3733,4.343,4.3266,4.3176,4.247,4.2103,4.2021,4.1213,4.0838,4.0875,4.0919,4.0401,3.9414,3.9039,3.8266,3.7078,3.6091,3.5352,3.4801,3.399,3.3515,3.3241,3.3152,3.366,3.437,3.4472,3.4912,3.5611,3.5633,3.5588,3.5566,3.5294,3.4848,3.446,3.4215,3.3865,3.3103,3.281,3.277,3.2967,3.2762,3.2886,3.3411,3.4025,3.4341,3.4399,3.5027,3.528,3.522,3.528,3.534,3.537,3.5459,3.5459,3.5429,3.54,3.516,3.4637,3.4488,3.4757,3.507,3.4861,3.4488,3.4488,3.4578,3.4817,3.531,3.5519,3.5579,3.5729,3.5789,3.6148,3.7195,3.7614,3.8093,3.9002,3.9421,3.9421,3.9421,3.9403,3.9373,3.9421,3.9421,3.9421,3.9421,3.9421,3.9421,3.9421,3.9421,3.9421,3.9421,3.9391,3.9481,3.9499,3.9499,3.9732,4.0143,4.0537,4.0735,4.7317,4.7317,4.7317,4.7317,4.7317,4.7317,4.7317,4.7317,4.7317,4.7323,4.7247,4.7098,4.6587,4.5828,4.5413,4.4825,4.4102,4.3841,4.3625,4.3385,4.2698,4.2314,4.2168,4.1507,4.1095,4.1095,4.1079,4.0643,3.9902,3.9537,3.8793,3.7748,3.7108,3.6239,3.5275,3.4741,3.4249,3.3478,3.3389,3.3987,3.5103,3.5273,3.5847,3.7031,3.7166,3.7166,3.7133,3.607,3.5325,3.4977,3.4754,3.4403,3.3976,3.3874,3.3891,3.3852,3.3905,3.386,3.403,3.45,3.4831,3.4797,3.5181,3.5459,3.5489,3.5489,3.5489,3.5489,3.5489,3.5489,3.5489,3.5489,3.537,3.522,3.519,3.522,3.5429,3.531,3.519,3.519,3.519,3.531,3.5429,3.5489,3.5669,3.6028,3.6088,3.6477,3.7225,3.7734,3.8344,3.9212,3.9331,3.9421,3.9421,3.9421,3.9421,3.9421,3.9421,3.9421,3.9421,3.9421,3.9421,3.9421,3.9421,3.9421,3.9421,3.9463,3.9589,3.9897,4.013,4.0443,4.0834,4.1151,4.147,4.8082,4.8082,4.8082,4.8082,4.8082,4.8082,4.8082,4.8082,4.8082,4.8106,4.8068,4.8014,4.7606,4.6898,4.6271,4.5599,4.485,4.4212,4.3816,4.3585,4.3054,4.2772,4.2698,4.2286,4.1984,4.1992,4.1984,4.1589,4.0818,4.0605,4.0028,3.9081,3.8609,3.778,3.6531,3.62,3.5576,3.4646,3.4493,3.4984,3.5881,3.6107,3.6671,3.7719,3.791,3.791,3.7809,3.6893,3.6316,3.6142,3.6047,3.5808,3.5436,3.5402,3.534,3.5368,3.531,3.5358,3.5406,3.5584,3.5492,3.5365,3.5427,3.5489,3.5489,3.5489,3.5489,3.5489,3.5489,3.5489,3.5489,3.5489,3.5489,3.5489,3.5459,3.5489,3.5489,3.5489,3.5489,3.5459,3.5459,3.5489,3.5489,3.5519,3.5669,3.6058,3.6118,3.6507,3.7165,3.7734,3.8404,3.9032,3.9361,3.9421,3.9421,3.9421,3.9421,3.9421,3.9421,3.9421,3.9421,3.9421,3.9421,3.9421,3.9421,3.9421,3.9421,3.9655,3.9803,4.0266,4.111,4.1476,4.1933,4.2158,4.2484,4.8274,4.8235,4.8274,4.8389,4.8389,4.8394,4.8432,4.8351,4.8351,4.8428,4.8385,4.8491,4.8251,4.7877,4.7084,4.6502,4.5911,4.4966,4.4428,4.4222,4.3905,4.3687,4.3359,4.3249,4.3212,4.3249,4.3322,4.2947,4.2066,4.1962,4.1705,4.0576,4.0122,3.9539,3.8299,3.8084,3.7319,3.6281,3.6159,3.6444,3.7102,3.707,3.7374,3.8103,3.8181,3.8215,3.8181,3.8067,3.7944,3.7877,3.7648,3.7461,3.7388,3.7078,3.6967,3.7205,3.7054,3.7061,3.7191,3.6824,3.6476,3.6229,3.5849,3.5568,3.5635,3.5683,3.5683,3.5667,3.5651,3.5633,3.5693,3.572,3.5734,3.5639,3.5609,3.5549,3.5549,3.5609,3.5639,3.5579,3.5519,3.5549,3.5609,3.5609,3.5759,3.5729,3.5848,3.6507,3.7028,3.7656,3.8075,3.8584,3.9092,3.9302,3.9272,3.9421,3.9421,3.9421,3.9421,3.9439,3.9493,3.9481,3.9571,3.9553,3.9643,3.9571,3.9607,3.991,4.099,4.2269,4.2755,4.2879,4.291,4.3001,4.3199,5.0014,5.0014,5.0014,5.0014,5.0014,5.0014,4.9976,5.0014,4.9976,4.9899,4.9976,5.0014,4.9558,4.8951,4.8525,4.7945,4.7143,4.6471,4.6121,4.5913,4.5633,4.4674,4.3716,4.3506,4.3506,4.3506,4.3469,4.3102,4.2351,4.2334,4.1889,4.1004,4.0874,4.0121,3.9022,3.8827,3.8048,3.7113,3.6826,3.7269,3.8065,3.8105,3.8524,3.9414,3.9469,3.9457,3.9491,3.9525,3.8949,3.7978,3.791,3.7817,3.7782,3.7845,3.7936,3.7972,3.8185,3.8182,3.8005,3.7618,3.722,3.6937,3.6538,3.6226,3.621,3.6226,3.6241,3.6241,3.6241,3.6393,3.6631,3.6667,3.6715,3.6767,3.6148,3.5789,3.6118,3.6207,3.6058,3.5699,3.6311,3.6327,3.6028,3.6237,3.6596,3.6357,3.6537,3.6909,3.7357,3.7537,3.7985,3.8272,3.8691,3.8973,3.9182,3.9331,3.9421,3.9421,3.9439,3.9535,3.9631,3.9696,3.9857,3.9968,4.0301,4.0322,4.0301,4.0422,4.211,4.3684,4.3699,4.3472,4.3443,4.3502,4.371,5.0707,5.0707,5.0707,5.0707,5.0707,5.0707,5.0707,5.0707,5.0707,5.0707,5.0707,5.0707,5.0385,4.9889,4.9406,4.8886,4.8224,4.7567,4.7119,4.6884,4.6405,4.5395,4.4256,4.3718,4.3506,4.3506,4.3506,4.324,4.2873,4.28,4.2543,4.2216,4.1976,4.1311,4.0428,4.014,3.9552,3.8657,3.8296,3.8612,3.9344,3.9234,3.949,4.0124,4.0226,4.0163,4.0125,4.0079,3.966,3.9017,3.8836,3.8777,3.8725,3.8925,3.9033,3.8956,3.9222,3.9209,3.8884,3.8418,3.8037,3.7738,3.7311,3.7103,3.7073,3.7058,3.7058,3.7073,3.7042,3.7295,3.756,3.7595,3.7502,3.728,3.6746,3.6493,3.6883,3.6896,3.6716,3.6596,3.6849,3.7178,3.634,3.6998,3.6985,3.6776,3.6956,3.7375,3.7793,3.7823,3.7943,3.8362,3.8691,3.9032,3.9242,3.9361,4.0407,4.0407,4.0611,4.0509,4.0277,4.0344,4.0418,4.0712,4.0953,4.1074,4.0956,4.1227,4.2552,4.3621,4.386,4.4102,4.4106,4.4267,4.4418,5.0721,5.0678,5.0673,5.0707,5.0707,5.0707,5.0707,5.0707,5.0707,5.0707,5.0707,5.0707,5.063,5.0673,4.9913,4.9451,4.9273,4.8487,4.7934,4.7535,4.6948,4.6032,4.5165,4.4176,4.369,4.3543,4.3506,4.3469,4.3359,4.3396,4.3469,4.3232,4.3273,4.2801,4.183,4.1633,4.1216,4.0293,3.9858,3.9977,4.0384,4.0249,4.0272,4.0426,4.03,4.0201,4.0125,4.0113,4.0011,4.0079,4.0113,3.9965,3.9999,4.0066,4.0054,3.9961,3.9919,3.985,3.9644,3.9129,3.8786,3.8488,3.8108,3.7972,3.804,3.8089,3.8185,3.836,3.8179,3.8457,3.8652,3.8632,3.8474,3.8201,3.7846,3.77,3.7665,3.7571,3.7524,3.7614,3.7627,3.7614,3.7447,3.7447,3.7404,3.7075,3.7375,3.8003,3.8182,3.8123,3.8392,3.8781,3.9002,3.9212,3.9331,3.9391,4.0835,4.1837,4.2257,4.2235,4.1596,4.1485,4.1375,4.1501,4.1881,4.1816,4.1408,4.211,4.3247,4.4242,4.4942,4.4966,4.4916,4.5125,4.5332,5.0763,5.0682,5.0683,5.0707,5.0707,5.0707,5.0707,5.0707,5.0707,5.0707,5.0707,5.0707,5.0707,5.0707,5.0438,5.0365,5.0218,4.9778,4.9542,4.891,4.8008,4.7375,4.652,4.5247,4.4167,4.3763,4.3543,4.3543,4.3579,4.3616,4.3506,4.3534,4.348,4.3087,4.2376,4.2215,4.1756,4.1022,4.0767,4.0899,4.1111,4.0948,4.0808,4.0792,4.038,4.0163,4.0125,4.0113,4.0113,4.0113,4.0113,4.0113,4.0113,4.0113,4.0113,4.0113,4.0113,4.0037,3.9833,3.9526,3.9229,3.9055,3.8843,3.8837,3.9387,3.9401,3.9728,4.0119,4.0333,4.0201,4.0194,4.0494,4.0188,3.975,3.949,3.9395,3.9282,3.8675,3.8457,3.8733,3.8871,3.8601,3.7661,3.8487,3.8277,3.7631,3.7948,3.8619,3.8792,3.8785,3.9018,3.9528,3.951,3.9714,3.9757,4.0429,4.2406,4.3654,4.4135,4.4267,4.3583,4.298,4.2988,4.2945,4.2941,4.2669,4.2349,4.2791,4.3872,4.4946,4.594,4.5872,4.5887,4.6056,4.6022,5.0795,5.076,5.0712,5.0707,5.0707,5.0707,5.0707,5.0707,5.0707,5.0707,5.0707,5.0707,5.0707,5.0707,5.0707,5.0649,5.0642,5.0511,5.0203,4.969,4.8993,4.8306,4.751,4.6537,4.5557,4.4744,4.4644,4.4644,4.4571,4.4232,4.4121,4.4011,4.3718,4.3351,4.291,4.2837,4.2673,4.2354,4.2086,4.2076,4.2084,4.1868,4.1396,4.1047,4.0551,4.0241,4.0201,4.0138,4.0113,4.0113,4.0113,4.0113,4.0113,4.0113,4.0113,4.0113,4.0113,4.0087,3.9914,3.9825,3.9709,3.9651,3.9474,3.9881,4.0287,4.0506,4.0886,4.1386,4.1563,4.1541,4.1465,4.1788,4.1627,4.0852,4.0458,4.0048,3.9491,3.9117,3.9049,3.9373,3.9391,3.8981,3.8822,3.938,3.9672,3.9207,3.976,4.0413,4.0743,4.0687,4.0286,4.0395,4.0238,4.0221,4.0264,4.1581,4.4233,4.5481,4.632,4.6336,4.6026,4.5343,4.4771,4.4519,4.4144,4.3913,4.3713,4.415,4.4518,4.5751,4.6515,4.6684,4.6718,4.6631,4.6563,5.0874,5.0819,5.0753,5.0731,5.0678,5.0673,5.0707,5.0707,5.0707,5.0707,5.0707,5.0707,5.0707,5.0707,5.0707,5.0707,5.0678,5.0568,5.0308,5.0055,4.9779,4.8987,4.8156,4.7659,4.7147,4.6324,4.5847,4.5736,4.5553,4.525,4.4773,4.459,4.4048,4.3616,4.3506,4.3469,4.3359,4.3232,4.3171,4.3112,4.2987,4.2734,4.219,4.1432,4.0837,4.05,4.0375,4.0192,4.0113,4.0113,4.0113,4.0113,4.0113,4.0113,4.0113,4.0113,4.0113,4.0202,4.0345,4.0345,4.0333,4.0371,4.0447,4.0806,4.1341,4.166,4.2018,4.2416,4.2719,4.2604,4.2499,4.2672,4.2322,4.1579,4.0992,4.0228,3.9505,3.9627,3.9798,3.9403,3.9432,3.9135,3.9619,4.0197,4.055,4.0997,4.162,4.2102,4.2443,4.2461,4.1986,4.1759,4.1717,4.1366,4.1321,4.2628,4.5321,4.6799,4.7899,4.7833,4.7701,4.7003,4.6171,4.5663,4.5288,4.4985,4.4581,4.4417,4.5101,4.6447,4.7293,4.7631,4.753,4.7192,4.7192,5.1046,5.0942,5.0829,5.0733,5.0726,5.0688,5.0707,5.0707,5.0707,5.0707,5.0707,5.0707,5.0707,5.0707,5.0707,5.0707,5.0687,5.0594,5.0511,5.0329,5.0044,4.9462,4.8923,4.8592,4.8243,4.7666,4.6801,4.614,4.6067,4.5736,4.5434,4.4847,4.459,4.4268,4.38,4.3506,4.3726,4.38,4.3664,4.3538,4.3458,4.3123,4.2681,4.1846,4.123,4.0837,4.0561,4.0279,4.0113,4.0113,4.0113,4.0146,4.0261,4.0261,4.0214,4.0113,4.0113,4.0316,4.0764,4.0967,4.1339,4.1758,4.1792,4.2198,4.2713,4.2983,4.3166,4.3713,4.39,4.3795,4.3554,4.3577,4.329,4.2762,4.2421,4.1932,4.1373,4.1055,4.0694,4.0112,3.9751,3.9746,4.0611,4.1473,4.2231,4.2796,4.3326,4.3756,4.4074,4.3949,4.3555,4.3446,4.3384,4.2907,4.2522,4.4179,4.6176,4.7693,4.859,4.8574,4.8388,4.806,4.7496,4.6952,4.6327,4.5853,4.5384,4.4973,4.5684,4.6989,4.7834,4.8646,4.8342,4.8037,4.8274,5.1122,5.11,5.0928,5.0803,5.0764,5.0712,5.0707,5.0707,5.0707,5.0707,5.0707,5.0707,5.0707,5.0707,5.0707,5.0707,5.0697,5.0682,5.0599,5.0505,5.0259,4.9882,4.9363,4.911,4.8721,4.8218,4.7498,4.7095,4.7095,4.6718,4.6315,4.5984,4.5581,4.5112,4.4828,4.4828,4.4718,4.4635,4.4305,4.4085,4.3994,4.3488,4.2816,4.2307,4.1696,4.1242,4.1059,4.1128,4.1044,4.1072,4.1282,4.1389,4.1312,4.1167,4.0891,4.0316,4.018,4.0472,4.1068,4.1225,4.1508,4.2151,4.232,4.2658,4.3152,4.3423,4.3809,4.4336,4.4525,4.4398,4.4207,4.4442,4.4388,4.4042,4.3878,4.3502,4.2839,4.2413,4.1845,4.1306,4.1358,4.1596,4.1977,4.2918,4.3892,4.4559,4.5113,4.5406,4.5698,4.5504,4.5179,4.5033,4.4968,4.4784,4.455,4.5846,4.6894,4.8243,4.9018,4.9018,4.8951,4.8529,4.8431,4.8235,4.7567,4.6733,4.6394,4.6056,4.6786,4.7462,4.824,4.8849,4.8951,4.8984,4.9018,5.1219,5.122,5.102,5.0885,5.0827,5.0767,5.0697,5.0683,5.0673,5.0707,5.0707,5.0707,5.0707,5.0707,5.0707,5.0707,5.0707,5.0707,5.0697,5.0614,5.0429,5.0012,4.9606,4.924,4.8913,4.843,4.8244,4.8316,4.8012,4.7599,4.7296,4.6856,4.6315,4.5993,4.581,4.5635,4.5883,4.5663,4.5104,4.47,4.4234,4.3597,4.2985,4.2727,4.2185,4.1899,4.1963,4.2044,4.2203,4.2311,4.2505,4.2693,4.2568,4.2406,4.1724,4.079,4.054,4.0946,4.1474,4.1732,4.2219,4.2929,4.2841,4.3132,4.3436,4.3829,4.4012,4.4601,4.4635,4.4722,4.4868,4.5317,4.5302,4.5096,4.5081,4.5098,4.4311,4.3782,4.3506,4.3217,4.3242,4.3549,4.4024,4.4578,4.5619,4.6434,4.6941,4.7024,4.724,4.7124,4.6876,4.6645,4.6563,4.6613,4.6846,4.7584,4.8196,4.8599,4.9018,4.9018,4.9018,4.8917,4.8886,4.8837,4.8345,4.7564,4.7293,4.7225,4.7767,4.8308,4.8781,4.9018,4.9018,4.9034,4.9049,5.133,5.128,5.1133,5.102,5.0949,5.0841,5.0772,5.0692,5.0693,5.0707,5.0707,5.0707,5.0707,5.0707,5.0707,5.0707,5.0707,5.0707,5.0707,5.0639,5.0478,5.0156,4.9783,4.9499,4.9081,4.8623,4.8486,4.8419,4.8288,4.815,4.7783,4.7259,4.7039,4.6682,4.6287,4.6287,4.5883,4.581,4.5186,4.4452,4.3864,4.3601,4.3423,4.3159,4.2948,4.2915,4.3225,4.3235,4.3249,4.3606,4.3378,4.3187,4.2864,4.2477,4.2306,4.2097,4.213,4.2367,4.2848,4.2882,4.3234,4.3822,4.4093,4.433,4.433,4.4451,4.4722,4.5418,4.5108,4.5041,4.5466,4.5703,4.5669,4.5896,4.6199,4.623,4.579,4.5714,4.5393,4.5269,4.5342,4.5734,4.619,4.6725,4.734,4.8091,4.8664,4.8635,4.8572,4.8261,4.8162,4.7849,4.755,4.7602,4.7769,4.8715,4.8925,4.9018,4.9154,4.912,4.9052,4.9086,4.9154,4.8984,4.8612,4.8612,4.8578,4.8646,4.8815,4.8883,4.8984,4.9018,4.9018,4.9034,4.9065,5.1397,5.1376,5.1206,5.1133,5.1109,5.0942,5.0807,5.0769,5.0716,5.0707,5.0707,5.0707,5.0707,5.0707,5.0707,5.0707,5.0707,5.0707,5.0707,5.0649,5.0521,5.0262,4.9974,4.9672,4.9285,4.8876,4.865,4.8486,4.8382,4.8306,4.8076,4.7856,4.7746,4.7672,4.7085,4.7241,4.7269,4.6938,4.6104,4.5039,4.4378,4.4149,4.4133,4.4017,4.4132,4.4357,4.4504,4.477,4.4774,4.5006,4.4906,4.4897,4.4621,4.4324,4.405,4.4063,4.405,4.3856,4.3457,4.345,4.389,4.4364,4.4615,4.4533,4.4682,4.5041,4.5297,4.5621,4.5805,4.6007,4.6346,4.6703,4.6872,4.7094,4.7286,4.7514,4.7546,4.7665,4.7559,4.7483,4.7456,4.7723,4.7957,4.8135,4.8292,4.8448,4.884,4.8842,4.8827,4.8778,4.8744,4.8775,4.8523,4.8354,4.8526,4.8987,4.9024,4.9187,4.9627,4.9526,4.9221,4.9187,4.9458,4.9627,4.9526,4.9593,4.9763,4.939,4.9018,4.8984,4.9018,4.9203,4.9388,4.9197,4.9335,5.1406,5.1401,5.1302,5.122,5.1215,5.1011,5.0905,5.0803,5.074,5.0707,5.0707,5.0707,5.0707,5.0707,5.0707,5.0707,5.0707,5.0707,5.0707,5.0634,5.0568,5.0396,5.0168,4.9915,4.9543,4.9056,4.8885,4.8677,4.8476,4.8363,4.8335,4.8306,4.8186,4.8223,4.826,4.8113,4.8003,4.7562,4.6718,4.5801,4.5149,4.5002,4.4994,4.5059,4.5323,4.5646,4.5804,4.6047,4.6168,4.6439,4.6393,4.6306,4.6091,4.5678,4.5452,4.5439,4.5427,4.5109,4.4464,4.4176,4.4197,4.4453,4.4886,4.5074,4.5345,4.5703,4.6177,4.6365,4.6413,4.6752,4.7124,4.7549,4.7616,4.7887,4.8345,4.8748,4.8969,4.8655,4.8778,4.8987,4.8991,4.9338,4.9506,4.9472,4.9367,4.9055,4.9018,4.9052,4.9086,4.9154,4.912,4.9154,4.8917,4.8748,4.8917,4.9052,4.912,4.9492,4.9932,5.0101,4.9932,4.9984,5.0304,5.0371,5.0387,5.0574,5.0744,4.9898,4.9187,4.983,5.0252,4.9911,4.9807,4.9662,5.0088,5.1406,5.1406,5.1396,5.1326,5.1263,5.1075,5.097,5.1006,5.0831,5.0866,5.0938,5.0784,5.0938,5.0861,5.1015,5.0938,5.0789,5.0707,5.0899,5.088,5.0642,5.079,5.0652,5.0424,4.9975,4.9551,4.926,4.891,4.866,4.8504,4.842,4.8316,4.8379,4.8333,4.8296,4.8296,4.8003,4.7636,4.7003,4.6571,4.5993,4.581,4.5838,4.5828,4.5929,4.6214,4.6919,4.7026,4.7202,4.7549,4.7334,4.7135,4.6879,4.6531,4.6341,4.6329,4.647,4.6242,4.5828,4.5108,4.4838,4.4959,4.5295,4.5838,4.6225,4.6549,4.7022,4.7413,4.7293,4.7361,4.765,4.7921,4.809,4.8293,4.8631,4.8849,4.9018,4.8984,4.9208,5.0017,5.0288,5.0236,5.0541,5.0409,5.0123,4.9814,4.9661,4.9695,4.956,4.956,4.939,4.9289,4.9086,4.8984,4.9052,4.9323,4.9814,5.027,5.071,5.0845,5.0829,5.0998,5.11,5.1214,5.1246,5.1503,5.1639,5.1012,5.0775,5.1369,5.152,5.1176,5.1176,5.13,5.1871,5.1406,5.1406,5.1405,5.1392,5.1387,5.1694,5.179,5.1842,5.2087,5.2241,5.2202,5.2241,5.2241,5.2202,5.2241,5.2241,5.2241,5.2241,5.2202,5.2236,5.221,5.2146,5.1946,5.1381,5.0937,5.0478,4.9872,4.9193,4.8833,4.8769,4.8946,4.887,4.8656,4.8333,4.8296,4.848,4.8186,4.7856,4.7406,4.6892,4.6792,4.6645,4.6645,4.6645,4.7241,4.7462,4.7773,4.7819,4.7953,4.7962,4.7803,4.7616,4.7446,4.7115,4.7039,4.71,4.7361,4.7486,4.7097,4.6219,4.5348,4.5521,4.5969,4.6544,4.7014,4.7192,4.753,4.7785,4.8056,4.8206,4.8443,4.8578,4.8631,4.8665,4.8748,4.8951,4.9052,4.9086,4.9526,5.027,5.0405,5.0371,5.0777,5.1201,5.0863,5.0574,5.0423,5.0288,5.0153,5.0085,4.9984,4.983,4.9612,4.9729,4.983,5.022,5.0694,5.11,5.1522,5.1505,5.1573,5.1776,5.1876,5.1992,5.2237,5.2604,5.2656,5.226,5.2211,5.231,5.2461,5.2475,5.2604,5.2848,5.3492,5.1406,5.1406,5.168,5.1793,5.1841,5.2179,5.2489,5.2732,5.3034,5.3223,5.3203,5.3197,5.3197,5.3197,5.3159,5.3121,5.3044,5.3044,5.3121,5.3082,5.3044,5.3197,5.2941,5.2477,5.1802,5.1337,5.0645,4.9904,4.9134,4.9171,4.9352,4.9426,4.9319,4.9226,4.914,4.903,4.892,4.8563,4.8233,4.7636,4.7562,4.7452,4.7452,4.7489,4.7929,4.8113,4.8186,4.8186,4.8194,4.818,4.8062,4.7951,4.7839,4.7762,4.7787,4.8066,4.8417,4.8753,4.8372,4.7407,4.651,4.6848,4.7058,4.7442,4.7694,4.8041,4.835,4.8293,4.8714,4.9018,4.9018,4.8917,4.8883,4.8849,4.8883,4.9018,4.9187,4.9289,4.9864,5.0473,5.0676,5.1217,5.1758,5.2182,5.1607,5.1201,5.0863,5.0795,5.0795,5.0761,5.0863,5.0626,5.0356,5.0541,5.0811,5.1452,5.201,5.2013,5.2334,5.2198,5.2249,5.2468,5.2753,5.2984,5.3313,5.3706,5.3719,5.3468,5.3208,5.2947,5.3275,5.3726,5.4111,5.4394,5.4888,5.1406,5.1523,5.2305,5.2653,5.2751,5.2568,5.2979,5.3521,5.3558,5.349,5.3477,5.3433,5.3428,5.3428,5.3621,5.3621,5.3582,5.3505,5.3472,5.3587,5.3703,5.3433,5.3336,5.3135,5.2763,5.1811,5.1325,5.073,4.9747,5.0191,5.0248,5.0351,5.0586,5.0652,5.0692,5.0692,5.0335,4.9684,4.949,4.8903,4.8453,4.8223,4.8113,4.8343,4.8453,4.8563,4.881,4.881,4.8837,4.8771,4.8715,4.8629,4.861,4.8536,4.8783,4.9388,4.9565,4.9887,5.0157,4.8946,4.8562,4.8453,4.8507,4.8741,4.9154,4.9248,4.8968,4.8775,4.8951,4.9018,4.9018,4.9086,4.912,4.9357,4.939,4.9458,4.9661,4.9796,5.0439,5.1014,5.1758,5.2469,5.301,5.3196,5.2486,5.1911,5.1404,5.1269,5.1472,5.1657,5.1826,5.1757,5.1503,5.1735,5.2124,5.2855,5.3313,5.3247,5.3144,5.3072,5.3123,5.3309,5.3611,5.3909,5.424,5.4572,5.4707,5.473,5.4654,5.4669,5.4734,5.5094,5.5496,5.5853,5.6191,5.1758,5.2266,5.2578,5.3358,5.4327,5.4288,5.4332,5.4572,5.4839,5.4955,5.4878,5.4857,5.4857,5.4857,5.478,5.4741,5.478,5.4857,5.4857,5.478,5.4747,5.4857,5.4692,5.4182,5.3804,5.3404,5.2853,5.2182,5.1653,5.1616,5.1661,5.1804,5.1881,5.1761,5.1096,5.0802,5.0582,5.0325,4.9931,4.9427,4.9123,4.871,4.8636,4.9123,4.916,4.9334,4.9728,4.9728,4.9728,4.9774,4.9738,4.9774,4.9811,4.9811,5.0031,5.0508,5.0729,5.1402,5.1683,5.1179,5.054,5.0104,4.9816,4.9875,4.9847,4.9727,4.9451,4.9172,4.9197,4.9317,4.9593,4.9744,4.9914,5.0473,5.0592,5.0608,5.071,5.0761,5.11,5.1657,5.23,5.284,5.3364,5.3601,5.3108,5.2973,5.2582,5.2484,5.2638,5.279,5.2942,5.2992,5.2956,5.3138,5.344,5.3745,5.3946,5.3896,5.3949,5.4052,5.4106,5.4054,5.4394,5.4634,5.5034,5.5396,5.5623,5.5936,5.6376,5.655,5.6276,5.6097,5.6286,5.6672,5.7082,5.2383,5.3164,5.3476,5.4218,5.5193,5.517,5.5227,5.5452,5.5819,5.5884,5.5753,5.5712,5.5686,5.5675,5.5708,5.5708,5.5708,5.567,5.567,5.5708,5.567,5.5555,5.5401,5.5164,5.4654,5.4407,5.3881,5.3248,5.2577,5.2686,5.2823,5.302,5.3198,5.2655,5.2012,5.1787,5.1573,5.1279,5.0812,5.0408,4.9994,4.9664,4.9517,4.9848,5.0078,5.0261,5.0618,5.0839,5.0839,5.0875,5.0839,5.0839,5.0839,5.0839,5.0949,5.1316,5.1919,5.2485,5.2631,5.2652,5.1927,5.1382,5.1165,5.0783,5.0397,5.0215,4.9849,4.9564,4.9642,5.0017,5.0438,5.0577,5.107,5.1616,5.1684,5.1681,5.1715,5.1781,5.2122,5.262,5.2999,5.3408,5.368,5.3699,5.3662,5.3731,5.3815,5.3768,5.3635,5.3601,5.3701,5.3749,5.383,5.3889,5.3986,5.4176,5.4371,5.4485,5.4544,5.4563,5.447,5.4351,5.4854,5.5399,5.5823,5.624,5.6731,5.7091,5.7277,5.7339,5.7204,5.7103,5.7127,5.7375,5.7765,5.3242,5.4101,5.4961,5.5273,5.5351,5.538,5.5628,5.6161,5.6128,5.6024,5.5885,5.5827,5.5771,5.5714,5.5708,5.5708,5.5708,5.5708,5.5708,5.5708,5.5708,5.5708,5.5708,5.5593,5.5203,5.4764,5.4419,5.4079,5.3213,5.3524,5.3861,5.385,5.3617,5.3262,5.3038,5.2784,5.2511,5.2087,5.1646,5.1253,5.0839,5.0618,5.0545,5.0729,5.0875,5.0986,5.1206,5.1242,5.1206,5.1132,5.1049,5.1022,5.0949,5.0912,5.14,5.1977,5.2784,5.2999,5.3077,5.3082,5.3071,5.252,5.2185,5.1647,5.1171,5.0908,5.0579,5.0777,5.1092,5.1227,5.146,5.1924,5.2403,5.2596,5.263,5.2665,5.2734,5.2957,5.3372,5.376,5.4062,5.4356,5.4485,5.4457,5.4516,5.4501,5.4582,5.4441,5.4235,5.3834,5.3931,5.4173,5.4267,5.4441,5.466,5.5107,5.519,5.5448,5.4797,5.4712,5.4627,5.4881,5.5482,5.6065,5.6567,5.7015,5.7351,5.7582,5.7809,5.7857,5.7849,5.7971,5.7923,5.7947,5.8261,5.3555,5.4922,5.5195,5.5664,5.6172,5.6208,5.6261,5.6344,5.6256,5.6116,5.59,5.5893,5.5827,5.5714,5.5708,5.5708,5.5708,5.5708,5.5708,5.5708,5.5708,5.5708,5.5708,5.567,5.5511,5.5395,5.5225,5.5039,5.4846,5.4867,5.4541,5.4444,5.397,5.372,5.3504,5.3334,5.3078,5.2758,5.2338,5.1987,5.1573,5.1242,5.1353,5.1536,5.1646,5.183,5.2197,5.2297,5.2333,5.2407,5.2443,5.248,5.2517,5.2517,5.2737,5.2784,5.3104,5.3167,5.3214,5.3214,5.3287,5.3486,5.3296,5.3216,5.2579,5.2041,5.1705,5.2113,5.2938,5.3373,5.331,5.357,5.3977,5.4173,5.4244,5.4279,5.4314,5.4454,5.4791,5.4817,5.5149,5.5104,5.5214,5.5449,5.5522,5.5399,5.5282,5.5184,5.4913,5.452,5.4444,5.4707,5.483,5.4994,5.5879,5.6433,5.6394,5.627,5.5675,5.5346,5.5691,5.603,5.6338,5.6884,5.7601,5.779,5.7821,5.8107,5.851,5.8364,5.838,5.8588,5.876,5.8808,5.9015,5.4258,5.5703,5.582,5.6133,5.6523,5.6601,5.6556,5.6457,5.6388,5.6208,5.5974,5.5973,5.5837,5.5724,5.5708,5.5708,5.5708,5.5708,5.5708,5.5708,5.5708,5.5708,5.5708,5.5708,5.567,5.5708,5.5708,5.5544,5.5605,5.5425,5.5085,5.4814,5.4272,5.4006,5.3833,5.363,5.3457,5.3181,5.2841,5.2558,5.2234,5.194,5.2197,5.2307,5.2417,5.2774,5.3104,5.3177,5.3214,5.3214,5.3214,5.3177,5.3177,5.3177,5.3177,5.3141,5.3177,5.3434,5.3654,5.3728,5.3875,5.4157,5.447,5.4706,5.4419,5.3929,5.3618,5.3687,5.4875,5.5664,5.5401,5.5258,5.5623,5.5988,5.6023,5.6023,5.6023,5.6059,5.6031,5.6004,5.5998,5.5928,5.6053,5.6349,5.6416,5.6199,5.6089,5.5998,5.5731,5.5341,5.5317,5.5493,5.5507,5.5609,5.6586,5.7411,5.7436,5.7169,5.66,5.643,5.6804,5.7191,5.7556,5.8105,5.8762,5.8845,5.8877,5.8988,5.9245,5.9098,5.9208,5.9613,5.9809,5.9784,6.0138,5.5,5.6562,5.6601,5.6562,5.6601,5.6601,5.6601,5.6601,5.6473,5.631,5.6106,5.6044,5.5875,5.5745,5.5708,5.5708,5.5708,5.5708,5.5708,5.5708,5.5708,5.5708,5.5708,5.5708,5.5708,5.5708,5.5708,5.5703,5.5665,5.5502,5.5326,5.5095,5.4686,5.4401,5.4253,5.4017,5.3833,5.3625,5.339,5.3124,5.3083,5.3115,5.3214,5.3141,5.3104,5.3177,5.3177,5.3214,5.3214,5.3214,5.3214,5.3214,5.3214,5.3214,5.3214,5.3324,5.3361,5.3728,5.4142,5.4363,5.4803,5.5218,5.5647,5.5885,5.5645,5.508,5.4701,5.5316,5.6394,5.6648,5.6451,5.6458,5.6745,5.6876,5.6876,5.6876,5.6876,5.6876,5.6863,5.685,5.6838,5.6871,5.7319,5.7683,5.8109,5.7443,5.728,5.7316,5.7087,5.6701,5.6377,5.6459,5.6262,5.6393,5.7057,5.7814,5.8309,5.8087,5.7649,5.7626,5.8069,5.8433,5.8769,5.9186,5.9602,5.9907,6.004,5.9979,5.9905,6.0015,6.0236,6.075,6.0896,6.0823,6.1117,5.5,5.6601,5.6601,5.6601,5.6601,5.6601,5.6601,5.6601,5.6506,5.6353,5.6206,5.6096,5.5934,5.5751,5.5719,5.5714,5.5708,5.5708,5.5708,5.5708,5.5708,5.5708,5.5708,5.5708,5.5708,5.5708,5.5708,5.5708,5.5687,5.5632,5.5564,5.5376,5.5033,5.4828,5.47,5.4425,5.4233,5.4068,5.3796,5.3543,5.3359,5.3241,5.3214,5.3214,5.3214,5.3287,5.3287,5.3287,5.3251,5.3214,5.3214,5.3214,5.3214,5.3251,5.3214,5.3287,5.3838,5.4252,5.4656,5.506,5.5511,5.5794,5.6161,5.6492,5.6458,5.5874,5.5987,5.6845,5.7359,5.7446,5.7495,5.7545,5.7619,5.7619,5.7619,5.7619,5.7631,5.7631,5.7631,5.7667,5.7667,5.8008,5.847,5.9103,5.9517,5.9652,5.9591,5.9554,5.9334,5.8914,5.7882,5.7702,5.7142,5.7282,5.7753,5.8653,5.9357,5.9612,5.9332,5.9319,5.9343,5.9612,5.9869,6.0015,6.0285,6.0701,6.0811,6.0419,6.0419,6.0737,6.1043,6.1484,6.1741,6.1704,6.2095,5.5,5.6523,5.6601,5.6601,5.6601,5.6601,5.6601,5.6601,5.6555,5.6441,5.6267,5.6197,5.6019,5.5807,5.5761,5.5724,5.5714,5.5708,5.5708,5.5708,5.5708,5.5708,5.5708,5.5708,5.5708,5.5708,5.5708,5.5708,5.5747,5.5698,5.5638,5.5591,5.5396,5.5261,5.5127,5.488,5.4746,5.4474,5.4271,5.399,5.3686,5.3427,5.3246,5.3214,5.3471,5.3628,5.3922,5.3995,5.4252,5.4289,5.4363,5.4363,5.4399,5.4399,5.4363,5.4436,5.473,5.5097,5.5427,5.5794,5.6246,5.6602,5.6895,5.7373,5.7409,5.6935,5.6935,5.7696,5.7707,5.7757,5.7757,5.7832,5.7821,5.7821,5.7821,5.7821,5.7821,5.7821,5.8113,5.8504,5.848,5.8491,5.9297,6.0799,6.0982,6.0102,6.0358,6.0469,6.0481,6.0701,5.9774,5.9164,5.8687,5.7984,5.7921,5.9248,6.0787,6.0921,6.0811,6.0676,6.0493,6.075,6.097,6.1153,6.1325,6.1618,6.1545,6.1227,6.1398,6.1802,6.1998,6.2181,6.2328,6.2438,6.261,5.5,5.6484,5.6601,5.6601,5.6601,5.6601,5.6601,5.6601,5.6597,5.6544,5.6385,5.6254,5.6089,5.5929,5.5837,5.5771,5.573,5.5708,5.5708,5.5708,5.5708,5.5708,5.5708,5.5708,5.5708,5.5824,5.5901,5.5978,5.6016,5.6203,5.633,5.5994,5.5836,5.5778,5.5658,5.5611,5.568,5.5562,5.5306,5.4865,5.4297,5.3682,5.3455,5.3587,5.3969,5.4399,5.473,5.5071,5.5511,5.5475,5.5328,5.5291,5.5254,5.5218,5.5291,5.5328,5.5537,5.6014,5.6492,5.6785,5.7262,5.7703,5.7923,5.796,5.7923,5.7923,5.7923,5.796,5.796,5.7997,5.7997,5.7997,5.7997,5.8253,5.8253,5.8364,5.8364,5.8327,5.8792,5.9306,5.9233,5.9171,6.0309,6.1875,6.1838,6.097,6.0676,6.0713,6.086,6.1251,6.1056,6.0787,6.0591,5.9749,5.8854,5.971,6.1557,6.1777,6.1618,6.1594,6.1594,6.1667,6.1887,6.2316,6.2536,6.2389,6.2426,6.2279,6.2536,6.2646,6.2536,6.2511,6.2597,6.2683,6.2794,5.5,5.6601,5.6601,5.6601,5.6601,5.6601,5.6601,5.6601,5.66,5.6553,5.6452,5.6392,5.6203,5.5921,5.5907,5.5808,5.5719,5.5708,5.5708,5.5708,5.5708,5.5708,5.5708,5.5708,5.5708,5.5939,5.6324,5.6709,5.6786,5.7319,5.7736,5.7593,5.7631,5.7591,5.7624,5.7477,5.725,5.7021,5.6799,5.652,5.5785,5.5044,5.4025,5.407,5.4343,5.4825,5.5218,5.5475,5.5585,5.5585,5.5732,5.5805,5.5879,5.5915,5.5915,5.6099,5.6308,5.6638,5.7031,5.7373,5.7813,5.7886,5.7997,5.796,5.796,5.796,5.796,5.796,5.7997,5.7997,5.7997,5.8107,5.818,5.8951,5.9281,5.9538,5.9685,5.9648,5.9783,5.993,5.9857,6.0199,6.0921,6.2059,6.2609,6.1985,6.1985,6.1985,6.1912,6.2059,6.2132,6.2095,6.2022,6.1692,6.0848,6.0713,6.1851,6.2144,6.2254,6.1924,6.1924,6.2365,6.2646,6.2756,6.2793,6.2683,6.2793,6.2793,6.2939,6.2939,6.2793,6.2768,6.2891,6.3211,6.3518]}]]